<?xml version="1.0" encoding="UTF-8" standalone="no" ?>
<gpx xmlns="http://www.topografix.com/GPX/1/1" xmlns:xsi="http://www.w3.org/2001/XMLSchema-instance" xsi:schemaLocation="http://www.topografix.com/GPX/1/1 http://www.topografix.com/GPX/1/1/gpx.xsd" version="1.1" creator="VisuGPX - https://www.visugpx.com">
  <metadata>
    <name>Sortie 21-05</name>
    <desc><![CDATA[sortie Aspach Leimbach Rammersmatt]]></desc>
  </metadata>
  <trk>
    <name><![CDATA[Track000]]></name>
    <trkseg>
      <trkpt lat="47.82206" lon="7.35567">
        <ele>229.7</ele>
        <time>2017-05-21T09:09:49Z</time>
      </trkpt>
      <trkpt lat="47.82206" lon="7.35567">
        <ele>229.7</ele>
        <time>2017-05-21T09:09:53Z</time>
      </trkpt>
      <trkpt lat="47.82206" lon="7.35567">
        <ele>229.7</ele>
        <time>2017-05-21T09:09:57Z</time>
      </trkpt>
      <trkpt lat="47.82144" lon="7.35538">
        <ele>225</ele>
        <time>2017-05-21T09:10:02Z</time>
      </trkpt>
      <trkpt lat="47.82144" lon="7.35538">
        <ele>225</ele>
        <time>2017-05-21T09:10:06Z</time>
      </trkpt>
      <trkpt lat="47.82144" lon="7.35538">
        <ele>225</ele>
        <time>2017-05-21T09:10:10Z</time>
      </trkpt>
      <trkpt lat="47.82068" lon="7.35509">
        <ele>225.3</ele>
        <time>2017-05-21T09:10:14Z</time>
      </trkpt>
      <trkpt lat="47.82018" lon="7.35504">
        <ele>225.6</ele>
        <time>2017-05-21T09:10:18Z</time>
      </trkpt>
      <trkpt lat="47.81983" lon="7.35502">
        <ele>226.6</ele>
        <time>2017-05-21T09:10:24Z</time>
      </trkpt>
      <trkpt lat="47.81963" lon="7.35503">
        <ele>227.6</ele>
        <time>2017-05-21T09:10:27Z</time>
      </trkpt>
      <trkpt lat="47.81934" lon="7.35507">
        <ele>227.6</ele>
        <time>2017-05-21T09:10:31Z</time>
      </trkpt>
      <trkpt lat="47.81925" lon="7.35541">
        <ele>227.1</ele>
        <time>2017-05-21T09:10:35Z</time>
      </trkpt>
      <trkpt lat="47.81929" lon="7.35577">
        <ele>227.4</ele>
        <time>2017-05-21T09:10:40Z</time>
      </trkpt>
      <trkpt lat="47.81935" lon="7.35611">
        <ele>226.9</ele>
        <time>2017-05-21T09:10:44Z</time>
      </trkpt>
      <trkpt lat="47.81926" lon="7.35623">
        <ele>226.8</ele>
        <time>2017-05-21T09:10:48Z</time>
      </trkpt>
      <trkpt lat="47.81907" lon="7.35604">
        <ele>226.3</ele>
        <time>2017-05-21T09:10:52Z</time>
      </trkpt>
      <trkpt lat="47.81873" lon="7.3557">
        <ele>226.1</ele>
        <time>2017-05-21T09:10:57Z</time>
      </trkpt>
      <trkpt lat="47.81854" lon="7.35542">
        <ele>226.2</ele>
        <time>2017-05-21T09:11:01Z</time>
      </trkpt>
      <trkpt lat="47.81836" lon="7.35509">
        <ele>226.2</ele>
        <time>2017-05-21T09:11:06Z</time>
      </trkpt>
      <trkpt lat="47.81817" lon="7.35477">
        <ele>226.2</ele>
        <time>2017-05-21T09:11:10Z</time>
      </trkpt>
      <trkpt lat="47.81799" lon="7.35445">
        <ele>225.8</ele>
        <time>2017-05-21T09:11:14Z</time>
      </trkpt>
      <trkpt lat="47.8178" lon="7.35412">
        <ele>225.9</ele>
        <time>2017-05-21T09:11:18Z</time>
      </trkpt>
      <trkpt lat="47.81751" lon="7.35362">
        <ele>226</ele>
        <time>2017-05-21T09:11:23Z</time>
      </trkpt>
      <trkpt lat="47.8173" lon="7.35327">
        <ele>225.7</ele>
        <time>2017-05-21T09:11:27Z</time>
      </trkpt>
      <trkpt lat="47.81709" lon="7.35293">
        <ele>226</ele>
        <time>2017-05-21T09:11:32Z</time>
      </trkpt>
      <trkpt lat="47.81689" lon="7.35259">
        <ele>225.8</ele>
        <time>2017-05-21T09:11:36Z</time>
      </trkpt>
      <trkpt lat="47.8166" lon="7.35208">
        <ele>226</ele>
        <time>2017-05-21T09:11:42Z</time>
      </trkpt>
      <trkpt lat="47.81639" lon="7.35173">
        <ele>226</ele>
        <time>2017-05-21T09:11:45Z</time>
      </trkpt>
      <trkpt lat="47.81619" lon="7.35138">
        <ele>226.6</ele>
        <time>2017-05-21T09:11:49Z</time>
      </trkpt>
      <trkpt lat="47.81598" lon="7.35104">
        <ele>226.4</ele>
        <time>2017-05-21T09:11:53Z</time>
      </trkpt>
      <trkpt lat="47.81578" lon="7.35066">
        <ele>226.4</ele>
        <time>2017-05-21T09:11:58Z</time>
      </trkpt>
      <trkpt lat="47.81557" lon="7.3503">
        <ele>226.3</ele>
        <time>2017-05-21T09:12:02Z</time>
      </trkpt>
      <trkpt lat="47.81537" lon="7.34995">
        <ele>226.6</ele>
        <time>2017-05-21T09:12:06Z</time>
      </trkpt>
      <trkpt lat="47.81508" lon="7.34946">
        <ele>226.5</ele>
        <time>2017-05-21T09:12:12Z</time>
      </trkpt>
      <trkpt lat="47.81489" lon="7.34914">
        <ele>226.7</ele>
        <time>2017-05-21T09:12:15Z</time>
      </trkpt>
      <trkpt lat="47.8147" lon="7.34881">
        <ele>226.9</ele>
        <time>2017-05-21T09:12:19Z</time>
      </trkpt>
      <trkpt lat="47.81456" lon="7.34856">
        <ele>227.2</ele>
        <time>2017-05-21T09:12:23Z</time>
      </trkpt>
      <trkpt lat="47.81437" lon="7.34823">
        <ele>227.4</ele>
        <time>2017-05-21T09:12:27Z</time>
      </trkpt>
      <trkpt lat="47.81418" lon="7.34791">
        <ele>227.8</ele>
        <time>2017-05-21T09:12:31Z</time>
      </trkpt>
      <trkpt lat="47.8139" lon="7.34744">
        <ele>228.1</ele>
        <time>2017-05-21T09:12:36Z</time>
      </trkpt>
      <trkpt lat="47.81371" lon="7.34713">
        <ele>227.9</ele>
        <time>2017-05-21T09:12:40Z</time>
      </trkpt>
      <trkpt lat="47.81353" lon="7.34681">
        <ele>228.1</ele>
        <time>2017-05-21T09:12:45Z</time>
      </trkpt>
      <trkpt lat="47.81334" lon="7.34649">
        <ele>228.2</ele>
        <time>2017-05-21T09:12:48Z</time>
      </trkpt>
      <trkpt lat="47.81316" lon="7.34618">
        <ele>228.6</ele>
        <time>2017-05-21T09:12:52Z</time>
      </trkpt>
      <trkpt lat="47.81296" lon="7.34586">
        <ele>229.1</ele>
        <time>2017-05-21T09:12:56Z</time>
      </trkpt>
      <trkpt lat="47.81277" lon="7.34553">
        <ele>229.3</ele>
        <time>2017-05-21T09:13:00Z</time>
      </trkpt>
      <trkpt lat="47.81258" lon="7.34521">
        <ele>228.5</ele>
        <time>2017-05-21T09:13:04Z</time>
      </trkpt>
      <trkpt lat="47.8124" lon="7.3449">
        <ele>228.2</ele>
        <time>2017-05-21T09:13:08Z</time>
      </trkpt>
      <trkpt lat="47.81222" lon="7.34459">
        <ele>227.9</ele>
        <time>2017-05-21T09:13:13Z</time>
      </trkpt>
      <trkpt lat="47.81203" lon="7.34428">
        <ele>227.5</ele>
        <time>2017-05-21T09:13:17Z</time>
      </trkpt>
      <trkpt lat="47.81185" lon="7.34397">
        <ele>227.4</ele>
        <time>2017-05-21T09:13:21Z</time>
      </trkpt>
      <trkpt lat="47.81166" lon="7.34364">
        <ele>227.4</ele>
        <time>2017-05-21T09:13:25Z</time>
      </trkpt>
      <trkpt lat="47.81148" lon="7.34334">
        <ele>227.6</ele>
        <time>2017-05-21T09:13:29Z</time>
      </trkpt>
      <trkpt lat="47.81127" lon="7.34304">
        <ele>227.7</ele>
        <time>2017-05-21T09:13:33Z</time>
      </trkpt>
      <trkpt lat="47.81095" lon="7.34261">
        <ele>228.1</ele>
        <time>2017-05-21T09:13:39Z</time>
      </trkpt>
      <trkpt lat="47.81074" lon="7.34228">
        <ele>228.6</ele>
        <time>2017-05-21T09:13:42Z</time>
      </trkpt>
      <trkpt lat="47.81059" lon="7.34193">
        <ele>228.1</ele>
        <time>2017-05-21T09:13:46Z</time>
      </trkpt>
      <trkpt lat="47.81048" lon="7.34161">
        <ele>228.9</ele>
        <time>2017-05-21T09:13:51Z</time>
      </trkpt>
      <trkpt lat="47.8104" lon="7.3413">
        <ele>229.2</ele>
        <time>2017-05-21T09:13:54Z</time>
      </trkpt>
      <trkpt lat="47.81031" lon="7.341">
        <ele>228.9</ele>
        <time>2017-05-21T09:13:59Z</time>
      </trkpt>
      <trkpt lat="47.81025" lon="7.34064">
        <ele>228.9</ele>
        <time>2017-05-21T09:14:03Z</time>
      </trkpt>
      <trkpt lat="47.81015" lon="7.3401">
        <ele>229.9</ele>
        <time>2017-05-21T09:14:08Z</time>
      </trkpt>
      <trkpt lat="47.81009" lon="7.33981">
        <ele>230.8</ele>
        <time>2017-05-21T09:14:12Z</time>
      </trkpt>
      <trkpt lat="47.8101" lon="7.33962">
        <ele>230.7</ele>
        <time>2017-05-21T09:14:17Z</time>
      </trkpt>
      <trkpt lat="47.81005" lon="7.33937">
        <ele>230.7</ele>
        <time>2017-05-21T09:14:21Z</time>
      </trkpt>
      <trkpt lat="47.81" lon="7.33903">
        <ele>230.9</ele>
        <time>2017-05-21T09:14:25Z</time>
      </trkpt>
      <trkpt lat="47.80989" lon="7.33851">
        <ele>230.6</ele>
        <time>2017-05-21T09:14:30Z</time>
      </trkpt>
      <trkpt lat="47.80964" lon="7.33852">
        <ele>231</ele>
        <time>2017-05-21T09:14:35Z</time>
      </trkpt>
      <trkpt lat="47.80938" lon="7.3386">
        <ele>231.2</ele>
        <time>2017-05-21T09:14:38Z</time>
      </trkpt>
      <trkpt lat="47.80912" lon="7.33869">
        <ele>231</ele>
        <time>2017-05-21T09:14:42Z</time>
      </trkpt>
      <trkpt lat="47.80885" lon="7.33878">
        <ele>231.4</ele>
        <time>2017-05-21T09:14:47Z</time>
      </trkpt>
      <trkpt lat="47.80858" lon="7.33889">
        <ele>231.7</ele>
        <time>2017-05-21T09:14:50Z</time>
      </trkpt>
      <trkpt lat="47.80832" lon="7.33897">
        <ele>230.4</ele>
        <time>2017-05-21T09:14:54Z</time>
      </trkpt>
      <trkpt lat="47.80808" lon="7.33904">
        <ele>230.7</ele>
        <time>2017-05-21T09:14:58Z</time>
      </trkpt>
      <trkpt lat="47.80778" lon="7.3391">
        <ele>231</ele>
        <time>2017-05-21T09:15:03Z</time>
      </trkpt>
      <trkpt lat="47.80751" lon="7.33895">
        <ele>231.2</ele>
        <time>2017-05-21T09:15:07Z</time>
      </trkpt>
      <trkpt lat="47.80727" lon="7.33872">
        <ele>230.6</ele>
        <time>2017-05-21T09:15:11Z</time>
      </trkpt>
      <trkpt lat="47.807" lon="7.33851">
        <ele>229.4</ele>
        <time>2017-05-21T09:15:15Z</time>
      </trkpt>
      <trkpt lat="47.80673" lon="7.33828">
        <ele>230.1</ele>
        <time>2017-05-21T09:15:19Z</time>
      </trkpt>
      <trkpt lat="47.80648" lon="7.33805">
        <ele>230</ele>
        <time>2017-05-21T09:15:23Z</time>
      </trkpt>
      <trkpt lat="47.8062" lon="7.3376">
        <ele>230.2</ele>
        <time>2017-05-21T09:15:29Z</time>
      </trkpt>
      <trkpt lat="47.80618" lon="7.33727">
        <ele>229.6</ele>
        <time>2017-05-21T09:15:32Z</time>
      </trkpt>
      <trkpt lat="47.806" lon="7.33717">
        <ele>229.4</ele>
        <time>2017-05-21T09:15:36Z</time>
      </trkpt>
      <trkpt lat="47.80569" lon="7.33711">
        <ele>230</ele>
        <time>2017-05-21T09:15:40Z</time>
      </trkpt>
      <trkpt lat="47.80537" lon="7.33703">
        <ele>229.7</ele>
        <time>2017-05-21T09:15:45Z</time>
      </trkpt>
      <trkpt lat="47.80506" lon="7.33707">
        <ele>229.7</ele>
        <time>2017-05-21T09:15:49Z</time>
      </trkpt>
      <trkpt lat="47.80475" lon="7.33711">
        <ele>230.6</ele>
        <time>2017-05-21T09:15:53Z</time>
      </trkpt>
      <trkpt lat="47.80427" lon="7.3371">
        <ele>231.3</ele>
        <time>2017-05-21T09:15:59Z</time>
      </trkpt>
      <trkpt lat="47.80396" lon="7.33709">
        <ele>232.5</ele>
        <time>2017-05-21T09:16:02Z</time>
      </trkpt>
      <trkpt lat="47.80373" lon="7.33708">
        <ele>233.4</ele>
        <time>2017-05-21T09:16:06Z</time>
      </trkpt>
      <trkpt lat="47.80343" lon="7.33708">
        <ele>234.4</ele>
        <time>2017-05-21T09:16:10Z</time>
      </trkpt>
      <trkpt lat="47.80312" lon="7.33707">
        <ele>235.6</ele>
        <time>2017-05-21T09:16:14Z</time>
      </trkpt>
      <trkpt lat="47.80267" lon="7.33705">
        <ele>233.8</ele>
        <time>2017-05-21T09:16:19Z</time>
      </trkpt>
      <trkpt lat="47.80238" lon="7.33705">
        <ele>233.2</ele>
        <time>2017-05-21T09:16:23Z</time>
      </trkpt>
      <trkpt lat="47.80209" lon="7.33705">
        <ele>233.7</ele>
        <time>2017-05-21T09:16:27Z</time>
      </trkpt>
      <trkpt lat="47.80181" lon="7.33706">
        <ele>233.1</ele>
        <time>2017-05-21T09:16:32Z</time>
      </trkpt>
      <trkpt lat="47.80152" lon="7.33706">
        <ele>233.2</ele>
        <time>2017-05-21T09:16:35Z</time>
      </trkpt>
      <trkpt lat="47.80123" lon="7.33703">
        <ele>233</ele>
        <time>2017-05-21T09:16:39Z</time>
      </trkpt>
      <trkpt lat="47.80094" lon="7.33695">
        <ele>232.3</ele>
        <time>2017-05-21T09:16:43Z</time>
      </trkpt>
      <trkpt lat="47.80065" lon="7.33687">
        <ele>232.1</ele>
        <time>2017-05-21T09:16:47Z</time>
      </trkpt>
      <trkpt lat="47.80036" lon="7.33681">
        <ele>232.8</ele>
        <time>2017-05-21T09:16:51Z</time>
      </trkpt>
      <trkpt lat="47.80009" lon="7.33672">
        <ele>233</ele>
        <time>2017-05-21T09:16:55Z</time>
      </trkpt>
      <trkpt lat="47.79981" lon="7.33663">
        <ele>233.1</ele>
        <time>2017-05-21T09:16:59Z</time>
      </trkpt>
      <trkpt lat="47.79954" lon="7.33654">
        <ele>233.3</ele>
        <time>2017-05-21T09:17:04Z</time>
      </trkpt>
      <trkpt lat="47.79926" lon="7.33648">
        <ele>233.6</ele>
        <time>2017-05-21T09:17:07Z</time>
      </trkpt>
      <trkpt lat="47.79898" lon="7.3364">
        <ele>233.3</ele>
        <time>2017-05-21T09:17:11Z</time>
      </trkpt>
      <trkpt lat="47.7987" lon="7.33631">
        <ele>233.1</ele>
        <time>2017-05-21T09:17:16Z</time>
      </trkpt>
      <trkpt lat="47.79841" lon="7.33623">
        <ele>231.9</ele>
        <time>2017-05-21T09:17:20Z</time>
      </trkpt>
      <trkpt lat="47.79814" lon="7.33615">
        <ele>231.2</ele>
        <time>2017-05-21T09:17:24Z</time>
      </trkpt>
      <trkpt lat="47.79787" lon="7.33614">
        <ele>231.4</ele>
        <time>2017-05-21T09:17:28Z</time>
      </trkpt>
      <trkpt lat="47.79762" lon="7.3361">
        <ele>231.4</ele>
        <time>2017-05-21T09:17:32Z</time>
      </trkpt>
      <trkpt lat="47.79721" lon="7.33609">
        <ele>231.6</ele>
        <time>2017-05-21T09:17:37Z</time>
      </trkpt>
      <trkpt lat="47.79688" lon="7.3361">
        <ele>231.3</ele>
        <time>2017-05-21T09:17:41Z</time>
      </trkpt>
      <trkpt lat="47.79657" lon="7.33611">
        <ele>232.1</ele>
        <time>2017-05-21T09:17:46Z</time>
      </trkpt>
      <trkpt lat="47.79627" lon="7.33616">
        <ele>232.8</ele>
        <time>2017-05-21T09:17:50Z</time>
      </trkpt>
      <trkpt lat="47.7959" lon="7.33606">
        <ele>231.6</ele>
        <time>2017-05-21T09:17:54Z</time>
      </trkpt>
      <trkpt lat="47.79563" lon="7.33601">
        <ele>231.2</ele>
        <time>2017-05-21T09:17:59Z</time>
      </trkpt>
      <trkpt lat="47.79537" lon="7.33584">
        <ele>230.8</ele>
        <time>2017-05-21T09:18:03Z</time>
      </trkpt>
      <trkpt lat="47.7951" lon="7.33572">
        <ele>230.8</ele>
        <time>2017-05-21T09:18:08Z</time>
      </trkpt>
      <trkpt lat="47.79481" lon="7.33566">
        <ele>231.1</ele>
        <time>2017-05-21T09:18:11Z</time>
      </trkpt>
      <trkpt lat="47.79446" lon="7.33564">
        <ele>231.6</ele>
        <time>2017-05-21T09:18:15Z</time>
      </trkpt>
      <trkpt lat="47.79419" lon="7.33563">
        <ele>232.2</ele>
        <time>2017-05-21T09:18:20Z</time>
      </trkpt>
      <trkpt lat="47.79399" lon="7.33561">
        <ele>232.6</ele>
        <time>2017-05-21T09:18:24Z</time>
      </trkpt>
      <trkpt lat="47.79391" lon="7.33553">
        <ele>232.6</ele>
        <time>2017-05-21T09:18:28Z</time>
      </trkpt>
      <trkpt lat="47.79394" lon="7.33509">
        <ele>231.6</ele>
        <time>2017-05-21T09:18:33Z</time>
      </trkpt>
      <trkpt lat="47.79397" lon="7.33467">
        <ele>232</ele>
        <time>2017-05-21T09:18:37Z</time>
      </trkpt>
      <trkpt lat="47.79397" lon="7.33414">
        <ele>232.9</ele>
        <time>2017-05-21T09:18:41Z</time>
      </trkpt>
      <trkpt lat="47.79393" lon="7.33373">
        <ele>232.5</ele>
        <time>2017-05-21T09:18:45Z</time>
      </trkpt>
      <trkpt lat="47.79389" lon="7.33331">
        <ele>233.2</ele>
        <time>2017-05-21T09:18:49Z</time>
      </trkpt>
      <trkpt lat="47.79382" lon="7.33292">
        <ele>233.1</ele>
        <time>2017-05-21T09:18:53Z</time>
      </trkpt>
      <trkpt lat="47.79374" lon="7.33234">
        <ele>234</ele>
        <time>2017-05-21T09:18:58Z</time>
      </trkpt>
      <trkpt lat="47.79366" lon="7.33195">
        <ele>234.1</ele>
        <time>2017-05-21T09:19:03Z</time>
      </trkpt>
      <trkpt lat="47.79354" lon="7.33157">
        <ele>234.1</ele>
        <time>2017-05-21T09:19:06Z</time>
      </trkpt>
      <trkpt lat="47.79342" lon="7.33119">
        <ele>233.9</ele>
        <time>2017-05-21T09:19:10Z</time>
      </trkpt>
      <trkpt lat="47.79334" lon="7.3308">
        <ele>234.1</ele>
        <time>2017-05-21T09:19:15Z</time>
      </trkpt>
      <trkpt lat="47.79326" lon="7.3304">
        <ele>234</ele>
        <time>2017-05-21T09:19:19Z</time>
      </trkpt>
      <trkpt lat="47.79319" lon="7.33">
        <ele>234.6</ele>
        <time>2017-05-21T09:19:23Z</time>
      </trkpt>
      <trkpt lat="47.7931" lon="7.32963">
        <ele>234.5</ele>
        <time>2017-05-21T09:19:27Z</time>
      </trkpt>
      <trkpt lat="47.79288" lon="7.32913">
        <ele>233.9</ele>
        <time>2017-05-21T09:19:32Z</time>
      </trkpt>
      <trkpt lat="47.7927" lon="7.32882">
        <ele>234.2</ele>
        <time>2017-05-21T09:19:36Z</time>
      </trkpt>
      <trkpt lat="47.79252" lon="7.32852">
        <ele>234.1</ele>
        <time>2017-05-21T09:19:41Z</time>
      </trkpt>
      <trkpt lat="47.79233" lon="7.32822">
        <ele>234.6</ele>
        <time>2017-05-21T09:19:45Z</time>
      </trkpt>
      <trkpt lat="47.79213" lon="7.32781">
        <ele>234.7</ele>
        <time>2017-05-21T09:19:49Z</time>
      </trkpt>
      <trkpt lat="47.79207" lon="7.32764">
        <ele>234.7</ele>
        <time>2017-05-21T09:19:53Z</time>
      </trkpt>
      <trkpt lat="47.79193" lon="7.32718">
        <ele>234.9</ele>
        <time>2017-05-21T09:19:57Z</time>
      </trkpt>
      <trkpt lat="47.79182" lon="7.32671">
        <ele>235</ele>
        <time>2017-05-21T09:20:01Z</time>
      </trkpt>
      <trkpt lat="47.79175" lon="7.32632">
        <ele>234.7</ele>
        <time>2017-05-21T09:20:05Z</time>
      </trkpt>
      <trkpt lat="47.7917" lon="7.3259">
        <ele>234.6</ele>
        <time>2017-05-21T09:20:10Z</time>
      </trkpt>
      <trkpt lat="47.79162" lon="7.32528">
        <ele>235.6</ele>
        <time>2017-05-21T09:20:15Z</time>
      </trkpt>
      <trkpt lat="47.79157" lon="7.32488">
        <ele>234.8</ele>
        <time>2017-05-21T09:20:19Z</time>
      </trkpt>
      <trkpt lat="47.79152" lon="7.32447">
        <ele>234.5</ele>
        <time>2017-05-21T09:20:23Z</time>
      </trkpt>
      <trkpt lat="47.79147" lon="7.32405">
        <ele>234.7</ele>
        <time>2017-05-21T09:20:27Z</time>
      </trkpt>
      <trkpt lat="47.7914" lon="7.32364">
        <ele>235.3</ele>
        <time>2017-05-21T09:20:32Z</time>
      </trkpt>
      <trkpt lat="47.79133" lon="7.32324">
        <ele>235.6</ele>
        <time>2017-05-21T09:20:35Z</time>
      </trkpt>
      <trkpt lat="47.79129" lon="7.32283">
        <ele>235.5</ele>
        <time>2017-05-21T09:20:39Z</time>
      </trkpt>
      <trkpt lat="47.79124" lon="7.32243">
        <ele>235.1</ele>
        <time>2017-05-21T09:20:44Z</time>
      </trkpt>
      <trkpt lat="47.79118" lon="7.32207">
        <ele>234.7</ele>
        <time>2017-05-21T09:20:48Z</time>
      </trkpt>
      <trkpt lat="47.79118" lon="7.32178">
        <ele>234.3</ele>
        <time>2017-05-21T09:20:52Z</time>
      </trkpt>
      <trkpt lat="47.791" lon="7.32151">
        <ele>234.3</ele>
        <time>2017-05-21T09:20:56Z</time>
      </trkpt>
      <trkpt lat="47.79081" lon="7.32121">
        <ele>233.4</ele>
        <time>2017-05-21T09:21:00Z</time>
      </trkpt>
      <trkpt lat="47.79053" lon="7.32078">
        <ele>233.5</ele>
        <time>2017-05-21T09:21:06Z</time>
      </trkpt>
      <trkpt lat="47.79035" lon="7.32049">
        <ele>233.6</ele>
        <time>2017-05-21T09:21:09Z</time>
      </trkpt>
      <trkpt lat="47.7902" lon="7.32016">
        <ele>234</ele>
        <time>2017-05-21T09:21:13Z</time>
      </trkpt>
      <trkpt lat="47.79006" lon="7.31983">
        <ele>234</ele>
        <time>2017-05-21T09:21:18Z</time>
      </trkpt>
      <trkpt lat="47.78993" lon="7.3195">
        <ele>234.3</ele>
        <time>2017-05-21T09:21:22Z</time>
      </trkpt>
      <trkpt lat="47.78982" lon="7.3192">
        <ele>234.9</ele>
        <time>2017-05-21T09:21:26Z</time>
      </trkpt>
      <trkpt lat="47.78977" lon="7.31889">
        <ele>235</ele>
        <time>2017-05-21T09:21:31Z</time>
      </trkpt>
      <trkpt lat="47.78973" lon="7.31856">
        <ele>235.7</ele>
        <time>2017-05-21T09:21:35Z</time>
      </trkpt>
      <trkpt lat="47.7897" lon="7.3182">
        <ele>236.5</ele>
        <time>2017-05-21T09:21:39Z</time>
      </trkpt>
      <trkpt lat="47.78968" lon="7.31783">
        <ele>237.1</ele>
        <time>2017-05-21T09:21:44Z</time>
      </trkpt>
      <trkpt lat="47.78966" lon="7.31747">
        <ele>237.4</ele>
        <time>2017-05-21T09:21:48Z</time>
      </trkpt>
      <trkpt lat="47.78965" lon="7.31711">
        <ele>237.6</ele>
        <time>2017-05-21T09:21:52Z</time>
      </trkpt>
      <trkpt lat="47.78963" lon="7.31675">
        <ele>237.5</ele>
        <time>2017-05-21T09:21:56Z</time>
      </trkpt>
      <trkpt lat="47.78961" lon="7.31639">
        <ele>237.8</ele>
        <time>2017-05-21T09:22:00Z</time>
      </trkpt>
      <trkpt lat="47.78963" lon="7.31588">
        <ele>238.3</ele>
        <time>2017-05-21T09:22:05Z</time>
      </trkpt>
      <trkpt lat="47.78979" lon="7.31564">
        <ele>237.8</ele>
        <time>2017-05-21T09:22:09Z</time>
      </trkpt>
      <trkpt lat="47.78992" lon="7.31534">
        <ele>237</ele>
        <time>2017-05-21T09:22:13Z</time>
      </trkpt>
      <trkpt lat="47.7899" lon="7.31499">
        <ele>237.6</ele>
        <time>2017-05-21T09:22:18Z</time>
      </trkpt>
      <trkpt lat="47.78972" lon="7.31473">
        <ele>237.7</ele>
        <time>2017-05-21T09:22:22Z</time>
      </trkpt>
      <trkpt lat="47.78941" lon="7.31463">
        <ele>238.7</ele>
        <time>2017-05-21T09:22:26Z</time>
      </trkpt>
      <trkpt lat="47.78928" lon="7.31426">
        <ele>238.7</ele>
        <time>2017-05-21T09:22:30Z</time>
      </trkpt>
      <trkpt lat="47.78919" lon="7.31385">
        <ele>239.2</ele>
        <time>2017-05-21T09:22:34Z</time>
      </trkpt>
      <trkpt lat="47.78911" lon="7.31346">
        <ele>239.9</ele>
        <time>2017-05-21T09:22:38Z</time>
      </trkpt>
      <trkpt lat="47.78904" lon="7.31306">
        <ele>239.8</ele>
        <time>2017-05-21T09:22:42Z</time>
      </trkpt>
      <trkpt lat="47.78897" lon="7.31266">
        <ele>241.5</ele>
        <time>2017-05-21T09:22:46Z</time>
      </trkpt>
      <trkpt lat="47.78889" lon="7.31226">
        <ele>242.3</ele>
        <time>2017-05-21T09:22:50Z</time>
      </trkpt>
      <trkpt lat="47.78882" lon="7.31186">
        <ele>242.1</ele>
        <time>2017-05-21T09:22:54Z</time>
      </trkpt>
      <trkpt lat="47.7887" lon="7.31124">
        <ele>242.2</ele>
        <time>2017-05-21T09:22:59Z</time>
      </trkpt>
      <trkpt lat="47.78864" lon="7.31082">
        <ele>241.6</ele>
        <time>2017-05-21T09:23:03Z</time>
      </trkpt>
      <trkpt lat="47.78861" lon="7.31038">
        <ele>241.5</ele>
        <time>2017-05-21T09:23:08Z</time>
      </trkpt>
      <trkpt lat="47.7886" lon="7.30994">
        <ele>240.9</ele>
        <time>2017-05-21T09:23:12Z</time>
      </trkpt>
      <trkpt lat="47.78859" lon="7.30962">
        <ele>240.7</ele>
        <time>2017-05-21T09:23:17Z</time>
      </trkpt>
      <trkpt lat="47.78853" lon="7.30899">
        <ele>239.9</ele>
        <time>2017-05-21T09:23:21Z</time>
      </trkpt>
      <trkpt lat="47.78849" lon="7.30868">
        <ele>240.1</ele>
        <time>2017-05-21T09:23:25Z</time>
      </trkpt>
      <trkpt lat="47.78843" lon="7.30814">
        <ele>239.2</ele>
        <time>2017-05-21T09:23:29Z</time>
      </trkpt>
      <trkpt lat="47.78837" lon="7.3076">
        <ele>238.8</ele>
        <time>2017-05-21T09:23:33Z</time>
      </trkpt>
      <trkpt lat="47.78833" lon="7.30709">
        <ele>238.9</ele>
        <time>2017-05-21T09:23:38Z</time>
      </trkpt>
      <trkpt lat="47.78829" lon="7.30669">
        <ele>238.6</ele>
        <time>2017-05-21T09:23:42Z</time>
      </trkpt>
      <trkpt lat="47.78826" lon="7.30649">
        <ele>239.1</ele>
        <time>2017-05-21T09:23:46Z</time>
      </trkpt>
      <trkpt lat="47.78818" lon="7.3058">
        <ele>239.3</ele>
        <time>2017-05-21T09:23:52Z</time>
      </trkpt>
      <trkpt lat="47.78812" lon="7.30539">
        <ele>239.2</ele>
        <time>2017-05-21T09:23:55Z</time>
      </trkpt>
      <trkpt lat="47.7881" lon="7.30498">
        <ele>239.4</ele>
        <time>2017-05-21T09:23:59Z</time>
      </trkpt>
      <trkpt lat="47.78809" lon="7.30458">
        <ele>239.6</ele>
        <time>2017-05-21T09:24:04Z</time>
      </trkpt>
      <trkpt lat="47.78809" lon="7.30418">
        <ele>239.7</ele>
        <time>2017-05-21T09:24:08Z</time>
      </trkpt>
      <trkpt lat="47.78809" lon="7.30379">
        <ele>239.5</ele>
        <time>2017-05-21T09:24:12Z</time>
      </trkpt>
      <trkpt lat="47.78811" lon="7.30341">
        <ele>239.6</ele>
        <time>2017-05-21T09:24:16Z</time>
      </trkpt>
      <trkpt lat="47.78813" lon="7.30303">
        <ele>239.7</ele>
        <time>2017-05-21T09:24:20Z</time>
      </trkpt>
      <trkpt lat="47.78816" lon="7.30267">
        <ele>240.4</ele>
        <time>2017-05-21T09:24:24Z</time>
      </trkpt>
      <trkpt lat="47.78818" lon="7.30232">
        <ele>241.1</ele>
        <time>2017-05-21T09:24:28Z</time>
      </trkpt>
      <trkpt lat="47.78823" lon="7.30196">
        <ele>241.7</ele>
        <time>2017-05-21T09:24:32Z</time>
      </trkpt>
      <trkpt lat="47.78827" lon="7.3016">
        <ele>242.1</ele>
        <time>2017-05-21T09:24:36Z</time>
      </trkpt>
      <trkpt lat="47.78833" lon="7.30105">
        <ele>242.8</ele>
        <time>2017-05-21T09:24:41Z</time>
      </trkpt>
      <trkpt lat="47.78836" lon="7.30069">
        <ele>243.5</ele>
        <time>2017-05-21T09:24:46Z</time>
      </trkpt>
      <trkpt lat="47.78839" lon="7.30032">
        <ele>243.4</ele>
        <time>2017-05-21T09:24:49Z</time>
      </trkpt>
      <trkpt lat="47.78843" lon="7.29995">
        <ele>243.9</ele>
        <time>2017-05-21T09:24:53Z</time>
      </trkpt>
      <trkpt lat="47.78847" lon="7.29957">
        <ele>244</ele>
        <time>2017-05-21T09:24:58Z</time>
      </trkpt>
      <trkpt lat="47.7885" lon="7.2991">
        <ele>244.2</ele>
        <time>2017-05-21T09:25:02Z</time>
      </trkpt>
      <trkpt lat="47.78851" lon="7.29882">
        <ele>244.2</ele>
        <time>2017-05-21T09:25:06Z</time>
      </trkpt>
      <trkpt lat="47.78853" lon="7.29845">
        <ele>244.5</ele>
        <time>2017-05-21T09:25:10Z</time>
      </trkpt>
      <trkpt lat="47.78854" lon="7.29806">
        <ele>244.7</ele>
        <time>2017-05-21T09:25:14Z</time>
      </trkpt>
      <trkpt lat="47.78856" lon="7.29768">
        <ele>244.2</ele>
        <time>2017-05-21T09:25:18Z</time>
      </trkpt>
      <trkpt lat="47.7886" lon="7.29709">
        <ele>244.1</ele>
        <time>2017-05-21T09:25:23Z</time>
      </trkpt>
      <trkpt lat="47.78862" lon="7.2967">
        <ele>244.6</ele>
        <time>2017-05-21T09:25:27Z</time>
      </trkpt>
      <trkpt lat="47.78865" lon="7.29631">
        <ele>245.2</ele>
        <time>2017-05-21T09:25:31Z</time>
      </trkpt>
      <trkpt lat="47.78867" lon="7.29592">
        <ele>245.3</ele>
        <time>2017-05-21T09:25:36Z</time>
      </trkpt>
      <trkpt lat="47.78869" lon="7.29555">
        <ele>244.9</ele>
        <time>2017-05-21T09:25:40Z</time>
      </trkpt>
      <trkpt lat="47.78871" lon="7.29516">
        <ele>245.1</ele>
        <time>2017-05-21T09:25:44Z</time>
      </trkpt>
      <trkpt lat="47.78873" lon="7.29459">
        <ele>245.3</ele>
        <time>2017-05-21T09:25:49Z</time>
      </trkpt>
      <trkpt lat="47.78873" lon="7.2942">
        <ele>245.1</ele>
        <time>2017-05-21T09:25:53Z</time>
      </trkpt>
      <trkpt lat="47.78874" lon="7.29382">
        <ele>245.4</ele>
        <time>2017-05-21T09:25:57Z</time>
      </trkpt>
      <trkpt lat="47.78874" lon="7.29343">
        <ele>245.6</ele>
        <time>2017-05-21T09:26:02Z</time>
      </trkpt>
      <trkpt lat="47.78876" lon="7.29306">
        <ele>246</ele>
        <time>2017-05-21T09:26:06Z</time>
      </trkpt>
      <trkpt lat="47.78876" lon="7.29268">
        <ele>246.5</ele>
        <time>2017-05-21T09:26:10Z</time>
      </trkpt>
      <trkpt lat="47.78876" lon="7.2923">
        <ele>246.1</ele>
        <time>2017-05-21T09:26:14Z</time>
      </trkpt>
      <trkpt lat="47.78873" lon="7.29174">
        <ele>246.3</ele>
        <time>2017-05-21T09:26:19Z</time>
      </trkpt>
      <trkpt lat="47.78869" lon="7.29136">
        <ele>246.6</ele>
        <time>2017-05-21T09:26:23Z</time>
      </trkpt>
      <trkpt lat="47.78863" lon="7.29097">
        <ele>246.8</ele>
        <time>2017-05-21T09:26:27Z</time>
      </trkpt>
      <trkpt lat="47.78856" lon="7.29058">
        <ele>247.1</ele>
        <time>2017-05-21T09:26:31Z</time>
      </trkpt>
      <trkpt lat="47.7885" lon="7.29019">
        <ele>247.8</ele>
        <time>2017-05-21T09:26:35Z</time>
      </trkpt>
      <trkpt lat="47.78844" lon="7.28979">
        <ele>248.3</ele>
        <time>2017-05-21T09:26:39Z</time>
      </trkpt>
      <trkpt lat="47.78839" lon="7.2894">
        <ele>248</ele>
        <time>2017-05-21T09:26:44Z</time>
      </trkpt>
      <trkpt lat="47.78836" lon="7.289">
        <ele>247.5</ele>
        <time>2017-05-21T09:26:48Z</time>
      </trkpt>
      <trkpt lat="47.78832" lon="7.28861">
        <ele>247</ele>
        <time>2017-05-21T09:26:53Z</time>
      </trkpt>
      <trkpt lat="47.78826" lon="7.28812">
        <ele>246.5</ele>
        <time>2017-05-21T09:26:57Z</time>
      </trkpt>
      <trkpt lat="47.78823" lon="7.28782">
        <ele>247</ele>
        <time>2017-05-21T09:27:01Z</time>
      </trkpt>
      <trkpt lat="47.78818" lon="7.28733">
        <ele>247.4</ele>
        <time>2017-05-21T09:27:05Z</time>
      </trkpt>
      <trkpt lat="47.78814" lon="7.28695">
        <ele>247.4</ele>
        <time>2017-05-21T09:27:09Z</time>
      </trkpt>
      <trkpt lat="47.78809" lon="7.28656">
        <ele>247.6</ele>
        <time>2017-05-21T09:27:13Z</time>
      </trkpt>
      <trkpt lat="47.78805" lon="7.28618">
        <ele>247.5</ele>
        <time>2017-05-21T09:27:17Z</time>
      </trkpt>
      <trkpt lat="47.78801" lon="7.28579">
        <ele>247.5</ele>
        <time>2017-05-21T09:27:21Z</time>
      </trkpt>
      <trkpt lat="47.78797" lon="7.2854">
        <ele>247.7</ele>
        <time>2017-05-21T09:27:25Z</time>
      </trkpt>
      <trkpt lat="47.7879" lon="7.28482">
        <ele>247.6</ele>
        <time>2017-05-21T09:27:30Z</time>
      </trkpt>
      <trkpt lat="47.78787" lon="7.28444">
        <ele>247.6</ele>
        <time>2017-05-21T09:27:34Z</time>
      </trkpt>
      <trkpt lat="47.78785" lon="7.28406">
        <ele>247.2</ele>
        <time>2017-05-21T09:27:39Z</time>
      </trkpt>
      <trkpt lat="47.78788" lon="7.28367">
        <ele>247.6</ele>
        <time>2017-05-21T09:27:43Z</time>
      </trkpt>
      <trkpt lat="47.78793" lon="7.2833">
        <ele>247.4</ele>
        <time>2017-05-21T09:27:47Z</time>
      </trkpt>
      <trkpt lat="47.78797" lon="7.28294">
        <ele>246.7</ele>
        <time>2017-05-21T09:27:51Z</time>
      </trkpt>
      <trkpt lat="47.78798" lon="7.28255">
        <ele>247.3</ele>
        <time>2017-05-21T09:27:55Z</time>
      </trkpt>
      <trkpt lat="47.78795" lon="7.28217">
        <ele>247.3</ele>
        <time>2017-05-21T09:27:59Z</time>
      </trkpt>
      <trkpt lat="47.78792" lon="7.28177">
        <ele>247.7</ele>
        <time>2017-05-21T09:28:03Z</time>
      </trkpt>
      <trkpt lat="47.78788" lon="7.28139">
        <ele>247.5</ele>
        <time>2017-05-21T09:28:07Z</time>
      </trkpt>
      <trkpt lat="47.78784" lon="7.28101">
        <ele>247.3</ele>
        <time>2017-05-21T09:28:11Z</time>
      </trkpt>
      <trkpt lat="47.7878" lon="7.28062">
        <ele>247.9</ele>
        <time>2017-05-21T09:28:15Z</time>
      </trkpt>
      <trkpt lat="47.78773" lon="7.28004">
        <ele>247.8</ele>
        <time>2017-05-21T09:28:20Z</time>
      </trkpt>
      <trkpt lat="47.7877" lon="7.27963">
        <ele>247.4</ele>
        <time>2017-05-21T09:28:24Z</time>
      </trkpt>
      <trkpt lat="47.78766" lon="7.27921">
        <ele>247.3</ele>
        <time>2017-05-21T09:28:28Z</time>
      </trkpt>
      <trkpt lat="47.78761" lon="7.27878">
        <ele>246.7</ele>
        <time>2017-05-21T09:28:32Z</time>
      </trkpt>
      <trkpt lat="47.78759" lon="7.27856">
        <ele>246.7</ele>
        <time>2017-05-21T09:28:37Z</time>
      </trkpt>
      <trkpt lat="47.78751" lon="7.2778">
        <ele>246.3</ele>
        <time>2017-05-21T09:28:41Z</time>
      </trkpt>
      <trkpt lat="47.78747" lon="7.27748">
        <ele>246.4</ele>
        <time>2017-05-21T09:28:45Z</time>
      </trkpt>
      <trkpt lat="47.78742" lon="7.27697">
        <ele>246</ele>
        <time>2017-05-21T09:28:50Z</time>
      </trkpt>
      <trkpt lat="47.78738" lon="7.27656">
        <ele>245.8</ele>
        <time>2017-05-21T09:28:53Z</time>
      </trkpt>
      <trkpt lat="47.78734" lon="7.27617">
        <ele>245.8</ele>
        <time>2017-05-21T09:28:57Z</time>
      </trkpt>
      <trkpt lat="47.78731" lon="7.27579">
        <ele>246.4</ele>
        <time>2017-05-21T09:29:02Z</time>
      </trkpt>
      <trkpt lat="47.78727" lon="7.27541">
        <ele>247.5</ele>
        <time>2017-05-21T09:29:06Z</time>
      </trkpt>
      <trkpt lat="47.78723" lon="7.27504">
        <ele>248.3</ele>
        <time>2017-05-21T09:29:10Z</time>
      </trkpt>
      <trkpt lat="47.78719" lon="7.27466">
        <ele>248.3</ele>
        <time>2017-05-21T09:29:14Z</time>
      </trkpt>
      <trkpt lat="47.78713" lon="7.27408">
        <ele>248.6</ele>
        <time>2017-05-21T09:29:19Z</time>
      </trkpt>
      <trkpt lat="47.78709" lon="7.27372">
        <ele>248.6</ele>
        <time>2017-05-21T09:29:24Z</time>
      </trkpt>
      <trkpt lat="47.78705" lon="7.27337">
        <ele>248.4</ele>
        <time>2017-05-21T09:29:27Z</time>
      </trkpt>
      <trkpt lat="47.78702" lon="7.27303">
        <ele>249.1</ele>
        <time>2017-05-21T09:29:31Z</time>
      </trkpt>
      <trkpt lat="47.78698" lon="7.2727">
        <ele>249.5</ele>
        <time>2017-05-21T09:29:36Z</time>
      </trkpt>
      <trkpt lat="47.78695" lon="7.27236">
        <ele>250.6</ele>
        <time>2017-05-21T09:29:39Z</time>
      </trkpt>
      <trkpt lat="47.78691" lon="7.27202">
        <ele>250.8</ele>
        <time>2017-05-21T09:29:43Z</time>
      </trkpt>
      <trkpt lat="47.78687" lon="7.27166">
        <ele>250.7</ele>
        <time>2017-05-21T09:29:48Z</time>
      </trkpt>
      <trkpt lat="47.78684" lon="7.2713">
        <ele>250.7</ele>
        <time>2017-05-21T09:29:52Z</time>
      </trkpt>
      <trkpt lat="47.78679" lon="7.27094">
        <ele>250.1</ele>
        <time>2017-05-21T09:29:56Z</time>
      </trkpt>
      <trkpt lat="47.78673" lon="7.2706">
        <ele>250.4</ele>
        <time>2017-05-21T09:30:00Z</time>
      </trkpt>
      <trkpt lat="47.78667" lon="7.27026">
        <ele>250.5</ele>
        <time>2017-05-21T09:30:04Z</time>
      </trkpt>
      <trkpt lat="47.7866" lon="7.26993">
        <ele>250.4</ele>
        <time>2017-05-21T09:30:08Z</time>
      </trkpt>
      <trkpt lat="47.78651" lon="7.26961">
        <ele>250.2</ele>
        <time>2017-05-21T09:30:12Z</time>
      </trkpt>
      <trkpt lat="47.78638" lon="7.26931">
        <ele>250.6</ele>
        <time>2017-05-21T09:30:16Z</time>
      </trkpt>
      <trkpt lat="47.78617" lon="7.26889">
        <ele>251.9</ele>
        <time>2017-05-21T09:30:21Z</time>
      </trkpt>
      <trkpt lat="47.78603" lon="7.26864">
        <ele>252.5</ele>
        <time>2017-05-21T09:30:25Z</time>
      </trkpt>
      <trkpt lat="47.78586" lon="7.26842">
        <ele>253.4</ele>
        <time>2017-05-21T09:30:30Z</time>
      </trkpt>
      <trkpt lat="47.78564" lon="7.26823">
        <ele>253</ele>
        <time>2017-05-21T09:30:34Z</time>
      </trkpt>
      <trkpt lat="47.78528" lon="7.26795">
        <ele>252.5</ele>
        <time>2017-05-21T09:30:39Z</time>
      </trkpt>
      <trkpt lat="47.78506" lon="7.26778">
        <ele>251.7</ele>
        <time>2017-05-21T09:30:43Z</time>
      </trkpt>
      <trkpt lat="47.78482" lon="7.26761">
        <ele>251.3</ele>
        <time>2017-05-21T09:30:47Z</time>
      </trkpt>
      <trkpt lat="47.78458" lon="7.26746">
        <ele>251.9</ele>
        <time>2017-05-21T09:30:52Z</time>
      </trkpt>
      <trkpt lat="47.78433" lon="7.26735">
        <ele>252.4</ele>
        <time>2017-05-21T09:30:56Z</time>
      </trkpt>
      <trkpt lat="47.78411" lon="7.26715">
        <ele>253.1</ele>
        <time>2017-05-21T09:31:00Z</time>
      </trkpt>
      <trkpt lat="47.78418" lon="7.26679">
        <ele>253.9</ele>
        <time>2017-05-21T09:31:04Z</time>
      </trkpt>
      <trkpt lat="47.78435" lon="7.26631">
        <ele>253.3</ele>
        <time>2017-05-21T09:31:09Z</time>
      </trkpt>
      <trkpt lat="47.78447" lon="7.26599">
        <ele>253.6</ele>
        <time>2017-05-21T09:31:13Z</time>
      </trkpt>
      <trkpt lat="47.78458" lon="7.26566">
        <ele>254.5</ele>
        <time>2017-05-21T09:31:17Z</time>
      </trkpt>
      <trkpt lat="47.78471" lon="7.26536">
        <ele>255.4</ele>
        <time>2017-05-21T09:31:21Z</time>
      </trkpt>
      <trkpt lat="47.78483" lon="7.26505">
        <ele>255.8</ele>
        <time>2017-05-21T09:31:26Z</time>
      </trkpt>
      <trkpt lat="47.78493" lon="7.26474">
        <ele>256.5</ele>
        <time>2017-05-21T09:31:29Z</time>
      </trkpt>
      <trkpt lat="47.78503" lon="7.26444">
        <ele>256.2</ele>
        <time>2017-05-21T09:31:33Z</time>
      </trkpt>
      <trkpt lat="47.7851" lon="7.26414">
        <ele>256.2</ele>
        <time>2017-05-21T09:31:37Z</time>
      </trkpt>
      <trkpt lat="47.78518" lon="7.26385">
        <ele>256.3</ele>
        <time>2017-05-21T09:31:41Z</time>
      </trkpt>
      <trkpt lat="47.78526" lon="7.26358">
        <ele>256.2</ele>
        <time>2017-05-21T09:31:46Z</time>
      </trkpt>
      <trkpt lat="47.78531" lon="7.26345">
        <ele>256.3</ele>
        <time>2017-05-21T09:31:50Z</time>
      </trkpt>
      <trkpt lat="47.78533" lon="7.26342">
        <ele>256.2</ele>
        <time>2017-05-21T09:31:54Z</time>
      </trkpt>
      <trkpt lat="47.78533" lon="7.26342">
        <ele>255.9</ele>
        <time>2017-05-21T09:31:58Z</time>
      </trkpt>
      <trkpt lat="47.78533" lon="7.26342">
        <ele>255.9</ele>
        <time>2017-05-21T09:32:02Z</time>
      </trkpt>
      <trkpt lat="47.78533" lon="7.26343">
        <ele>255.9</ele>
        <time>2017-05-21T09:32:06Z</time>
      </trkpt>
      <trkpt lat="47.78533" lon="7.26344">
        <ele>255.5</ele>
        <time>2017-05-21T09:32:10Z</time>
      </trkpt>
      <trkpt lat="47.78533" lon="7.26346">
        <ele>255.1</ele>
        <time>2017-05-21T09:32:15Z</time>
      </trkpt>
      <trkpt lat="47.78533" lon="7.26346">
        <ele>255.1</ele>
        <time>2017-05-21T09:32:19Z</time>
      </trkpt>
      <trkpt lat="47.78533" lon="7.26347">
        <ele>255.5</ele>
        <time>2017-05-21T09:32:23Z</time>
      </trkpt>
      <trkpt lat="47.78533" lon="7.26346">
        <ele>255.6</ele>
        <time>2017-05-21T09:32:27Z</time>
      </trkpt>
      <trkpt lat="47.78533" lon="7.26346">
        <ele>255.6</ele>
        <time>2017-05-21T09:32:31Z</time>
      </trkpt>
      <trkpt lat="47.78533" lon="7.26346">
        <ele>255.6</ele>
        <time>2017-05-21T09:32:35Z</time>
      </trkpt>
      <trkpt lat="47.78533" lon="7.26343">
        <ele>255.5</ele>
        <time>2017-05-21T09:32:39Z</time>
      </trkpt>
      <trkpt lat="47.78526" lon="7.26354">
        <ele>255.1</ele>
        <time>2017-05-21T09:32:43Z</time>
      </trkpt>
      <trkpt lat="47.78517" lon="7.26382">
        <ele>255.5</ele>
        <time>2017-05-21T09:32:47Z</time>
      </trkpt>
      <trkpt lat="47.78509" lon="7.26418">
        <ele>255.5</ele>
        <time>2017-05-21T09:32:51Z</time>
      </trkpt>
      <trkpt lat="47.78499" lon="7.26456">
        <ele>255.4</ele>
        <time>2017-05-21T09:32:56Z</time>
      </trkpt>
      <trkpt lat="47.78488" lon="7.26492">
        <ele>255</ele>
        <time>2017-05-21T09:33:00Z</time>
      </trkpt>
      <trkpt lat="47.78474" lon="7.26526">
        <ele>254.8</ele>
        <time>2017-05-21T09:33:04Z</time>
      </trkpt>
      <trkpt lat="47.78461" lon="7.2656">
        <ele>254</ele>
        <time>2017-05-21T09:33:08Z</time>
      </trkpt>
      <trkpt lat="47.78449" lon="7.26593">
        <ele>253.8</ele>
        <time>2017-05-21T09:33:12Z</time>
      </trkpt>
      <trkpt lat="47.7844" lon="7.26626">
        <ele>254</ele>
        <time>2017-05-21T09:33:16Z</time>
      </trkpt>
      <trkpt lat="47.7843" lon="7.26646">
        <ele>254</ele>
        <time>2017-05-21T09:33:20Z</time>
      </trkpt>
      <trkpt lat="47.78426" lon="7.26625">
        <ele>253.1</ele>
        <time>2017-05-21T09:33:24Z</time>
      </trkpt>
      <trkpt lat="47.7843" lon="7.26591">
        <ele>253.5</ele>
        <time>2017-05-21T09:33:28Z</time>
      </trkpt>
      <trkpt lat="47.78433" lon="7.26555">
        <ele>254.2</ele>
        <time>2017-05-21T09:33:32Z</time>
      </trkpt>
      <trkpt lat="47.78438" lon="7.26516">
        <ele>254.6</ele>
        <time>2017-05-21T09:33:36Z</time>
      </trkpt>
      <trkpt lat="47.78443" lon="7.26478">
        <ele>255.4</ele>
        <time>2017-05-21T09:33:40Z</time>
      </trkpt>
      <trkpt lat="47.78446" lon="7.26443">
        <ele>256.6</ele>
        <time>2017-05-21T09:33:44Z</time>
      </trkpt>
      <trkpt lat="47.78449" lon="7.26393">
        <ele>256.4</ele>
        <time>2017-05-21T09:33:50Z</time>
      </trkpt>
      <trkpt lat="47.78452" lon="7.26361">
        <ele>257.2</ele>
        <time>2017-05-21T09:33:53Z</time>
      </trkpt>
      <trkpt lat="47.78456" lon="7.26327">
        <ele>258.2</ele>
        <time>2017-05-21T09:33:57Z</time>
      </trkpt>
      <trkpt lat="47.78462" lon="7.26295">
        <ele>258</ele>
        <time>2017-05-21T09:34:01Z</time>
      </trkpt>
      <trkpt lat="47.78467" lon="7.26264">
        <ele>258.2</ele>
        <time>2017-05-21T09:34:06Z</time>
      </trkpt>
      <trkpt lat="47.78471" lon="7.26231">
        <ele>259.2</ele>
        <time>2017-05-21T09:34:10Z</time>
      </trkpt>
      <trkpt lat="47.78479" lon="7.26193">
        <ele>259.9</ele>
        <time>2017-05-21T09:34:15Z</time>
      </trkpt>
      <trkpt lat="47.78484" lon="7.26168">
        <ele>260.8</ele>
        <time>2017-05-21T09:34:20Z</time>
      </trkpt>
      <trkpt lat="47.78497" lon="7.26113">
        <ele>261.1</ele>
        <time>2017-05-21T09:34:24Z</time>
      </trkpt>
      <trkpt lat="47.78519" lon="7.26069">
        <ele>261.2</ele>
        <time>2017-05-21T09:34:28Z</time>
      </trkpt>
      <trkpt lat="47.78541" lon="7.26035">
        <ele>260.8</ele>
        <time>2017-05-21T09:34:33Z</time>
      </trkpt>
      <trkpt lat="47.78565" lon="7.26004">
        <ele>260.2</ele>
        <time>2017-05-21T09:34:37Z</time>
      </trkpt>
      <trkpt lat="47.78589" lon="7.25972">
        <ele>259.2</ele>
        <time>2017-05-21T09:34:41Z</time>
      </trkpt>
      <trkpt lat="47.78622" lon="7.25919">
        <ele>257.9</ele>
        <time>2017-05-21T09:34:46Z</time>
      </trkpt>
      <trkpt lat="47.7864" lon="7.25879">
        <ele>257.6</ele>
        <time>2017-05-21T09:34:50Z</time>
      </trkpt>
      <trkpt lat="47.78652" lon="7.25838">
        <ele>257.7</ele>
        <time>2017-05-21T09:34:54Z</time>
      </trkpt>
      <trkpt lat="47.78668" lon="7.258">
        <ele>257.6</ele>
        <time>2017-05-21T09:34:58Z</time>
      </trkpt>
      <trkpt lat="47.78685" lon="7.25765">
        <ele>258</ele>
        <time>2017-05-21T09:35:03Z</time>
      </trkpt>
      <trkpt lat="47.78703" lon="7.25734">
        <ele>259.3</ele>
        <time>2017-05-21T09:35:07Z</time>
      </trkpt>
      <trkpt lat="47.78721" lon="7.25704">
        <ele>259.5</ele>
        <time>2017-05-21T09:35:11Z</time>
      </trkpt>
      <trkpt lat="47.78739" lon="7.25673">
        <ele>259.5</ele>
        <time>2017-05-21T09:35:15Z</time>
      </trkpt>
      <trkpt lat="47.78752" lon="7.25637">
        <ele>259.2</ele>
        <time>2017-05-21T09:35:19Z</time>
      </trkpt>
      <trkpt lat="47.78764" lon="7.25601">
        <ele>259</ele>
        <time>2017-05-21T09:35:23Z</time>
      </trkpt>
      <trkpt lat="47.78777" lon="7.25563">
        <ele>259</ele>
        <time>2017-05-21T09:35:27Z</time>
      </trkpt>
      <trkpt lat="47.78787" lon="7.25526">
        <ele>259</ele>
        <time>2017-05-21T09:35:31Z</time>
      </trkpt>
      <trkpt lat="47.78798" lon="7.2549">
        <ele>258.6</ele>
        <time>2017-05-21T09:35:35Z</time>
      </trkpt>
      <trkpt lat="47.78815" lon="7.25431">
        <ele>258.8</ele>
        <time>2017-05-21T09:35:40Z</time>
      </trkpt>
      <trkpt lat="47.78826" lon="7.25393">
        <ele>258.9</ele>
        <time>2017-05-21T09:35:44Z</time>
      </trkpt>
      <trkpt lat="47.78837" lon="7.25356">
        <ele>258.6</ele>
        <time>2017-05-21T09:35:49Z</time>
      </trkpt>
      <trkpt lat="47.78851" lon="7.25309">
        <ele>259.1</ele>
        <time>2017-05-21T09:35:52Z</time>
      </trkpt>
      <trkpt lat="47.78862" lon="7.2527">
        <ele>260.2</ele>
        <time>2017-05-21T09:35:57Z</time>
      </trkpt>
      <trkpt lat="47.78874" lon="7.25232">
        <ele>260.4</ele>
        <time>2017-05-21T09:36:01Z</time>
      </trkpt>
      <trkpt lat="47.78886" lon="7.25193">
        <ele>259.8</ele>
        <time>2017-05-21T09:36:06Z</time>
      </trkpt>
      <trkpt lat="47.78898" lon="7.25155">
        <ele>259.7</ele>
        <time>2017-05-21T09:36:10Z</time>
      </trkpt>
      <trkpt lat="47.78903" lon="7.25137">
        <ele>259.5</ele>
        <time>2017-05-21T09:36:14Z</time>
      </trkpt>
      <trkpt lat="47.78923" lon="7.25071">
        <ele>258.5</ele>
        <time>2017-05-21T09:36:19Z</time>
      </trkpt>
      <trkpt lat="47.78937" lon="7.25026">
        <ele>257.7</ele>
        <time>2017-05-21T09:36:23Z</time>
      </trkpt>
      <trkpt lat="47.78943" lon="7.25009">
        <ele>257.5</ele>
        <time>2017-05-21T09:36:27Z</time>
      </trkpt>
      <trkpt lat="47.78954" lon="7.24965">
        <ele>257.9</ele>
        <time>2017-05-21T09:36:31Z</time>
      </trkpt>
      <trkpt lat="47.78965" lon="7.24919">
        <ele>258.3</ele>
        <time>2017-05-21T09:36:35Z</time>
      </trkpt>
      <trkpt lat="47.78972" lon="7.24883">
        <ele>259</ele>
        <time>2017-05-21T09:36:40Z</time>
      </trkpt>
      <trkpt lat="47.78977" lon="7.24846">
        <ele>259.9</ele>
        <time>2017-05-21T09:36:44Z</time>
      </trkpt>
      <trkpt lat="47.7898" lon="7.24788">
        <ele>261.6</ele>
        <time>2017-05-21T09:36:49Z</time>
      </trkpt>
      <trkpt lat="47.78981" lon="7.24749">
        <ele>262</ele>
        <time>2017-05-21T09:36:53Z</time>
      </trkpt>
      <trkpt lat="47.78981" lon="7.24712">
        <ele>262.2</ele>
        <time>2017-05-21T09:36:58Z</time>
      </trkpt>
      <trkpt lat="47.78984" lon="7.24679">
        <ele>262.9</ele>
        <time>2017-05-21T09:37:01Z</time>
      </trkpt>
      <trkpt lat="47.78981" lon="7.24644">
        <ele>263</ele>
        <time>2017-05-21T09:37:06Z</time>
      </trkpt>
      <trkpt lat="47.78981" lon="7.24596">
        <ele>263</ele>
        <time>2017-05-21T09:37:10Z</time>
      </trkpt>
      <trkpt lat="47.78983" lon="7.24557">
        <ele>263.4</ele>
        <time>2017-05-21T09:37:14Z</time>
      </trkpt>
      <trkpt lat="47.78989" lon="7.24519">
        <ele>264</ele>
        <time>2017-05-21T09:37:19Z</time>
      </trkpt>
      <trkpt lat="47.78996" lon="7.24482">
        <ele>264.7</ele>
        <time>2017-05-21T09:37:22Z</time>
      </trkpt>
      <trkpt lat="47.79005" lon="7.24447">
        <ele>264.6</ele>
        <time>2017-05-21T09:37:26Z</time>
      </trkpt>
      <trkpt lat="47.79015" lon="7.2441">
        <ele>264.8</ele>
        <time>2017-05-21T09:37:31Z</time>
      </trkpt>
      <trkpt lat="47.79024" lon="7.24373">
        <ele>264.8</ele>
        <time>2017-05-21T09:37:35Z</time>
      </trkpt>
      <trkpt lat="47.79033" lon="7.24339">
        <ele>264.4</ele>
        <time>2017-05-21T09:37:39Z</time>
      </trkpt>
      <trkpt lat="47.79043" lon="7.24285">
        <ele>264</ele>
        <time>2017-05-21T09:37:44Z</time>
      </trkpt>
      <trkpt lat="47.79033" lon="7.2425">
        <ele>263.7</ele>
        <time>2017-05-21T09:37:48Z</time>
      </trkpt>
      <trkpt lat="47.79023" lon="7.24235">
        <ele>263.8</ele>
        <time>2017-05-21T09:37:52Z</time>
      </trkpt>
      <trkpt lat="47.79011" lon="7.2421">
        <ele>264.2</ele>
        <time>2017-05-21T09:37:56Z</time>
      </trkpt>
      <trkpt lat="47.78991" lon="7.24141">
        <ele>263.5</ele>
        <time>2017-05-21T09:38:00Z</time>
      </trkpt>
      <trkpt lat="47.78981" lon="7.241">
        <ele>263</ele>
        <time>2017-05-21T09:38:05Z</time>
      </trkpt>
      <trkpt lat="47.78971" lon="7.24058">
        <ele>262.7</ele>
        <time>2017-05-21T09:38:09Z</time>
      </trkpt>
      <trkpt lat="47.7896" lon="7.24018">
        <ele>263.2</ele>
        <time>2017-05-21T09:38:13Z</time>
      </trkpt>
      <trkpt lat="47.78949" lon="7.23978">
        <ele>263.1</ele>
        <time>2017-05-21T09:38:17Z</time>
      </trkpt>
      <trkpt lat="47.78939" lon="7.23937">
        <ele>263.4</ele>
        <time>2017-05-21T09:38:21Z</time>
      </trkpt>
      <trkpt lat="47.78924" lon="7.23877">
        <ele>264</ele>
        <time>2017-05-21T09:38:27Z</time>
      </trkpt>
      <trkpt lat="47.78913" lon="7.23838">
        <ele>264.7</ele>
        <time>2017-05-21T09:38:30Z</time>
      </trkpt>
      <trkpt lat="47.78903" lon="7.23799">
        <ele>265.3</ele>
        <time>2017-05-21T09:38:34Z</time>
      </trkpt>
      <trkpt lat="47.78893" lon="7.2376">
        <ele>266.3</ele>
        <time>2017-05-21T09:38:39Z</time>
      </trkpt>
      <trkpt lat="47.78882" lon="7.23721">
        <ele>267.3</ele>
        <time>2017-05-21T09:38:43Z</time>
      </trkpt>
      <trkpt lat="47.78872" lon="7.2368">
        <ele>267.9</ele>
        <time>2017-05-21T09:38:47Z</time>
      </trkpt>
      <trkpt lat="47.78862" lon="7.2364">
        <ele>267.9</ele>
        <time>2017-05-21T09:38:51Z</time>
      </trkpt>
      <trkpt lat="47.78852" lon="7.236">
        <ele>267.3</ele>
        <time>2017-05-21T09:38:55Z</time>
      </trkpt>
      <trkpt lat="47.78842" lon="7.23562">
        <ele>266.1</ele>
        <time>2017-05-21T09:38:59Z</time>
      </trkpt>
      <trkpt lat="47.78829" lon="7.23504">
        <ele>265.4</ele>
        <time>2017-05-21T09:39:04Z</time>
      </trkpt>
      <trkpt lat="47.78818" lon="7.23466">
        <ele>265.1</ele>
        <time>2017-05-21T09:39:08Z</time>
      </trkpt>
      <trkpt lat="47.78809" lon="7.23429">
        <ele>264.9</ele>
        <time>2017-05-21T09:39:13Z</time>
      </trkpt>
      <trkpt lat="47.788" lon="7.23392">
        <ele>265.5</ele>
        <time>2017-05-21T09:39:16Z</time>
      </trkpt>
      <trkpt lat="47.7879" lon="7.23356">
        <ele>265.2</ele>
        <time>2017-05-21T09:39:20Z</time>
      </trkpt>
      <trkpt lat="47.78781" lon="7.23319">
        <ele>264.7</ele>
        <time>2017-05-21T09:39:25Z</time>
      </trkpt>
      <trkpt lat="47.78771" lon="7.23284">
        <ele>264.4</ele>
        <time>2017-05-21T09:39:29Z</time>
      </trkpt>
      <trkpt lat="47.78762" lon="7.23247">
        <ele>264.3</ele>
        <time>2017-05-21T09:39:33Z</time>
      </trkpt>
      <trkpt lat="47.7875" lon="7.23193">
        <ele>263.6</ele>
        <time>2017-05-21T09:39:38Z</time>
      </trkpt>
      <trkpt lat="47.78746" lon="7.23175">
        <ele>263.9</ele>
        <time>2017-05-21T09:39:43Z</time>
      </trkpt>
      <trkpt lat="47.78732" lon="7.23123">
        <ele>264</ele>
        <time>2017-05-21T09:39:46Z</time>
      </trkpt>
      <trkpt lat="47.78723" lon="7.23089">
        <ele>264.3</ele>
        <time>2017-05-21T09:39:50Z</time>
      </trkpt>
      <trkpt lat="47.78714" lon="7.23055">
        <ele>264.3</ele>
        <time>2017-05-21T09:39:55Z</time>
      </trkpt>
      <trkpt lat="47.78706" lon="7.22998">
        <ele>265.5</ele>
        <time>2017-05-21T09:40:00Z</time>
      </trkpt>
      <trkpt lat="47.78706" lon="7.22958">
        <ele>266.4</ele>
        <time>2017-05-21T09:40:05Z</time>
      </trkpt>
      <trkpt lat="47.78711" lon="7.22919">
        <ele>266</ele>
        <time>2017-05-21T09:40:08Z</time>
      </trkpt>
      <trkpt lat="47.78715" lon="7.2288">
        <ele>265.6</ele>
        <time>2017-05-21T09:40:12Z</time>
      </trkpt>
      <trkpt lat="47.78718" lon="7.22841">
        <ele>266</ele>
        <time>2017-05-21T09:40:17Z</time>
      </trkpt>
      <trkpt lat="47.78724" lon="7.22801">
        <ele>266.5</ele>
        <time>2017-05-21T09:40:21Z</time>
      </trkpt>
      <trkpt lat="47.78726" lon="7.22761">
        <ele>267.6</ele>
        <time>2017-05-21T09:40:25Z</time>
      </trkpt>
      <trkpt lat="47.7873" lon="7.22711">
        <ele>267.8</ele>
        <time>2017-05-21T09:40:29Z</time>
      </trkpt>
      <trkpt lat="47.78734" lon="7.22672">
        <ele>267.3</ele>
        <time>2017-05-21T09:40:33Z</time>
      </trkpt>
      <trkpt lat="47.7874" lon="7.22625">
        <ele>265.5</ele>
        <time>2017-05-21T09:40:39Z</time>
      </trkpt>
      <trkpt lat="47.78744" lon="7.22587">
        <ele>263.8</ele>
        <time>2017-05-21T09:40:42Z</time>
      </trkpt>
      <trkpt lat="47.78747" lon="7.22553">
        <ele>263.6</ele>
        <time>2017-05-21T09:40:46Z</time>
      </trkpt>
      <trkpt lat="47.78747" lon="7.22529">
        <ele>266.3</ele>
        <time>2017-05-21T09:40:50Z</time>
      </trkpt>
      <trkpt lat="47.78734" lon="7.22509">
        <ele>266.2</ele>
        <time>2017-05-21T09:40:54Z</time>
      </trkpt>
      <trkpt lat="47.78711" lon="7.22494">
        <ele>266.4</ele>
        <time>2017-05-21T09:40:58Z</time>
      </trkpt>
      <trkpt lat="47.78685" lon="7.22477">
        <ele>267.6</ele>
        <time>2017-05-21T09:41:03Z</time>
      </trkpt>
      <trkpt lat="47.78661" lon="7.22459">
        <ele>268.4</ele>
        <time>2017-05-21T09:41:07Z</time>
      </trkpt>
      <trkpt lat="47.78636" lon="7.22441">
        <ele>268.5</ele>
        <time>2017-05-21T09:41:11Z</time>
      </trkpt>
      <trkpt lat="47.78611" lon="7.22423">
        <ele>269</ele>
        <time>2017-05-21T09:41:16Z</time>
      </trkpt>
      <trkpt lat="47.78571" lon="7.22396">
        <ele>269.2</ele>
        <time>2017-05-21T09:41:21Z</time>
      </trkpt>
      <trkpt lat="47.78552" lon="7.22384">
        <ele>269.1</ele>
        <time>2017-05-21T09:41:24Z</time>
      </trkpt>
      <trkpt lat="47.78524" lon="7.22386">
        <ele>269.1</ele>
        <time>2017-05-21T09:41:29Z</time>
      </trkpt>
      <trkpt lat="47.78486" lon="7.22383">
        <ele>269.5</ele>
        <time>2017-05-21T09:41:33Z</time>
      </trkpt>
      <trkpt lat="47.78458" lon="7.22382">
        <ele>269.5</ele>
        <time>2017-05-21T09:41:37Z</time>
      </trkpt>
      <trkpt lat="47.78431" lon="7.22384">
        <ele>269.8</ele>
        <time>2017-05-21T09:41:42Z</time>
      </trkpt>
      <trkpt lat="47.78391" lon="7.22385">
        <ele>269.6</ele>
        <time>2017-05-21T09:41:47Z</time>
      </trkpt>
      <trkpt lat="47.78363" lon="7.22386">
        <ele>269.5</ele>
        <time>2017-05-21T09:41:52Z</time>
      </trkpt>
      <trkpt lat="47.78335" lon="7.22387">
        <ele>269.8</ele>
        <time>2017-05-21T09:41:55Z</time>
      </trkpt>
      <trkpt lat="47.78306" lon="7.22389">
        <ele>269.9</ele>
        <time>2017-05-21T09:41:59Z</time>
      </trkpt>
      <trkpt lat="47.78278" lon="7.22389">
        <ele>270.1</ele>
        <time>2017-05-21T09:42:04Z</time>
      </trkpt>
      <trkpt lat="47.78249" lon="7.22389">
        <ele>270.3</ele>
        <time>2017-05-21T09:42:08Z</time>
      </trkpt>
      <trkpt lat="47.78223" lon="7.22391">
        <ele>271</ele>
        <time>2017-05-21T09:42:12Z</time>
      </trkpt>
      <trkpt lat="47.78186" lon="7.22392">
        <ele>271.2</ele>
        <time>2017-05-21T09:42:17Z</time>
      </trkpt>
      <trkpt lat="47.78162" lon="7.22393">
        <ele>271.3</ele>
        <time>2017-05-21T09:42:21Z</time>
      </trkpt>
      <trkpt lat="47.7814" lon="7.22395">
        <ele>271.7</ele>
        <time>2017-05-21T09:42:26Z</time>
      </trkpt>
      <trkpt lat="47.78129" lon="7.22396">
        <ele>271.7</ele>
        <time>2017-05-21T09:42:29Z</time>
      </trkpt>
      <trkpt lat="47.78102" lon="7.22403">
        <ele>271.6</ele>
        <time>2017-05-21T09:42:33Z</time>
      </trkpt>
      <trkpt lat="47.78079" lon="7.22414">
        <ele>271</ele>
        <time>2017-05-21T09:42:37Z</time>
      </trkpt>
      <trkpt lat="47.78047" lon="7.22429">
        <ele>271.3</ele>
        <time>2017-05-21T09:42:41Z</time>
      </trkpt>
      <trkpt lat="47.78022" lon="7.22441">
        <ele>271.4</ele>
        <time>2017-05-21T09:42:46Z</time>
      </trkpt>
      <trkpt lat="47.77997" lon="7.22453">
        <ele>271.1</ele>
        <time>2017-05-21T09:42:50Z</time>
      </trkpt>
      <trkpt lat="47.77966" lon="7.22469">
        <ele>271.1</ele>
        <time>2017-05-21T09:42:54Z</time>
      </trkpt>
      <trkpt lat="47.7794" lon="7.22481">
        <ele>270.5</ele>
        <time>2017-05-21T09:42:59Z</time>
      </trkpt>
      <trkpt lat="47.77913" lon="7.22493">
        <ele>270.7</ele>
        <time>2017-05-21T09:43:03Z</time>
      </trkpt>
      <trkpt lat="47.77887" lon="7.22504">
        <ele>270.9</ele>
        <time>2017-05-21T09:43:07Z</time>
      </trkpt>
      <trkpt lat="47.77861" lon="7.22517">
        <ele>270.6</ele>
        <time>2017-05-21T09:43:11Z</time>
      </trkpt>
      <trkpt lat="47.77821" lon="7.22536">
        <ele>270.9</ele>
        <time>2017-05-21T09:43:16Z</time>
      </trkpt>
      <trkpt lat="47.77794" lon="7.22549">
        <ele>270.7</ele>
        <time>2017-05-21T09:43:20Z</time>
      </trkpt>
      <trkpt lat="47.77766" lon="7.22563">
        <ele>270.6</ele>
        <time>2017-05-21T09:43:24Z</time>
      </trkpt>
      <trkpt lat="47.77746" lon="7.22574">
        <ele>270.8</ele>
        <time>2017-05-21T09:43:29Z</time>
      </trkpt>
      <trkpt lat="47.77715" lon="7.22592">
        <ele>271.5</ele>
        <time>2017-05-21T09:43:33Z</time>
      </trkpt>
      <trkpt lat="47.77691" lon="7.22605">
        <ele>271.6</ele>
        <time>2017-05-21T09:43:37Z</time>
      </trkpt>
      <trkpt lat="47.77667" lon="7.22617">
        <ele>271</ele>
        <time>2017-05-21T09:43:41Z</time>
      </trkpt>
      <trkpt lat="47.77643" lon="7.22628">
        <ele>270.5</ele>
        <time>2017-05-21T09:43:46Z</time>
      </trkpt>
      <trkpt lat="47.77602" lon="7.22648">
        <ele>269.2</ele>
        <time>2017-05-21T09:43:50Z</time>
      </trkpt>
      <trkpt lat="47.77574" lon="7.2266">
        <ele>269.6</ele>
        <time>2017-05-21T09:43:54Z</time>
      </trkpt>
      <trkpt lat="47.77547" lon="7.22673">
        <ele>269.8</ele>
        <time>2017-05-21T09:43:58Z</time>
      </trkpt>
      <trkpt lat="47.77521" lon="7.22685">
        <ele>270.1</ele>
        <time>2017-05-21T09:44:03Z</time>
      </trkpt>
      <trkpt lat="47.77495" lon="7.22695">
        <ele>270.2</ele>
        <time>2017-05-21T09:44:07Z</time>
      </trkpt>
      <trkpt lat="47.77468" lon="7.22692">
        <ele>270.8</ele>
        <time>2017-05-21T09:44:11Z</time>
      </trkpt>
      <trkpt lat="47.7743" lon="7.227">
        <ele>270.1</ele>
        <time>2017-05-21T09:44:17Z</time>
      </trkpt>
      <trkpt lat="47.77425" lon="7.22738">
        <ele>270.5</ele>
        <time>2017-05-21T09:44:20Z</time>
      </trkpt>
      <trkpt lat="47.77434" lon="7.22775">
        <ele>271.3</ele>
        <time>2017-05-21T09:44:24Z</time>
      </trkpt>
      <trkpt lat="47.77432" lon="7.22813">
        <ele>271.3</ele>
        <time>2017-05-21T09:44:29Z</time>
      </trkpt>
      <trkpt lat="47.77417" lon="7.22844">
        <ele>271.3</ele>
        <time>2017-05-21T09:44:32Z</time>
      </trkpt>
      <trkpt lat="47.77397" lon="7.22866">
        <ele>272.1</ele>
        <time>2017-05-21T09:44:36Z</time>
      </trkpt>
      <trkpt lat="47.77374" lon="7.22874">
        <ele>272.9</ele>
        <time>2017-05-21T09:44:41Z</time>
      </trkpt>
      <trkpt lat="47.77349" lon="7.22876">
        <ele>273.5</ele>
        <time>2017-05-21T09:44:45Z</time>
      </trkpt>
      <trkpt lat="47.77325" lon="7.22876">
        <ele>274.9</ele>
        <time>2017-05-21T09:44:49Z</time>
      </trkpt>
      <trkpt lat="47.77301" lon="7.22874">
        <ele>275.6</ele>
        <time>2017-05-21T09:44:53Z</time>
      </trkpt>
      <trkpt lat="47.77278" lon="7.22874">
        <ele>276.9</ele>
        <time>2017-05-21T09:44:57Z</time>
      </trkpt>
      <trkpt lat="47.77244" lon="7.22873">
        <ele>276.7</ele>
        <time>2017-05-21T09:45:02Z</time>
      </trkpt>
      <trkpt lat="47.7722" lon="7.22872">
        <ele>276.4</ele>
        <time>2017-05-21T09:45:07Z</time>
      </trkpt>
      <trkpt lat="47.77196" lon="7.22872">
        <ele>276.7</ele>
        <time>2017-05-21T09:45:11Z</time>
      </trkpt>
      <trkpt lat="47.77171" lon="7.22873">
        <ele>276.8</ele>
        <time>2017-05-21T09:45:15Z</time>
      </trkpt>
      <trkpt lat="47.77129" lon="7.22893">
        <ele>276.2</ele>
        <time>2017-05-21T09:45:21Z</time>
      </trkpt>
      <trkpt lat="47.77104" lon="7.22925">
        <ele>275.2</ele>
        <time>2017-05-21T09:45:24Z</time>
      </trkpt>
      <trkpt lat="47.7709" lon="7.2297">
        <ele>273.5</ele>
        <time>2017-05-21T09:45:29Z</time>
      </trkpt>
      <trkpt lat="47.77086" lon="7.2302">
        <ele>272.6</ele>
        <time>2017-05-21T09:45:33Z</time>
      </trkpt>
      <trkpt lat="47.77088" lon="7.23066">
        <ele>271.9</ele>
        <time>2017-05-21T09:45:37Z</time>
      </trkpt>
      <trkpt lat="47.77074" lon="7.23105">
        <ele>272.3</ele>
        <time>2017-05-21T09:45:41Z</time>
      </trkpt>
      <trkpt lat="47.77034" lon="7.23138">
        <ele>272.2</ele>
        <time>2017-05-21T09:45:46Z</time>
      </trkpt>
      <trkpt lat="47.77003" lon="7.23151">
        <ele>272.5</ele>
        <time>2017-05-21T09:45:50Z</time>
      </trkpt>
      <trkpt lat="47.76971" lon="7.23161">
        <ele>272.7</ele>
        <time>2017-05-21T09:45:55Z</time>
      </trkpt>
      <trkpt lat="47.76948" lon="7.23169">
        <ele>272.5</ele>
        <time>2017-05-21T09:45:58Z</time>
      </trkpt>
      <trkpt lat="47.76909" lon="7.23184">
        <ele>272.8</ele>
        <time>2017-05-21T09:46:02Z</time>
      </trkpt>
      <trkpt lat="47.76878" lon="7.23196">
        <ele>272.6</ele>
        <time>2017-05-21T09:46:07Z</time>
      </trkpt>
      <trkpt lat="47.76845" lon="7.23207">
        <ele>271.9</ele>
        <time>2017-05-21T09:46:11Z</time>
      </trkpt>
      <trkpt lat="47.76803" lon="7.23223">
        <ele>270.8</ele>
        <time>2017-05-21T09:46:16Z</time>
      </trkpt>
      <trkpt lat="47.76768" lon="7.23235">
        <ele>269.6</ele>
        <time>2017-05-21T09:46:19Z</time>
      </trkpt>
      <trkpt lat="47.76741" lon="7.23245">
        <ele>268.9</ele>
        <time>2017-05-21T09:46:23Z</time>
      </trkpt>
      <trkpt lat="47.76705" lon="7.23258">
        <ele>268.8</ele>
        <time>2017-05-21T09:46:27Z</time>
      </trkpt>
      <trkpt lat="47.76655" lon="7.23276">
        <ele>269</ele>
        <time>2017-05-21T09:46:32Z</time>
      </trkpt>
      <trkpt lat="47.76622" lon="7.23283">
        <ele>269.6</ele>
        <time>2017-05-21T09:46:37Z</time>
      </trkpt>
      <trkpt lat="47.7659" lon="7.23284">
        <ele>269.3</ele>
        <time>2017-05-21T09:46:40Z</time>
      </trkpt>
      <trkpt lat="47.7656" lon="7.23283">
        <ele>269</ele>
        <time>2017-05-21T09:46:45Z</time>
      </trkpt>
      <trkpt lat="47.76531" lon="7.23283">
        <ele>268.1</ele>
        <time>2017-05-21T09:46:49Z</time>
      </trkpt>
      <trkpt lat="47.76501" lon="7.23283">
        <ele>267.7</ele>
        <time>2017-05-21T09:46:53Z</time>
      </trkpt>
      <trkpt lat="47.76472" lon="7.23283">
        <ele>268.9</ele>
        <time>2017-05-21T09:46:58Z</time>
      </trkpt>
      <trkpt lat="47.76432" lon="7.23285">
        <ele>270.5</ele>
        <time>2017-05-21T09:47:02Z</time>
      </trkpt>
      <trkpt lat="47.76414" lon="7.23285">
        <ele>270.8</ele>
        <time>2017-05-21T09:47:06Z</time>
      </trkpt>
      <trkpt lat="47.76373" lon="7.23283">
        <ele>271.7</ele>
        <time>2017-05-21T09:47:11Z</time>
      </trkpt>
      <trkpt lat="47.76346" lon="7.23282">
        <ele>271.5</ele>
        <time>2017-05-21T09:47:15Z</time>
      </trkpt>
      <trkpt lat="47.7632" lon="7.23283">
        <ele>271.2</ele>
        <time>2017-05-21T09:47:20Z</time>
      </trkpt>
      <trkpt lat="47.76293" lon="7.23283">
        <ele>271</ele>
        <time>2017-05-21T09:47:24Z</time>
      </trkpt>
      <trkpt lat="47.76265" lon="7.23283">
        <ele>271.2</ele>
        <time>2017-05-21T09:47:28Z</time>
      </trkpt>
      <trkpt lat="47.76233" lon="7.23285">
        <ele>271.1</ele>
        <time>2017-05-21T09:47:32Z</time>
      </trkpt>
      <trkpt lat="47.762" lon="7.23284">
        <ele>270.9</ele>
        <time>2017-05-21T09:47:36Z</time>
      </trkpt>
      <trkpt lat="47.76156" lon="7.23283">
        <ele>269.9</ele>
        <time>2017-05-21T09:47:42Z</time>
      </trkpt>
      <trkpt lat="47.76128" lon="7.23282">
        <ele>270.3</ele>
        <time>2017-05-21T09:47:45Z</time>
      </trkpt>
      <trkpt lat="47.761" lon="7.23282">
        <ele>269.7</ele>
        <time>2017-05-21T09:47:49Z</time>
      </trkpt>
      <trkpt lat="47.76071" lon="7.23285">
        <ele>269.3</ele>
        <time>2017-05-21T09:47:54Z</time>
      </trkpt>
      <trkpt lat="47.76043" lon="7.23293">
        <ele>267.4</ele>
        <time>2017-05-21T09:47:58Z</time>
      </trkpt>
      <trkpt lat="47.76013" lon="7.23303">
        <ele>265.8</ele>
        <time>2017-05-21T09:48:02Z</time>
      </trkpt>
      <trkpt lat="47.75983" lon="7.23313">
        <ele>265.8</ele>
        <time>2017-05-21T09:48:06Z</time>
      </trkpt>
      <trkpt lat="47.75954" lon="7.2332">
        <ele>266.3</ele>
        <time>2017-05-21T09:48:10Z</time>
      </trkpt>
      <trkpt lat="47.75916" lon="7.23322">
        <ele>267.2</ele>
        <time>2017-05-21T09:48:15Z</time>
      </trkpt>
      <trkpt lat="47.75887" lon="7.23317">
        <ele>267.7</ele>
        <time>2017-05-21T09:48:19Z</time>
      </trkpt>
      <trkpt lat="47.75858" lon="7.23308">
        <ele>266.9</ele>
        <time>2017-05-21T09:48:23Z</time>
      </trkpt>
      <trkpt lat="47.75817" lon="7.23294">
        <ele>266.1</ele>
        <time>2017-05-21T09:48:29Z</time>
      </trkpt>
      <trkpt lat="47.75789" lon="7.23286">
        <ele>266.3</ele>
        <time>2017-05-21T09:48:32Z</time>
      </trkpt>
      <trkpt lat="47.75762" lon="7.23277">
        <ele>266.1</ele>
        <time>2017-05-21T09:48:36Z</time>
      </trkpt>
      <trkpt lat="47.75735" lon="7.23268">
        <ele>266.6</ele>
        <time>2017-05-21T09:48:40Z</time>
      </trkpt>
      <trkpt lat="47.75708" lon="7.23259">
        <ele>266.3</ele>
        <time>2017-05-21T09:48:45Z</time>
      </trkpt>
      <trkpt lat="47.75687" lon="7.23252">
        <ele>266.5</ele>
        <time>2017-05-21T09:48:49Z</time>
      </trkpt>
      <trkpt lat="47.75646" lon="7.23239">
        <ele>266.9</ele>
        <time>2017-05-21T09:48:53Z</time>
      </trkpt>
      <trkpt lat="47.75619" lon="7.23232">
        <ele>267.5</ele>
        <time>2017-05-21T09:48:58Z</time>
      </trkpt>
      <trkpt lat="47.75591" lon="7.23226">
        <ele>267.5</ele>
        <time>2017-05-21T09:49:02Z</time>
      </trkpt>
      <trkpt lat="47.75549" lon="7.23219">
        <ele>267.6</ele>
        <time>2017-05-21T09:49:07Z</time>
      </trkpt>
      <trkpt lat="47.75522" lon="7.2321">
        <ele>267.6</ele>
        <time>2017-05-21T09:49:12Z</time>
      </trkpt>
      <trkpt lat="47.75495" lon="7.23196">
        <ele>267.7</ele>
        <time>2017-05-21T09:49:15Z</time>
      </trkpt>
      <trkpt lat="47.75471" lon="7.23176">
        <ele>267.8</ele>
        <time>2017-05-21T09:49:19Z</time>
      </trkpt>
      <trkpt lat="47.75451" lon="7.2315">
        <ele>268</ele>
        <time>2017-05-21T09:49:24Z</time>
      </trkpt>
      <trkpt lat="47.75431" lon="7.23123">
        <ele>268.2</ele>
        <time>2017-05-21T09:49:28Z</time>
      </trkpt>
      <trkpt lat="47.7541" lon="7.231">
        <ele>268.8</ele>
        <time>2017-05-21T09:49:32Z</time>
      </trkpt>
      <trkpt lat="47.75387" lon="7.23079">
        <ele>268.6</ele>
        <time>2017-05-21T09:49:36Z</time>
      </trkpt>
      <trkpt lat="47.75357" lon="7.23058">
        <ele>267.9</ele>
        <time>2017-05-21T09:49:40Z</time>
      </trkpt>
      <trkpt lat="47.7533" lon="7.23045">
        <ele>268.1</ele>
        <time>2017-05-21T09:49:45Z</time>
      </trkpt>
      <trkpt lat="47.75303" lon="7.23034">
        <ele>268</ele>
        <time>2017-05-21T09:49:49Z</time>
      </trkpt>
      <trkpt lat="47.75275" lon="7.23025">
        <ele>268</ele>
        <time>2017-05-21T09:49:53Z</time>
      </trkpt>
      <trkpt lat="47.75233" lon="7.23013">
        <ele>268.5</ele>
        <time>2017-05-21T09:49:58Z</time>
      </trkpt>
      <trkpt lat="47.75205" lon="7.23004">
        <ele>268.5</ele>
        <time>2017-05-21T09:50:02Z</time>
      </trkpt>
      <trkpt lat="47.75184" lon="7.23001">
        <ele>268.8</ele>
        <time>2017-05-21T09:50:06Z</time>
      </trkpt>
      <trkpt lat="47.75155" lon="7.23001">
        <ele>269</ele>
        <time>2017-05-21T09:50:10Z</time>
      </trkpt>
      <trkpt lat="47.75119" lon="7.23011">
        <ele>268.4</ele>
        <time>2017-05-21T09:50:15Z</time>
      </trkpt>
      <trkpt lat="47.75085" lon="7.23023">
        <ele>267.9</ele>
        <time>2017-05-21T09:50:19Z</time>
      </trkpt>
      <trkpt lat="47.75059" lon="7.23028">
        <ele>267.6</ele>
        <time>2017-05-21T09:50:23Z</time>
      </trkpt>
      <trkpt lat="47.75033" lon="7.23023">
        <ele>267.1</ele>
        <time>2017-05-21T09:50:28Z</time>
      </trkpt>
      <trkpt lat="47.7502" lon="7.23015">
        <ele>267.5</ele>
        <time>2017-05-21T09:50:32Z</time>
      </trkpt>
      <trkpt lat="47.74988" lon="7.22982">
        <ele>267.5</ele>
        <time>2017-05-21T09:50:36Z</time>
      </trkpt>
      <trkpt lat="47.74961" lon="7.22954">
        <ele>267.9</ele>
        <time>2017-05-21T09:50:40Z</time>
      </trkpt>
      <trkpt lat="47.7494" lon="7.22931">
        <ele>268.1</ele>
        <time>2017-05-21T09:50:44Z</time>
      </trkpt>
      <trkpt lat="47.74927" lon="7.229">
        <ele>267.7</ele>
        <time>2017-05-21T09:50:49Z</time>
      </trkpt>
      <trkpt lat="47.74924" lon="7.22865">
        <ele>267.6</ele>
        <time>2017-05-21T09:50:53Z</time>
      </trkpt>
      <trkpt lat="47.74922" lon="7.22813">
        <ele>268.4</ele>
        <time>2017-05-21T09:50:58Z</time>
      </trkpt>
      <trkpt lat="47.74921" lon="7.2278">
        <ele>268.9</ele>
        <time>2017-05-21T09:51:02Z</time>
      </trkpt>
      <trkpt lat="47.74927" lon="7.22751">
        <ele>269.7</ele>
        <time>2017-05-21T09:51:06Z</time>
      </trkpt>
      <trkpt lat="47.74938" lon="7.22729">
        <ele>270.1</ele>
        <time>2017-05-21T09:51:10Z</time>
      </trkpt>
      <trkpt lat="47.74951" lon="7.2271">
        <ele>270.7</ele>
        <time>2017-05-21T09:51:15Z</time>
      </trkpt>
      <trkpt lat="47.7496" lon="7.22697">
        <ele>271.1</ele>
        <time>2017-05-21T09:51:19Z</time>
      </trkpt>
      <trkpt lat="47.74981" lon="7.22671">
        <ele>272</ele>
        <time>2017-05-21T09:51:24Z</time>
      </trkpt>
      <trkpt lat="47.74993" lon="7.22649">
        <ele>272.5</ele>
        <time>2017-05-21T09:51:27Z</time>
      </trkpt>
      <trkpt lat="47.75005" lon="7.22626">
        <ele>273</ele>
        <time>2017-05-21T09:51:31Z</time>
      </trkpt>
      <trkpt lat="47.75016" lon="7.22603">
        <ele>273.2</ele>
        <time>2017-05-21T09:51:36Z</time>
      </trkpt>
      <trkpt lat="47.75026" lon="7.2258">
        <ele>273.4</ele>
        <time>2017-05-21T09:51:40Z</time>
      </trkpt>
      <trkpt lat="47.75036" lon="7.22554">
        <ele>274</ele>
        <time>2017-05-21T09:51:44Z</time>
      </trkpt>
      <trkpt lat="47.75048" lon="7.22529">
        <ele>274.5</ele>
        <time>2017-05-21T09:51:48Z</time>
      </trkpt>
      <trkpt lat="47.75061" lon="7.22504">
        <ele>275.4</ele>
        <time>2017-05-21T09:51:52Z</time>
      </trkpt>
      <trkpt lat="47.75082" lon="7.22465">
        <ele>276.4</ele>
        <time>2017-05-21T09:51:57Z</time>
      </trkpt>
      <trkpt lat="47.75097" lon="7.22439">
        <ele>276.8</ele>
        <time>2017-05-21T09:52:01Z</time>
      </trkpt>
      <trkpt lat="47.75111" lon="7.22413">
        <ele>276.7</ele>
        <time>2017-05-21T09:52:05Z</time>
      </trkpt>
      <trkpt lat="47.75125" lon="7.22387">
        <ele>277</ele>
        <time>2017-05-21T09:52:10Z</time>
      </trkpt>
      <trkpt lat="47.75139" lon="7.2236">
        <ele>277</ele>
        <time>2017-05-21T09:52:14Z</time>
      </trkpt>
      <trkpt lat="47.75154" lon="7.22334">
        <ele>277.4</ele>
        <time>2017-05-21T09:52:18Z</time>
      </trkpt>
      <trkpt lat="47.75168" lon="7.22309">
        <ele>277.4</ele>
        <time>2017-05-21T09:52:23Z</time>
      </trkpt>
      <trkpt lat="47.75186" lon="7.22268">
        <ele>277.9</ele>
        <time>2017-05-21T09:52:27Z</time>
      </trkpt>
      <trkpt lat="47.7519" lon="7.22245">
        <ele>278.2</ele>
        <time>2017-05-21T09:52:32Z</time>
      </trkpt>
      <trkpt lat="47.75196" lon="7.22198">
        <ele>279.2</ele>
        <time>2017-05-21T09:52:35Z</time>
      </trkpt>
      <trkpt lat="47.75197" lon="7.22166">
        <ele>279.5</ele>
        <time>2017-05-21T09:52:39Z</time>
      </trkpt>
      <trkpt lat="47.75198" lon="7.22134">
        <ele>279.9</ele>
        <time>2017-05-21T09:52:45Z</time>
      </trkpt>
      <trkpt lat="47.75199" lon="7.22104">
        <ele>280.1</ele>
        <time>2017-05-21T09:52:49Z</time>
      </trkpt>
      <trkpt lat="47.75199" lon="7.22072">
        <ele>280.6</ele>
        <time>2017-05-21T09:52:53Z</time>
      </trkpt>
      <trkpt lat="47.752" lon="7.2204">
        <ele>281.6</ele>
        <time>2017-05-21T09:52:57Z</time>
      </trkpt>
      <trkpt lat="47.75204" lon="7.21992">
        <ele>282.3</ele>
        <time>2017-05-21T09:53:02Z</time>
      </trkpt>
      <trkpt lat="47.75209" lon="7.21958">
        <ele>283.2</ele>
        <time>2017-05-21T09:53:06Z</time>
      </trkpt>
      <trkpt lat="47.75213" lon="7.21923">
        <ele>283.5</ele>
        <time>2017-05-21T09:53:11Z</time>
      </trkpt>
      <trkpt lat="47.75222" lon="7.21877">
        <ele>283.8</ele>
        <time>2017-05-21T09:53:15Z</time>
      </trkpt>
      <trkpt lat="47.7523" lon="7.21841">
        <ele>283.1</ele>
        <time>2017-05-21T09:53:20Z</time>
      </trkpt>
      <trkpt lat="47.75238" lon="7.21802">
        <ele>282.8</ele>
        <time>2017-05-21T09:53:23Z</time>
      </trkpt>
      <trkpt lat="47.75246" lon="7.21762">
        <ele>283.1</ele>
        <time>2017-05-21T09:53:27Z</time>
      </trkpt>
      <trkpt lat="47.75254" lon="7.21722">
        <ele>283.3</ele>
        <time>2017-05-21T09:53:32Z</time>
      </trkpt>
      <trkpt lat="47.75263" lon="7.21671">
        <ele>283.3</ele>
        <time>2017-05-21T09:53:36Z</time>
      </trkpt>
      <trkpt lat="47.75267" lon="7.21629">
        <ele>282.7</ele>
        <time>2017-05-21T09:53:40Z</time>
      </trkpt>
      <trkpt lat="47.75268" lon="7.21596">
        <ele>282.3</ele>
        <time>2017-05-21T09:53:44Z</time>
      </trkpt>
      <trkpt lat="47.75265" lon="7.21542">
        <ele>281.8</ele>
        <time>2017-05-21T09:53:49Z</time>
      </trkpt>
      <trkpt lat="47.75264" lon="7.21487">
        <ele>282.1</ele>
        <time>2017-05-21T09:53:53Z</time>
      </trkpt>
      <trkpt lat="47.75264" lon="7.21444">
        <ele>282.4</ele>
        <time>2017-05-21T09:53:57Z</time>
      </trkpt>
      <trkpt lat="47.75266" lon="7.21413">
        <ele>282.7</ele>
        <time>2017-05-21T09:54:01Z</time>
      </trkpt>
      <trkpt lat="47.75275" lon="7.21365">
        <ele>282.5</ele>
        <time>2017-05-21T09:54:06Z</time>
      </trkpt>
      <trkpt lat="47.75285" lon="7.21331">
        <ele>282.4</ele>
        <time>2017-05-21T09:54:10Z</time>
      </trkpt>
      <trkpt lat="47.75299" lon="7.213">
        <ele>282.9</ele>
        <time>2017-05-21T09:54:14Z</time>
      </trkpt>
      <trkpt lat="47.75309" lon="7.21277">
        <ele>283</ele>
        <time>2017-05-21T09:54:18Z</time>
      </trkpt>
      <trkpt lat="47.75331" lon="7.21232">
        <ele>283.3</ele>
        <time>2017-05-21T09:54:22Z</time>
      </trkpt>
      <trkpt lat="47.75343" lon="7.21198">
        <ele>283.5</ele>
        <time>2017-05-21T09:54:26Z</time>
      </trkpt>
      <trkpt lat="47.75354" lon="7.21163">
        <ele>283.9</ele>
        <time>2017-05-21T09:54:31Z</time>
      </trkpt>
      <trkpt lat="47.75363" lon="7.21126">
        <ele>284.5</ele>
        <time>2017-05-21T09:54:35Z</time>
      </trkpt>
      <trkpt lat="47.75371" lon="7.21087">
        <ele>284.4</ele>
        <time>2017-05-21T09:54:39Z</time>
      </trkpt>
      <trkpt lat="47.75382" lon="7.21028">
        <ele>284.7</ele>
        <time>2017-05-21T09:54:43Z</time>
      </trkpt>
      <trkpt lat="47.75388" lon="7.20989">
        <ele>284.9</ele>
        <time>2017-05-21T09:54:47Z</time>
      </trkpt>
      <trkpt lat="47.75393" lon="7.20961">
        <ele>284.7</ele>
        <time>2017-05-21T09:54:52Z</time>
      </trkpt>
      <trkpt lat="47.754" lon="7.20923">
        <ele>284.2</ele>
        <time>2017-05-21T09:54:56Z</time>
      </trkpt>
      <trkpt lat="47.75409" lon="7.20877">
        <ele>284.3</ele>
        <time>2017-05-21T09:55:01Z</time>
      </trkpt>
      <trkpt lat="47.75415" lon="7.2084">
        <ele>284.2</ele>
        <time>2017-05-21T09:55:05Z</time>
      </trkpt>
      <trkpt lat="47.75425" lon="7.20795">
        <ele>285.2</ele>
        <time>2017-05-21T09:55:09Z</time>
      </trkpt>
      <trkpt lat="47.75434" lon="7.20759">
        <ele>285.7</ele>
        <time>2017-05-21T09:55:13Z</time>
      </trkpt>
      <trkpt lat="47.75441" lon="7.20733">
        <ele>285.6</ele>
        <time>2017-05-21T09:55:17Z</time>
      </trkpt>
      <trkpt lat="47.75452" lon="7.20699">
        <ele>285.8</ele>
        <time>2017-05-21T09:55:21Z</time>
      </trkpt>
      <trkpt lat="47.75461" lon="7.20665">
        <ele>285.8</ele>
        <time>2017-05-21T09:55:25Z</time>
      </trkpt>
      <trkpt lat="47.75474" lon="7.20624">
        <ele>285.3</ele>
        <time>2017-05-21T09:55:29Z</time>
      </trkpt>
      <trkpt lat="47.75483" lon="7.20591">
        <ele>285</ele>
        <time>2017-05-21T09:55:34Z</time>
      </trkpt>
      <trkpt lat="47.75492" lon="7.20548">
        <ele>285.1</ele>
        <time>2017-05-21T09:55:38Z</time>
      </trkpt>
      <trkpt lat="47.75496" lon="7.20512">
        <ele>284.9</ele>
        <time>2017-05-21T09:55:42Z</time>
      </trkpt>
      <trkpt lat="47.75498" lon="7.20475">
        <ele>285.1</ele>
        <time>2017-05-21T09:55:46Z</time>
      </trkpt>
      <trkpt lat="47.75498" lon="7.20437">
        <ele>285.5</ele>
        <time>2017-05-21T09:55:50Z</time>
      </trkpt>
      <trkpt lat="47.75496" lon="7.20399">
        <ele>286</ele>
        <time>2017-05-21T09:55:55Z</time>
      </trkpt>
      <trkpt lat="47.75493" lon="7.2036">
        <ele>286.2</ele>
        <time>2017-05-21T09:55:59Z</time>
      </trkpt>
      <trkpt lat="47.75489" lon="7.20322">
        <ele>286</ele>
        <time>2017-05-21T09:56:03Z</time>
      </trkpt>
      <trkpt lat="47.75485" lon="7.20284">
        <ele>286.1</ele>
        <time>2017-05-21T09:56:07Z</time>
      </trkpt>
      <trkpt lat="47.75483" lon="7.20246">
        <ele>286.2</ele>
        <time>2017-05-21T09:56:11Z</time>
      </trkpt>
      <trkpt lat="47.75486" lon="7.2019">
        <ele>286</ele>
        <time>2017-05-21T09:56:17Z</time>
      </trkpt>
      <trkpt lat="47.75491" lon="7.20154">
        <ele>286.3</ele>
        <time>2017-05-21T09:56:20Z</time>
      </trkpt>
      <trkpt lat="47.75498" lon="7.2012">
        <ele>286.5</ele>
        <time>2017-05-21T09:56:25Z</time>
      </trkpt>
      <trkpt lat="47.75504" lon="7.20086">
        <ele>286.7</ele>
        <time>2017-05-21T09:56:29Z</time>
      </trkpt>
      <trkpt lat="47.75514" lon="7.20051">
        <ele>286.6</ele>
        <time>2017-05-21T09:56:33Z</time>
      </trkpt>
      <trkpt lat="47.75523" lon="7.20017">
        <ele>286.9</ele>
        <time>2017-05-21T09:56:38Z</time>
      </trkpt>
      <trkpt lat="47.75535" lon="7.19969">
        <ele>287.2</ele>
        <time>2017-05-21T09:56:42Z</time>
      </trkpt>
      <trkpt lat="47.75544" lon="7.19938">
        <ele>287.9</ele>
        <time>2017-05-21T09:56:46Z</time>
      </trkpt>
      <trkpt lat="47.75552" lon="7.19907">
        <ele>288.4</ele>
        <time>2017-05-21T09:56:51Z</time>
      </trkpt>
      <trkpt lat="47.75561" lon="7.19875">
        <ele>288.6</ele>
        <time>2017-05-21T09:56:55Z</time>
      </trkpt>
      <trkpt lat="47.7557" lon="7.19842">
        <ele>288.6</ele>
        <time>2017-05-21T09:56:59Z</time>
      </trkpt>
      <trkpt lat="47.75579" lon="7.19809">
        <ele>288.3</ele>
        <time>2017-05-21T09:57:03Z</time>
      </trkpt>
      <trkpt lat="47.75585" lon="7.19773">
        <ele>288.1</ele>
        <time>2017-05-21T09:57:07Z</time>
      </trkpt>
      <trkpt lat="47.7559" lon="7.19738">
        <ele>288.7</ele>
        <time>2017-05-21T09:57:11Z</time>
      </trkpt>
      <trkpt lat="47.75596" lon="7.19702">
        <ele>289.3</ele>
        <time>2017-05-21T09:57:15Z</time>
      </trkpt>
      <trkpt lat="47.75604" lon="7.19648">
        <ele>289.7</ele>
        <time>2017-05-21T09:57:20Z</time>
      </trkpt>
      <trkpt lat="47.7561" lon="7.19611">
        <ele>290.4</ele>
        <time>2017-05-21T09:57:25Z</time>
      </trkpt>
      <trkpt lat="47.75616" lon="7.19575">
        <ele>290.6</ele>
        <time>2017-05-21T09:57:28Z</time>
      </trkpt>
      <trkpt lat="47.75621" lon="7.19538">
        <ele>291.1</ele>
        <time>2017-05-21T09:57:32Z</time>
      </trkpt>
      <trkpt lat="47.75628" lon="7.19504">
        <ele>291.3</ele>
        <time>2017-05-21T09:57:37Z</time>
      </trkpt>
      <trkpt lat="47.7563" lon="7.195">
        <ele>291.2</ele>
        <time>2017-05-21T09:57:41Z</time>
      </trkpt>
      <trkpt lat="47.75631" lon="7.195">
        <ele>291.2</ele>
        <time>2017-05-21T09:57:45Z</time>
      </trkpt>
      <trkpt lat="47.75632" lon="7.19499">
        <ele>291</ele>
        <time>2017-05-21T09:57:50Z</time>
      </trkpt>
      <trkpt lat="47.75632" lon="7.19499">
        <ele>291</ele>
        <time>2017-05-21T09:57:54Z</time>
      </trkpt>
      <trkpt lat="47.75632" lon="7.19499">
        <ele>291</ele>
        <time>2017-05-21T09:57:59Z</time>
      </trkpt>
      <trkpt lat="47.75632" lon="7.19499">
        <ele>291</ele>
        <time>2017-05-21T09:58:03Z</time>
      </trkpt>
      <trkpt lat="47.75632" lon="7.19499">
        <ele>291</ele>
        <time>2017-05-21T09:58:09Z</time>
      </trkpt>
      <trkpt lat="47.75632" lon="7.19499">
        <ele>291</ele>
        <time>2017-05-21T09:58:12Z</time>
      </trkpt>
      <trkpt lat="47.75632" lon="7.19499">
        <ele>291</ele>
        <time>2017-05-21T09:58:16Z</time>
      </trkpt>
      <trkpt lat="47.75632" lon="7.19499">
        <ele>291</ele>
        <time>2017-05-21T09:58:21Z</time>
      </trkpt>
      <trkpt lat="47.75632" lon="7.19499">
        <ele>291</ele>
        <time>2017-05-21T09:58:25Z</time>
      </trkpt>
      <trkpt lat="47.75632" lon="7.19499">
        <ele>291</ele>
        <time>2017-05-21T09:58:29Z</time>
      </trkpt>
      <trkpt lat="47.75632" lon="7.19499">
        <ele>291</ele>
        <time>2017-05-21T09:58:34Z</time>
      </trkpt>
      <trkpt lat="47.75632" lon="7.19499">
        <ele>291</ele>
        <time>2017-05-21T09:58:38Z</time>
      </trkpt>
      <trkpt lat="47.75632" lon="7.19499">
        <ele>291</ele>
        <time>2017-05-21T09:58:42Z</time>
      </trkpt>
      <trkpt lat="47.75632" lon="7.19499">
        <ele>291</ele>
        <time>2017-05-21T09:58:47Z</time>
      </trkpt>
      <trkpt lat="47.75631" lon="7.19498">
        <ele>291</ele>
        <time>2017-05-21T09:58:52Z</time>
      </trkpt>
      <trkpt lat="47.75629" lon="7.19494">
        <ele>290.7</ele>
        <time>2017-05-21T09:58:55Z</time>
      </trkpt>
      <trkpt lat="47.75633" lon="7.19473">
        <ele>290.3</ele>
        <time>2017-05-21T09:58:59Z</time>
      </trkpt>
      <trkpt lat="47.75642" lon="7.19432">
        <ele>290.4</ele>
        <time>2017-05-21T09:59:03Z</time>
      </trkpt>
      <trkpt lat="47.75653" lon="7.1938">
        <ele>290.1</ele>
        <time>2017-05-21T09:59:07Z</time>
      </trkpt>
      <trkpt lat="47.75668" lon="7.19318">
        <ele>290.7</ele>
        <time>2017-05-21T09:59:11Z</time>
      </trkpt>
      <trkpt lat="47.75681" lon="7.19269">
        <ele>291</ele>
        <time>2017-05-21T09:59:16Z</time>
      </trkpt>
      <trkpt lat="47.75696" lon="7.1921">
        <ele>291.5</ele>
        <time>2017-05-21T09:59:20Z</time>
      </trkpt>
      <trkpt lat="47.75708" lon="7.19162">
        <ele>292.1</ele>
        <time>2017-05-21T09:59:25Z</time>
      </trkpt>
      <trkpt lat="47.75718" lon="7.19112">
        <ele>293.3</ele>
        <time>2017-05-21T09:59:28Z</time>
      </trkpt>
      <trkpt lat="47.75724" lon="7.19061">
        <ele>293.3</ele>
        <time>2017-05-21T09:59:32Z</time>
      </trkpt>
      <trkpt lat="47.75727" lon="7.19009">
        <ele>293.7</ele>
        <time>2017-05-21T09:59:36Z</time>
      </trkpt>
      <trkpt lat="47.75731" lon="7.18955">
        <ele>293.3</ele>
        <time>2017-05-21T09:59:41Z</time>
      </trkpt>
      <trkpt lat="47.75736" lon="7.18902">
        <ele>293.5</ele>
        <time>2017-05-21T09:59:46Z</time>
      </trkpt>
      <trkpt lat="47.75743" lon="7.18837">
        <ele>293.6</ele>
        <time>2017-05-21T09:59:50Z</time>
      </trkpt>
      <trkpt lat="47.75748" lon="7.18784">
        <ele>293.8</ele>
        <time>2017-05-21T09:59:54Z</time>
      </trkpt>
      <trkpt lat="47.75752" lon="7.18731">
        <ele>293.9</ele>
        <time>2017-05-21T09:59:58Z</time>
      </trkpt>
      <trkpt lat="47.75757" lon="7.18679">
        <ele>294.4</ele>
        <time>2017-05-21T10:00:02Z</time>
      </trkpt>
      <trkpt lat="47.75761" lon="7.18627">
        <ele>294.5</ele>
        <time>2017-05-21T10:00:06Z</time>
      </trkpt>
      <trkpt lat="47.75766" lon="7.18561">
        <ele>293.7</ele>
        <time>2017-05-21T10:00:10Z</time>
      </trkpt>
      <trkpt lat="47.7577" lon="7.18495">
        <ele>293.4</ele>
        <time>2017-05-21T10:00:14Z</time>
      </trkpt>
      <trkpt lat="47.75774" lon="7.18442">
        <ele>293.4</ele>
        <time>2017-05-21T10:00:19Z</time>
      </trkpt>
      <trkpt lat="47.75775" lon="7.18403">
        <ele>293.2</ele>
        <time>2017-05-21T10:00:23Z</time>
      </trkpt>
      <trkpt lat="47.75766" lon="7.18349">
        <ele>292.4</ele>
        <time>2017-05-21T10:00:27Z</time>
      </trkpt>
      <trkpt lat="47.75752" lon="7.18295">
        <ele>291.7</ele>
        <time>2017-05-21T10:00:31Z</time>
      </trkpt>
      <trkpt lat="47.75737" lon="7.1824">
        <ele>291.5</ele>
        <time>2017-05-21T10:00:35Z</time>
      </trkpt>
      <trkpt lat="47.75714" lon="7.18154">
        <ele>291.7</ele>
        <time>2017-05-21T10:00:41Z</time>
      </trkpt>
      <trkpt lat="47.75706" lon="7.18125">
        <ele>291.8</ele>
        <time>2017-05-21T10:00:44Z</time>
      </trkpt>
      <trkpt lat="47.75686" lon="7.18053">
        <ele>292.1</ele>
        <time>2017-05-21T10:00:48Z</time>
      </trkpt>
      <trkpt lat="47.75669" lon="7.17996">
        <ele>292.7</ele>
        <time>2017-05-21T10:00:52Z</time>
      </trkpt>
      <trkpt lat="47.75655" lon="7.17941">
        <ele>293.6</ele>
        <time>2017-05-21T10:00:56Z</time>
      </trkpt>
      <trkpt lat="47.75642" lon="7.17886">
        <ele>294.4</ele>
        <time>2017-05-21T10:01:01Z</time>
      </trkpt>
      <trkpt lat="47.75626" lon="7.17815">
        <ele>294.6</ele>
        <time>2017-05-21T10:01:05Z</time>
      </trkpt>
      <trkpt lat="47.7561" lon="7.17743">
        <ele>293.9</ele>
        <time>2017-05-21T10:01:09Z</time>
      </trkpt>
      <trkpt lat="47.75602" lon="7.17683">
        <ele>293.4</ele>
        <time>2017-05-21T10:01:14Z</time>
      </trkpt>
      <trkpt lat="47.75597" lon="7.17637">
        <ele>292.8</ele>
        <time>2017-05-21T10:01:17Z</time>
      </trkpt>
      <trkpt lat="47.75586" lon="7.17578">
        <ele>292</ele>
        <time>2017-05-21T10:01:21Z</time>
      </trkpt>
      <trkpt lat="47.75563" lon="7.17507">
        <ele>290.9</ele>
        <time>2017-05-21T10:01:26Z</time>
      </trkpt>
      <trkpt lat="47.75542" lon="7.17451">
        <ele>290.3</ele>
        <time>2017-05-21T10:01:30Z</time>
      </trkpt>
      <trkpt lat="47.75524" lon="7.17396">
        <ele>290</ele>
        <time>2017-05-21T10:01:34Z</time>
      </trkpt>
      <trkpt lat="47.755" lon="7.17309">
        <ele>289.6</ele>
        <time>2017-05-21T10:01:39Z</time>
      </trkpt>
      <trkpt lat="47.75484" lon="7.17255">
        <ele>289.1</ele>
        <time>2017-05-21T10:01:44Z</time>
      </trkpt>
      <trkpt lat="47.75469" lon="7.17199">
        <ele>289.6</ele>
        <time>2017-05-21T10:01:47Z</time>
      </trkpt>
      <trkpt lat="47.75455" lon="7.17145">
        <ele>289.3</ele>
        <time>2017-05-21T10:01:52Z</time>
      </trkpt>
      <trkpt lat="47.75437" lon="7.17093">
        <ele>289.2</ele>
        <time>2017-05-21T10:01:56Z</time>
      </trkpt>
      <trkpt lat="47.75397" lon="7.17033">
        <ele>290.3</ele>
        <time>2017-05-21T10:02:01Z</time>
      </trkpt>
      <trkpt lat="47.75363" lon="7.17012">
        <ele>291.6</ele>
        <time>2017-05-21T10:02:06Z</time>
      </trkpt>
      <trkpt lat="47.75336" lon="7.17008">
        <ele>292.2</ele>
        <time>2017-05-21T10:02:09Z</time>
      </trkpt>
      <trkpt lat="47.75303" lon="7.17002">
        <ele>293.3</ele>
        <time>2017-05-21T10:02:13Z</time>
      </trkpt>
      <trkpt lat="47.75272" lon="7.16985">
        <ele>293.5</ele>
        <time>2017-05-21T10:02:17Z</time>
      </trkpt>
      <trkpt lat="47.75237" lon="7.1696">
        <ele>293</ele>
        <time>2017-05-21T10:02:22Z</time>
      </trkpt>
      <trkpt lat="47.7523" lon="7.16909">
        <ele>293.2</ele>
        <time>2017-05-21T10:02:26Z</time>
      </trkpt>
      <trkpt lat="47.7524" lon="7.16866">
        <ele>293.4</ele>
        <time>2017-05-21T10:02:30Z</time>
      </trkpt>
      <trkpt lat="47.75245" lon="7.16844">
        <ele>293.8</ele>
        <time>2017-05-21T10:02:34Z</time>
      </trkpt>
      <trkpt lat="47.75258" lon="7.16791">
        <ele>294.2</ele>
        <time>2017-05-21T10:02:38Z</time>
      </trkpt>
      <trkpt lat="47.75268" lon="7.16748">
        <ele>294.8</ele>
        <time>2017-05-21T10:02:42Z</time>
      </trkpt>
      <trkpt lat="47.7528" lon="7.16696">
        <ele>295.1</ele>
        <time>2017-05-21T10:02:47Z</time>
      </trkpt>
      <trkpt lat="47.75289" lon="7.16653">
        <ele>295.6</ele>
        <time>2017-05-21T10:02:51Z</time>
      </trkpt>
      <trkpt lat="47.75301" lon="7.16611">
        <ele>295.4</ele>
        <time>2017-05-21T10:02:55Z</time>
      </trkpt>
      <trkpt lat="47.75322" lon="7.16576">
        <ele>295.8</ele>
        <time>2017-05-21T10:02:59Z</time>
      </trkpt>
      <trkpt lat="47.75338" lon="7.16544">
        <ele>296.3</ele>
        <time>2017-05-21T10:03:03Z</time>
      </trkpt>
      <trkpt lat="47.75349" lon="7.16509">
        <ele>297.2</ele>
        <time>2017-05-21T10:03:07Z</time>
      </trkpt>
      <trkpt lat="47.7536" lon="7.16475">
        <ele>297.8</ele>
        <time>2017-05-21T10:03:11Z</time>
      </trkpt>
      <trkpt lat="47.7537" lon="7.1644">
        <ele>298.6</ele>
        <time>2017-05-21T10:03:16Z</time>
      </trkpt>
      <trkpt lat="47.75384" lon="7.16399">
        <ele>298.3</ele>
        <time>2017-05-21T10:03:20Z</time>
      </trkpt>
      <trkpt lat="47.75395" lon="7.16366">
        <ele>298.1</ele>
        <time>2017-05-21T10:03:24Z</time>
      </trkpt>
      <trkpt lat="47.75406" lon="7.16333">
        <ele>298.9</ele>
        <time>2017-05-21T10:03:28Z</time>
      </trkpt>
      <trkpt lat="47.75418" lon="7.16302">
        <ele>299.1</ele>
        <time>2017-05-21T10:03:33Z</time>
      </trkpt>
      <trkpt lat="47.75434" lon="7.1626">
        <ele>299.1</ele>
        <time>2017-05-21T10:03:37Z</time>
      </trkpt>
      <trkpt lat="47.7545" lon="7.16223">
        <ele>299.1</ele>
        <time>2017-05-21T10:03:41Z</time>
      </trkpt>
      <trkpt lat="47.75473" lon="7.16177">
        <ele>298.5</ele>
        <time>2017-05-21T10:03:46Z</time>
      </trkpt>
      <trkpt lat="47.75494" lon="7.16132">
        <ele>298.4</ele>
        <time>2017-05-21T10:03:50Z</time>
      </trkpt>
      <trkpt lat="47.75507" lon="7.16105">
        <ele>298.8</ele>
        <time>2017-05-21T10:03:54Z</time>
      </trkpt>
      <trkpt lat="47.75529" lon="7.1606">
        <ele>299.2</ele>
        <time>2017-05-21T10:03:59Z</time>
      </trkpt>
      <trkpt lat="47.75552" lon="7.16014">
        <ele>299.6</ele>
        <time>2017-05-21T10:04:03Z</time>
      </trkpt>
      <trkpt lat="47.75565" lon="7.15987">
        <ele>300.1</ele>
        <time>2017-05-21T10:04:07Z</time>
      </trkpt>
      <trkpt lat="47.75584" lon="7.15948">
        <ele>300.1</ele>
        <time>2017-05-21T10:04:11Z</time>
      </trkpt>
      <trkpt lat="47.75602" lon="7.1591">
        <ele>300.1</ele>
        <time>2017-05-21T10:04:15Z</time>
      </trkpt>
      <trkpt lat="47.75626" lon="7.15861">
        <ele>299.8</ele>
        <time>2017-05-21T10:04:20Z</time>
      </trkpt>
      <trkpt lat="47.7565" lon="7.1581">
        <ele>299.6</ele>
        <time>2017-05-21T10:04:24Z</time>
      </trkpt>
      <trkpt lat="47.7567" lon="7.15767">
        <ele>298.6</ele>
        <time>2017-05-21T10:04:28Z</time>
      </trkpt>
      <trkpt lat="47.75679" lon="7.15745">
        <ele>297.7</ele>
        <time>2017-05-21T10:04:32Z</time>
      </trkpt>
      <trkpt lat="47.75704" lon="7.15687">
        <ele>297.3</ele>
        <time>2017-05-21T10:04:36Z</time>
      </trkpt>
      <trkpt lat="47.7572" lon="7.15644">
        <ele>297.4</ele>
        <time>2017-05-21T10:04:40Z</time>
      </trkpt>
      <trkpt lat="47.75743" lon="7.15598">
        <ele>299.1</ele>
        <time>2017-05-21T10:04:45Z</time>
      </trkpt>
      <trkpt lat="47.7576" lon="7.1556">
        <ele>299.6</ele>
        <time>2017-05-21T10:04:49Z</time>
      </trkpt>
      <trkpt lat="47.75781" lon="7.15516">
        <ele>300.4</ele>
        <time>2017-05-21T10:04:53Z</time>
      </trkpt>
      <trkpt lat="47.7579" lon="7.15498">
        <ele>300.6</ele>
        <time>2017-05-21T10:04:57Z</time>
      </trkpt>
      <trkpt lat="47.7581" lon="7.15451">
        <ele>301.1</ele>
        <time>2017-05-21T10:05:01Z</time>
      </trkpt>
      <trkpt lat="47.75825" lon="7.15404">
        <ele>300.3</ele>
        <time>2017-05-21T10:05:06Z</time>
      </trkpt>
      <trkpt lat="47.75836" lon="7.15365">
        <ele>299.6</ele>
        <time>2017-05-21T10:05:09Z</time>
      </trkpt>
      <trkpt lat="47.75844" lon="7.1534">
        <ele>299.5</ele>
        <time>2017-05-21T10:05:14Z</time>
      </trkpt>
      <trkpt lat="47.75863" lon="7.15333">
        <ele>299.8</ele>
        <time>2017-05-21T10:05:18Z</time>
      </trkpt>
      <trkpt lat="47.75904" lon="7.1533">
        <ele>300.3</ele>
        <time>2017-05-21T10:05:22Z</time>
      </trkpt>
      <trkpt lat="47.75931" lon="7.15332">
        <ele>300.3</ele>
        <time>2017-05-21T10:05:26Z</time>
      </trkpt>
      <trkpt lat="47.75959" lon="7.15336">
        <ele>300.7</ele>
        <time>2017-05-21T10:05:31Z</time>
      </trkpt>
      <trkpt lat="47.75987" lon="7.15342">
        <ele>300.6</ele>
        <time>2017-05-21T10:05:35Z</time>
      </trkpt>
      <trkpt lat="47.76028" lon="7.15355">
        <ele>300.3</ele>
        <time>2017-05-21T10:05:41Z</time>
      </trkpt>
      <trkpt lat="47.76056" lon="7.15361">
        <ele>299.9</ele>
        <time>2017-05-21T10:05:44Z</time>
      </trkpt>
      <trkpt lat="47.76082" lon="7.15361">
        <ele>299.3</ele>
        <time>2017-05-21T10:05:49Z</time>
      </trkpt>
      <trkpt lat="47.76096" lon="7.1533">
        <ele>298.5</ele>
        <time>2017-05-21T10:05:53Z</time>
      </trkpt>
      <trkpt lat="47.76118" lon="7.15275">
        <ele>298.1</ele>
        <time>2017-05-21T10:05:58Z</time>
      </trkpt>
      <trkpt lat="47.76132" lon="7.15236">
        <ele>298.1</ele>
        <time>2017-05-21T10:06:02Z</time>
      </trkpt>
      <trkpt lat="47.76138" lon="7.15216">
        <ele>298.1</ele>
        <time>2017-05-21T10:06:06Z</time>
      </trkpt>
      <trkpt lat="47.7615" lon="7.15164">
        <ele>298.8</ele>
        <time>2017-05-21T10:06:10Z</time>
      </trkpt>
      <trkpt lat="47.7616" lon="7.15123">
        <ele>299.2</ele>
        <time>2017-05-21T10:06:14Z</time>
      </trkpt>
      <trkpt lat="47.76177" lon="7.15078">
        <ele>298.9</ele>
        <time>2017-05-21T10:06:19Z</time>
      </trkpt>
      <trkpt lat="47.76197" lon="7.15048">
        <ele>299.2</ele>
        <time>2017-05-21T10:06:23Z</time>
      </trkpt>
      <trkpt lat="47.76227" lon="7.15022">
        <ele>300.3</ele>
        <time>2017-05-21T10:06:28Z</time>
      </trkpt>
      <trkpt lat="47.76254" lon="7.15008">
        <ele>300</ele>
        <time>2017-05-21T10:06:31Z</time>
      </trkpt>
      <trkpt lat="47.76266" lon="7.14997">
        <ele>300.1</ele>
        <time>2017-05-21T10:06:35Z</time>
      </trkpt>
      <trkpt lat="47.76295" lon="7.14963">
        <ele>300.3</ele>
        <time>2017-05-21T10:06:39Z</time>
      </trkpt>
      <trkpt lat="47.76329" lon="7.14924">
        <ele>301.1</ele>
        <time>2017-05-21T10:06:44Z</time>
      </trkpt>
      <trkpt lat="47.7635" lon="7.14899">
        <ele>301.4</ele>
        <time>2017-05-21T10:06:49Z</time>
      </trkpt>
      <trkpt lat="47.76372" lon="7.14875">
        <ele>302.2</ele>
        <time>2017-05-21T10:06:52Z</time>
      </trkpt>
      <trkpt lat="47.76394" lon="7.14848">
        <ele>303</ele>
        <time>2017-05-21T10:06:57Z</time>
      </trkpt>
      <trkpt lat="47.76415" lon="7.14817">
        <ele>303.9</ele>
        <time>2017-05-21T10:07:01Z</time>
      </trkpt>
      <trkpt lat="47.76445" lon="7.1477">
        <ele>304.4</ele>
        <time>2017-05-21T10:07:06Z</time>
      </trkpt>
      <trkpt lat="47.76466" lon="7.14739">
        <ele>304.7</ele>
        <time>2017-05-21T10:07:11Z</time>
      </trkpt>
      <trkpt lat="47.76488" lon="7.1471">
        <ele>305</ele>
        <time>2017-05-21T10:07:14Z</time>
      </trkpt>
      <trkpt lat="47.76508" lon="7.14681">
        <ele>305.4</ele>
        <time>2017-05-21T10:07:19Z</time>
      </trkpt>
      <trkpt lat="47.76524" lon="7.14659">
        <ele>305.7</ele>
        <time>2017-05-21T10:07:23Z</time>
      </trkpt>
      <trkpt lat="47.76554" lon="7.14613">
        <ele>305.8</ele>
        <time>2017-05-21T10:07:27Z</time>
      </trkpt>
      <trkpt lat="47.76575" lon="7.14582">
        <ele>306</ele>
        <time>2017-05-21T10:07:31Z</time>
      </trkpt>
      <trkpt lat="47.76597" lon="7.14552">
        <ele>305.9</ele>
        <time>2017-05-21T10:07:36Z</time>
      </trkpt>
      <trkpt lat="47.7662" lon="7.14524">
        <ele>306.3</ele>
        <time>2017-05-21T10:07:40Z</time>
      </trkpt>
      <trkpt lat="47.76643" lon="7.14498">
        <ele>306.4</ele>
        <time>2017-05-21T10:07:44Z</time>
      </trkpt>
      <trkpt lat="47.76667" lon="7.14472">
        <ele>306.9</ele>
        <time>2017-05-21T10:07:48Z</time>
      </trkpt>
      <trkpt lat="47.7669" lon="7.14446">
        <ele>307.8</ele>
        <time>2017-05-21T10:07:52Z</time>
      </trkpt>
      <trkpt lat="47.76713" lon="7.14421">
        <ele>308.2</ele>
        <time>2017-05-21T10:07:56Z</time>
      </trkpt>
      <trkpt lat="47.76747" lon="7.14385">
        <ele>309</ele>
        <time>2017-05-21T10:08:01Z</time>
      </trkpt>
      <trkpt lat="47.7677" lon="7.1436">
        <ele>309.4</ele>
        <time>2017-05-21T10:08:05Z</time>
      </trkpt>
      <trkpt lat="47.76791" lon="7.14331">
        <ele>309.5</ele>
        <time>2017-05-21T10:08:09Z</time>
      </trkpt>
      <trkpt lat="47.76811" lon="7.14302">
        <ele>309.9</ele>
        <time>2017-05-21T10:08:13Z</time>
      </trkpt>
      <trkpt lat="47.76831" lon="7.14272">
        <ele>310</ele>
        <time>2017-05-21T10:08:18Z</time>
      </trkpt>
      <trkpt lat="47.7685" lon="7.14243">
        <ele>310</ele>
        <time>2017-05-21T10:08:21Z</time>
      </trkpt>
      <trkpt lat="47.76869" lon="7.14211">
        <ele>310.3</ele>
        <time>2017-05-21T10:08:26Z</time>
      </trkpt>
      <trkpt lat="47.76888" lon="7.14182">
        <ele>310.5</ele>
        <time>2017-05-21T10:08:30Z</time>
      </trkpt>
      <trkpt lat="47.76908" lon="7.14152">
        <ele>310.5</ele>
        <time>2017-05-21T10:08:34Z</time>
      </trkpt>
      <trkpt lat="47.76938" lon="7.14105">
        <ele>311</ele>
        <time>2017-05-21T10:08:40Z</time>
      </trkpt>
      <trkpt lat="47.76959" lon="7.14074">
        <ele>311.4</ele>
        <time>2017-05-21T10:08:43Z</time>
      </trkpt>
      <trkpt lat="47.7698" lon="7.14045">
        <ele>312</ele>
        <time>2017-05-21T10:08:47Z</time>
      </trkpt>
      <trkpt lat="47.77003" lon="7.1402">
        <ele>312.1</ele>
        <time>2017-05-21T10:08:52Z</time>
      </trkpt>
      <trkpt lat="47.77019" lon="7.14">
        <ele>312.4</ele>
        <time>2017-05-21T10:08:56Z</time>
      </trkpt>
      <trkpt lat="47.77046" lon="7.13969">
        <ele>312.4</ele>
        <time>2017-05-21T10:09:01Z</time>
      </trkpt>
      <trkpt lat="47.77077" lon="7.13934">
        <ele>313.2</ele>
        <time>2017-05-21T10:09:05Z</time>
      </trkpt>
      <trkpt lat="47.77097" lon="7.13911">
        <ele>314</ele>
        <time>2017-05-21T10:09:09Z</time>
      </trkpt>
      <trkpt lat="47.77116" lon="7.13889">
        <ele>315</ele>
        <time>2017-05-21T10:09:14Z</time>
      </trkpt>
      <trkpt lat="47.77136" lon="7.13866">
        <ele>315.6</ele>
        <time>2017-05-21T10:09:18Z</time>
      </trkpt>
      <trkpt lat="47.77156" lon="7.13843">
        <ele>315.6</ele>
        <time>2017-05-21T10:09:22Z</time>
      </trkpt>
      <trkpt lat="47.77185" lon="7.13808">
        <ele>315.5</ele>
        <time>2017-05-21T10:09:27Z</time>
      </trkpt>
      <trkpt lat="47.77205" lon="7.13785">
        <ele>315.2</ele>
        <time>2017-05-21T10:09:31Z</time>
      </trkpt>
      <trkpt lat="47.77225" lon="7.13761">
        <ele>315.3</ele>
        <time>2017-05-21T10:09:35Z</time>
      </trkpt>
      <trkpt lat="47.77246" lon="7.13737">
        <ele>315.7</ele>
        <time>2017-05-21T10:09:39Z</time>
      </trkpt>
      <trkpt lat="47.77267" lon="7.13713">
        <ele>315.8</ele>
        <time>2017-05-21T10:09:44Z</time>
      </trkpt>
      <trkpt lat="47.77288" lon="7.13689">
        <ele>315.5</ele>
        <time>2017-05-21T10:09:48Z</time>
      </trkpt>
      <trkpt lat="47.77319" lon="7.13653">
        <ele>315.7</ele>
        <time>2017-05-21T10:09:53Z</time>
      </trkpt>
      <trkpt lat="47.7734" lon="7.13627">
        <ele>315.6</ele>
        <time>2017-05-21T10:09:57Z</time>
      </trkpt>
      <trkpt lat="47.77356" lon="7.13609">
        <ele>315.6</ele>
        <time>2017-05-21T10:10:01Z</time>
      </trkpt>
      <trkpt lat="47.77378" lon="7.13586">
        <ele>315.6</ele>
        <time>2017-05-21T10:10:05Z</time>
      </trkpt>
      <trkpt lat="47.77409" lon="7.13561">
        <ele>316.3</ele>
        <time>2017-05-21T10:10:09Z</time>
      </trkpt>
      <trkpt lat="47.77434" lon="7.13543">
        <ele>316.9</ele>
        <time>2017-05-21T10:10:14Z</time>
      </trkpt>
      <trkpt lat="47.77459" lon="7.13525">
        <ele>316.9</ele>
        <time>2017-05-21T10:10:18Z</time>
      </trkpt>
      <trkpt lat="47.77489" lon="7.13502">
        <ele>316.6</ele>
        <time>2017-05-21T10:10:23Z</time>
      </trkpt>
      <trkpt lat="47.77501" lon="7.13493">
        <ele>316.6</ele>
        <time>2017-05-21T10:10:26Z</time>
      </trkpt>
      <trkpt lat="47.77531" lon="7.1347">
        <ele>316.3</ele>
        <time>2017-05-21T10:10:31Z</time>
      </trkpt>
      <trkpt lat="47.77562" lon="7.13449">
        <ele>316.2</ele>
        <time>2017-05-21T10:10:35Z</time>
      </trkpt>
      <trkpt lat="47.77584" lon="7.13433">
        <ele>316.5</ele>
        <time>2017-05-21T10:10:39Z</time>
      </trkpt>
      <trkpt lat="47.7762" lon="7.1341">
        <ele>316.3</ele>
        <time>2017-05-21T10:10:45Z</time>
      </trkpt>
      <trkpt lat="47.77644" lon="7.13393">
        <ele>316.1</ele>
        <time>2017-05-21T10:10:48Z</time>
      </trkpt>
      <trkpt lat="47.77668" lon="7.13374">
        <ele>316.1</ele>
        <time>2017-05-21T10:10:52Z</time>
      </trkpt>
      <trkpt lat="47.77692" lon="7.13355">
        <ele>316</ele>
        <time>2017-05-21T10:10:57Z</time>
      </trkpt>
      <trkpt lat="47.77716" lon="7.13338">
        <ele>316.3</ele>
        <time>2017-05-21T10:11:02Z</time>
      </trkpt>
      <trkpt lat="47.7773" lon="7.13303">
        <ele>317.3</ele>
        <time>2017-05-21T10:11:06Z</time>
      </trkpt>
      <trkpt lat="47.77716" lon="7.13265">
        <ele>317.4</ele>
        <time>2017-05-21T10:11:10Z</time>
      </trkpt>
      <trkpt lat="47.77694" lon="7.1322">
        <ele>317.4</ele>
        <time>2017-05-21T10:11:14Z</time>
      </trkpt>
      <trkpt lat="47.77679" lon="7.13196">
        <ele>317.1</ele>
        <time>2017-05-21T10:11:18Z</time>
      </trkpt>
      <trkpt lat="47.7766" lon="7.13163">
        <ele>315.6</ele>
        <time>2017-05-21T10:11:22Z</time>
      </trkpt>
      <trkpt lat="47.77635" lon="7.13124">
        <ele>315.7</ele>
        <time>2017-05-21T10:11:26Z</time>
      </trkpt>
      <trkpt lat="47.77611" lon="7.13099">
        <ele>315.4</ele>
        <time>2017-05-21T10:11:30Z</time>
      </trkpt>
      <trkpt lat="47.77585" lon="7.13075">
        <ele>315.7</ele>
        <time>2017-05-21T10:11:34Z</time>
      </trkpt>
      <trkpt lat="47.77558" lon="7.13049">
        <ele>316.6</ele>
        <time>2017-05-21T10:11:39Z</time>
      </trkpt>
      <trkpt lat="47.77532" lon="7.13023">
        <ele>316.9</ele>
        <time>2017-05-21T10:11:43Z</time>
      </trkpt>
      <trkpt lat="47.77505" lon="7.12998">
        <ele>317.4</ele>
        <time>2017-05-21T10:11:47Z</time>
      </trkpt>
      <trkpt lat="47.77482" lon="7.12971">
        <ele>317.4</ele>
        <time>2017-05-21T10:11:51Z</time>
      </trkpt>
      <trkpt lat="47.77462" lon="7.1294">
        <ele>317.6</ele>
        <time>2017-05-21T10:11:55Z</time>
      </trkpt>
      <trkpt lat="47.7744" lon="7.12901">
        <ele>316.7</ele>
        <time>2017-05-21T10:12:00Z</time>
      </trkpt>
      <trkpt lat="47.77424" lon="7.12869">
        <ele>316.7</ele>
        <time>2017-05-21T10:12:04Z</time>
      </trkpt>
      <trkpt lat="47.77406" lon="7.1283">
        <ele>316.8</ele>
        <time>2017-05-21T10:12:08Z</time>
      </trkpt>
      <trkpt lat="47.77393" lon="7.12798">
        <ele>316.1</ele>
        <time>2017-05-21T10:12:13Z</time>
      </trkpt>
      <trkpt lat="47.77379" lon="7.1277">
        <ele>315.5</ele>
        <time>2017-05-21T10:12:16Z</time>
      </trkpt>
      <trkpt lat="47.77365" lon="7.12745">
        <ele>315.6</ele>
        <time>2017-05-21T10:12:20Z</time>
      </trkpt>
      <trkpt lat="47.7735" lon="7.12721">
        <ele>317</ele>
        <time>2017-05-21T10:12:24Z</time>
      </trkpt>
      <trkpt lat="47.77333" lon="7.12698">
        <ele>318.1</ele>
        <time>2017-05-21T10:12:29Z</time>
      </trkpt>
      <trkpt lat="47.77314" lon="7.12677">
        <ele>318.4</ele>
        <time>2017-05-21T10:12:33Z</time>
      </trkpt>
      <trkpt lat="47.77292" lon="7.12654">
        <ele>318.4</ele>
        <time>2017-05-21T10:12:38Z</time>
      </trkpt>
      <trkpt lat="47.77257" lon="7.12614">
        <ele>319.5</ele>
        <time>2017-05-21T10:12:42Z</time>
      </trkpt>
      <trkpt lat="47.77232" lon="7.12588">
        <ele>319.5</ele>
        <time>2017-05-21T10:12:46Z</time>
      </trkpt>
      <trkpt lat="47.7721" lon="7.12562">
        <ele>320.4</ele>
        <time>2017-05-21T10:12:50Z</time>
      </trkpt>
      <trkpt lat="47.77188" lon="7.12536">
        <ele>320.1</ele>
        <time>2017-05-21T10:12:55Z</time>
      </trkpt>
      <trkpt lat="47.77164" lon="7.1251">
        <ele>319.4</ele>
        <time>2017-05-21T10:12:59Z</time>
      </trkpt>
      <trkpt lat="47.77139" lon="7.12482">
        <ele>319.5</ele>
        <time>2017-05-21T10:13:03Z</time>
      </trkpt>
      <trkpt lat="47.77102" lon="7.12441">
        <ele>319.9</ele>
        <time>2017-05-21T10:13:08Z</time>
      </trkpt>
      <trkpt lat="47.77078" lon="7.12416">
        <ele>320</ele>
        <time>2017-05-21T10:13:12Z</time>
      </trkpt>
      <trkpt lat="47.77055" lon="7.12394">
        <ele>320.1</ele>
        <time>2017-05-21T10:13:16Z</time>
      </trkpt>
      <trkpt lat="47.77031" lon="7.12373">
        <ele>320.3</ele>
        <time>2017-05-21T10:13:20Z</time>
      </trkpt>
      <trkpt lat="47.77007" lon="7.12354">
        <ele>320.5</ele>
        <time>2017-05-21T10:13:25Z</time>
      </trkpt>
      <trkpt lat="47.76983" lon="7.12333">
        <ele>320.6</ele>
        <time>2017-05-21T10:13:29Z</time>
      </trkpt>
      <trkpt lat="47.7696" lon="7.12312">
        <ele>321.3</ele>
        <time>2017-05-21T10:13:33Z</time>
      </trkpt>
      <trkpt lat="47.76938" lon="7.12293">
        <ele>321.9</ele>
        <time>2017-05-21T10:13:37Z</time>
      </trkpt>
      <trkpt lat="47.76916" lon="7.12276">
        <ele>323.4</ele>
        <time>2017-05-21T10:13:41Z</time>
      </trkpt>
      <trkpt lat="47.76883" lon="7.12271">
        <ele>324.2</ele>
        <time>2017-05-21T10:13:46Z</time>
      </trkpt>
      <trkpt lat="47.76861" lon="7.12281">
        <ele>324.6</ele>
        <time>2017-05-21T10:13:50Z</time>
      </trkpt>
      <trkpt lat="47.76839" lon="7.12289">
        <ele>324.8</ele>
        <time>2017-05-21T10:13:54Z</time>
      </trkpt>
      <trkpt lat="47.76816" lon="7.12295">
        <ele>325.2</ele>
        <time>2017-05-21T10:13:59Z</time>
      </trkpt>
      <trkpt lat="47.76792" lon="7.12288">
        <ele>326</ele>
        <time>2017-05-21T10:14:03Z</time>
      </trkpt>
      <trkpt lat="47.76772" lon="7.12271">
        <ele>327.4</ele>
        <time>2017-05-21T10:14:07Z</time>
      </trkpt>
      <trkpt lat="47.76744" lon="7.12247">
        <ele>330.9</ele>
        <time>2017-05-21T10:14:13Z</time>
      </trkpt>
      <trkpt lat="47.76726" lon="7.12232">
        <ele>332.1</ele>
        <time>2017-05-21T10:14:16Z</time>
      </trkpt>
      <trkpt lat="47.76708" lon="7.12215">
        <ele>332.9</ele>
        <time>2017-05-21T10:14:21Z</time>
      </trkpt>
      <trkpt lat="47.76691" lon="7.122">
        <ele>334.1</ele>
        <time>2017-05-21T10:14:25Z</time>
      </trkpt>
      <trkpt lat="47.76675" lon="7.12186">
        <ele>334.9</ele>
        <time>2017-05-21T10:14:29Z</time>
      </trkpt>
      <trkpt lat="47.76659" lon="7.12172">
        <ele>336.4</ele>
        <time>2017-05-21T10:14:34Z</time>
      </trkpt>
      <trkpt lat="47.76639" lon="7.12152">
        <ele>337.7</ele>
        <time>2017-05-21T10:14:38Z</time>
      </trkpt>
      <trkpt lat="47.76622" lon="7.12135">
        <ele>338</ele>
        <time>2017-05-21T10:14:42Z</time>
      </trkpt>
      <trkpt lat="47.76604" lon="7.12118">
        <ele>338.7</ele>
        <time>2017-05-21T10:14:46Z</time>
      </trkpt>
      <trkpt lat="47.76585" lon="7.12101">
        <ele>338.9</ele>
        <time>2017-05-21T10:14:50Z</time>
      </trkpt>
      <trkpt lat="47.76557" lon="7.12077">
        <ele>339.8</ele>
        <time>2017-05-21T10:14:56Z</time>
      </trkpt>
      <trkpt lat="47.7654" lon="7.12061">
        <ele>339.9</ele>
        <time>2017-05-21T10:14:59Z</time>
      </trkpt>
      <trkpt lat="47.76522" lon="7.12044">
        <ele>341</ele>
        <time>2017-05-21T10:15:04Z</time>
      </trkpt>
      <trkpt lat="47.76505" lon="7.12028">
        <ele>341.1</ele>
        <time>2017-05-21T10:15:08Z</time>
      </trkpt>
      <trkpt lat="47.76487" lon="7.12012">
        <ele>341.7</ele>
        <time>2017-05-21T10:15:12Z</time>
      </trkpt>
      <trkpt lat="47.7647" lon="7.11996">
        <ele>341.5</ele>
        <time>2017-05-21T10:15:16Z</time>
      </trkpt>
      <trkpt lat="47.76441" lon="7.11975">
        <ele>341.7</ele>
        <time>2017-05-21T10:15:21Z</time>
      </trkpt>
      <trkpt lat="47.7642" lon="7.11961">
        <ele>342.3</ele>
        <time>2017-05-21T10:15:25Z</time>
      </trkpt>
      <trkpt lat="47.76405" lon="7.1195">
        <ele>343</ele>
        <time>2017-05-21T10:15:29Z</time>
      </trkpt>
      <trkpt lat="47.76377" lon="7.11931">
        <ele>343.1</ele>
        <time>2017-05-21T10:15:34Z</time>
      </trkpt>
      <trkpt lat="47.76354" lon="7.11916">
        <ele>344</ele>
        <time>2017-05-21T10:15:38Z</time>
      </trkpt>
      <trkpt lat="47.76326" lon="7.11896">
        <ele>344.8</ele>
        <time>2017-05-21T10:15:43Z</time>
      </trkpt>
      <trkpt lat="47.76305" lon="7.11876">
        <ele>345.6</ele>
        <time>2017-05-21T10:15:46Z</time>
      </trkpt>
      <trkpt lat="47.76291" lon="7.11859">
        <ele>346</ele>
        <time>2017-05-21T10:15:50Z</time>
      </trkpt>
      <trkpt lat="47.76276" lon="7.11835">
        <ele>347.4</ele>
        <time>2017-05-21T10:15:54Z</time>
      </trkpt>
      <trkpt lat="47.76259" lon="7.11807">
        <ele>348.8</ele>
        <time>2017-05-21T10:15:58Z</time>
      </trkpt>
      <trkpt lat="47.76246" lon="7.11786">
        <ele>349.7</ele>
        <time>2017-05-21T10:16:03Z</time>
      </trkpt>
      <trkpt lat="47.76232" lon="7.1176">
        <ele>350.6</ele>
        <time>2017-05-21T10:16:07Z</time>
      </trkpt>
      <trkpt lat="47.76221" lon="7.11728">
        <ele>350.9</ele>
        <time>2017-05-21T10:16:11Z</time>
      </trkpt>
      <trkpt lat="47.76211" lon="7.11697">
        <ele>351.7</ele>
        <time>2017-05-21T10:16:15Z</time>
      </trkpt>
      <trkpt lat="47.76194" lon="7.11646">
        <ele>352.1</ele>
        <time>2017-05-21T10:16:20Z</time>
      </trkpt>
      <trkpt lat="47.7618" lon="7.11622">
        <ele>351</ele>
        <time>2017-05-21T10:16:24Z</time>
      </trkpt>
      <trkpt lat="47.76156" lon="7.11588">
        <ele>350.3</ele>
        <time>2017-05-21T10:16:28Z</time>
      </trkpt>
      <trkpt lat="47.76115" lon="7.11533">
        <ele>349.3</ele>
        <time>2017-05-21T10:16:33Z</time>
      </trkpt>
      <trkpt lat="47.76091" lon="7.11496">
        <ele>348.3</ele>
        <time>2017-05-21T10:16:37Z</time>
      </trkpt>
      <trkpt lat="47.76087" lon="7.11449">
        <ele>349.2</ele>
        <time>2017-05-21T10:16:42Z</time>
      </trkpt>
      <trkpt lat="47.76093" lon="7.1141">
        <ele>349.6</ele>
        <time>2017-05-21T10:16:46Z</time>
      </trkpt>
      <trkpt lat="47.76095" lon="7.11372">
        <ele>349.3</ele>
        <time>2017-05-21T10:16:50Z</time>
      </trkpt>
      <trkpt lat="47.76105" lon="7.11336">
        <ele>349.6</ele>
        <time>2017-05-21T10:16:54Z</time>
      </trkpt>
      <trkpt lat="47.7613" lon="7.11285">
        <ele>350.4</ele>
        <time>2017-05-21T10:17:00Z</time>
      </trkpt>
      <trkpt lat="47.76143" lon="7.11251">
        <ele>350.3</ele>
        <time>2017-05-21T10:17:03Z</time>
      </trkpt>
      <trkpt lat="47.76154" lon="7.11216">
        <ele>350</ele>
        <time>2017-05-21T10:17:07Z</time>
      </trkpt>
      <trkpt lat="47.76165" lon="7.11179">
        <ele>350.4</ele>
        <time>2017-05-21T10:17:12Z</time>
      </trkpt>
      <trkpt lat="47.76176" lon="7.11141">
        <ele>350.9</ele>
        <time>2017-05-21T10:17:16Z</time>
      </trkpt>
      <trkpt lat="47.76187" lon="7.11103">
        <ele>351.6</ele>
        <time>2017-05-21T10:17:20Z</time>
      </trkpt>
      <trkpt lat="47.76199" lon="7.11062">
        <ele>352.4</ele>
        <time>2017-05-21T10:17:24Z</time>
      </trkpt>
      <trkpt lat="47.76215" lon="7.11008">
        <ele>353.2</ele>
        <time>2017-05-21T10:17:28Z</time>
      </trkpt>
      <trkpt lat="47.76224" lon="7.10966">
        <ele>353.6</ele>
        <time>2017-05-21T10:17:33Z</time>
      </trkpt>
      <trkpt lat="47.7622" lon="7.10909">
        <ele>355.5</ele>
        <time>2017-05-21T10:17:37Z</time>
      </trkpt>
      <trkpt lat="47.76212" lon="7.1086">
        <ele>355.1</ele>
        <time>2017-05-21T10:17:41Z</time>
      </trkpt>
      <trkpt lat="47.76206" lon="7.10829">
        <ele>354.3</ele>
        <time>2017-05-21T10:17:45Z</time>
      </trkpt>
      <trkpt lat="47.7619" lon="7.10758">
        <ele>354.4</ele>
        <time>2017-05-21T10:17:50Z</time>
      </trkpt>
      <trkpt lat="47.76156" lon="7.10695">
        <ele>351.3</ele>
        <time>2017-05-21T10:17:54Z</time>
      </trkpt>
      <trkpt lat="47.76119" lon="7.10676">
        <ele>350.2</ele>
        <time>2017-05-21T10:17:58Z</time>
      </trkpt>
      <trkpt lat="47.76068" lon="7.10658">
        <ele>350.7</ele>
        <time>2017-05-21T10:18:03Z</time>
      </trkpt>
      <trkpt lat="47.76044" lon="7.10639">
        <ele>350.6</ele>
        <time>2017-05-21T10:18:08Z</time>
      </trkpt>
      <trkpt lat="47.76028" lon="7.10626">
        <ele>350.7</ele>
        <time>2017-05-21T10:18:11Z</time>
      </trkpt>
      <trkpt lat="47.76002" lon="7.10602">
        <ele>351.5</ele>
        <time>2017-05-21T10:18:15Z</time>
      </trkpt>
      <trkpt lat="47.75984" lon="7.10579">
        <ele>352.6</ele>
        <time>2017-05-21T10:18:20Z</time>
      </trkpt>
      <trkpt lat="47.75973" lon="7.10546">
        <ele>354</ele>
        <time>2017-05-21T10:18:23Z</time>
      </trkpt>
      <trkpt lat="47.75969" lon="7.10509">
        <ele>355.7</ele>
        <time>2017-05-21T10:18:28Z</time>
      </trkpt>
      <trkpt lat="47.75966" lon="7.10472">
        <ele>356</ele>
        <time>2017-05-21T10:18:32Z</time>
      </trkpt>
      <trkpt lat="47.75963" lon="7.10433">
        <ele>356.5</ele>
        <time>2017-05-21T10:18:37Z</time>
      </trkpt>
      <trkpt lat="47.75959" lon="7.10384">
        <ele>357.4</ele>
        <time>2017-05-21T10:18:41Z</time>
      </trkpt>
      <trkpt lat="47.75956" lon="7.10346">
        <ele>359.3</ele>
        <time>2017-05-21T10:18:45Z</time>
      </trkpt>
      <trkpt lat="47.75954" lon="7.103">
        <ele>360.8</ele>
        <time>2017-05-21T10:18:49Z</time>
      </trkpt>
      <trkpt lat="47.7595" lon="7.10265">
        <ele>361.6</ele>
        <time>2017-05-21T10:18:54Z</time>
      </trkpt>
      <trkpt lat="47.75949" lon="7.10239">
        <ele>362.3</ele>
        <time>2017-05-21T10:18:57Z</time>
      </trkpt>
      <trkpt lat="47.75947" lon="7.10206">
        <ele>363.3</ele>
        <time>2017-05-21T10:19:01Z</time>
      </trkpt>
      <trkpt lat="47.75944" lon="7.10167">
        <ele>364.2</ele>
        <time>2017-05-21T10:19:06Z</time>
      </trkpt>
      <trkpt lat="47.75942" lon="7.10139">
        <ele>365.2</ele>
        <time>2017-05-21T10:19:10Z</time>
      </trkpt>
      <trkpt lat="47.75939" lon="7.10103">
        <ele>366.8</ele>
        <time>2017-05-21T10:19:14Z</time>
      </trkpt>
      <trkpt lat="47.75936" lon="7.1008">
        <ele>367.7</ele>
        <time>2017-05-21T10:19:18Z</time>
      </trkpt>
      <trkpt lat="47.75936" lon="7.10068">
        <ele>368.5</ele>
        <time>2017-05-21T10:19:22Z</time>
      </trkpt>
      <trkpt lat="47.75938" lon="7.1004">
        <ele>370</ele>
        <time>2017-05-21T10:19:26Z</time>
      </trkpt>
      <trkpt lat="47.75937" lon="7.10011">
        <ele>371</ele>
        <time>2017-05-21T10:19:30Z</time>
      </trkpt>
      <trkpt lat="47.75934" lon="7.09983">
        <ele>371.8</ele>
        <time>2017-05-21T10:19:34Z</time>
      </trkpt>
      <trkpt lat="47.75928" lon="7.09941">
        <ele>372.6</ele>
        <time>2017-05-21T10:19:39Z</time>
      </trkpt>
      <trkpt lat="47.75925" lon="7.09914">
        <ele>372.9</ele>
        <time>2017-05-21T10:19:43Z</time>
      </trkpt>
      <trkpt lat="47.75924" lon="7.09887">
        <ele>373.5</ele>
        <time>2017-05-21T10:19:48Z</time>
      </trkpt>
      <trkpt lat="47.75926" lon="7.09862">
        <ele>374.3</ele>
        <time>2017-05-21T10:19:52Z</time>
      </trkpt>
      <trkpt lat="47.75931" lon="7.09838">
        <ele>375.1</ele>
        <time>2017-05-21T10:19:56Z</time>
      </trkpt>
      <trkpt lat="47.75937" lon="7.09813">
        <ele>375.5</ele>
        <time>2017-05-21T10:20:00Z</time>
      </trkpt>
      <trkpt lat="47.75947" lon="7.09772">
        <ele>376.2</ele>
        <time>2017-05-21T10:20:05Z</time>
      </trkpt>
      <trkpt lat="47.75955" lon="7.09743">
        <ele>376.7</ele>
        <time>2017-05-21T10:20:10Z</time>
      </trkpt>
      <trkpt lat="47.75962" lon="7.09712">
        <ele>377.3</ele>
        <time>2017-05-21T10:20:13Z</time>
      </trkpt>
      <trkpt lat="47.75968" lon="7.09678">
        <ele>378.7</ele>
        <time>2017-05-21T10:20:18Z</time>
      </trkpt>
      <trkpt lat="47.75975" lon="7.09645">
        <ele>380.2</ele>
        <time>2017-05-21T10:20:22Z</time>
      </trkpt>
      <trkpt lat="47.75982" lon="7.09614">
        <ele>381.1</ele>
        <time>2017-05-21T10:20:26Z</time>
      </trkpt>
      <trkpt lat="47.75988" lon="7.09581">
        <ele>383.1</ele>
        <time>2017-05-21T10:20:31Z</time>
      </trkpt>
      <trkpt lat="47.75994" lon="7.09534">
        <ele>382.7</ele>
        <time>2017-05-21T10:20:35Z</time>
      </trkpt>
      <trkpt lat="47.75997" lon="7.09509">
        <ele>382.9</ele>
        <time>2017-05-21T10:20:39Z</time>
      </trkpt>
      <trkpt lat="47.76003" lon="7.09477">
        <ele>383.2</ele>
        <time>2017-05-21T10:20:43Z</time>
      </trkpt>
      <trkpt lat="47.76006" lon="7.09435">
        <ele>385</ele>
        <time>2017-05-21T10:20:47Z</time>
      </trkpt>
      <trkpt lat="47.76011" lon="7.09402">
        <ele>387</ele>
        <time>2017-05-21T10:20:51Z</time>
      </trkpt>
      <trkpt lat="47.76016" lon="7.09367">
        <ele>388.3</ele>
        <time>2017-05-21T10:20:56Z</time>
      </trkpt>
      <trkpt lat="47.76027" lon="7.09314">
        <ele>389.1</ele>
        <time>2017-05-21T10:21:00Z</time>
      </trkpt>
      <trkpt lat="47.76044" lon="7.09275">
        <ele>388.1</ele>
        <time>2017-05-21T10:21:05Z</time>
      </trkpt>
      <trkpt lat="47.76053" lon="7.09255">
        <ele>388.1</ele>
        <time>2017-05-21T10:21:08Z</time>
      </trkpt>
      <trkpt lat="47.76074" lon="7.092">
        <ele>388</ele>
        <time>2017-05-21T10:21:12Z</time>
      </trkpt>
      <trkpt lat="47.76094" lon="7.09155">
        <ele>386.8</ele>
        <time>2017-05-21T10:21:16Z</time>
      </trkpt>
      <trkpt lat="47.76118" lon="7.09108">
        <ele>386.7</ele>
        <time>2017-05-21T10:21:20Z</time>
      </trkpt>
      <trkpt lat="47.76137" lon="7.09047">
        <ele>385.7</ele>
        <time>2017-05-21T10:21:25Z</time>
      </trkpt>
      <trkpt lat="47.7618" lon="7.09058">
        <ele>383.8</ele>
        <time>2017-05-21T10:21:29Z</time>
      </trkpt>
      <trkpt lat="47.76222" lon="7.09062">
        <ele>381.7</ele>
        <time>2017-05-21T10:21:33Z</time>
      </trkpt>
      <trkpt lat="47.76252" lon="7.09024">
        <ele>377.6</ele>
        <time>2017-05-21T10:21:38Z</time>
      </trkpt>
      <trkpt lat="47.76263" lon="7.08967">
        <ele>374.7</ele>
        <time>2017-05-21T10:21:42Z</time>
      </trkpt>
      <trkpt lat="47.76277" lon="7.08936">
        <ele>374.9</ele>
        <time>2017-05-21T10:21:46Z</time>
      </trkpt>
      <trkpt lat="47.76309" lon="7.0896">
        <ele>373.5</ele>
        <time>2017-05-21T10:21:50Z</time>
      </trkpt>
      <trkpt lat="47.7634" lon="7.09011">
        <ele>371.4</ele>
        <time>2017-05-21T10:21:55Z</time>
      </trkpt>
      <trkpt lat="47.76338" lon="7.09028">
        <ele>371.5</ele>
        <time>2017-05-21T10:21:59Z</time>
      </trkpt>
      <trkpt lat="47.76331" lon="7.09074">
        <ele>370.5</ele>
        <time>2017-05-21T10:22:03Z</time>
      </trkpt>
      <trkpt lat="47.76327" lon="7.09112">
        <ele>369.9</ele>
        <time>2017-05-21T10:22:09Z</time>
      </trkpt>
      <trkpt lat="47.76325" lon="7.0914">
        <ele>370.1</ele>
        <time>2017-05-21T10:22:12Z</time>
      </trkpt>
      <trkpt lat="47.76325" lon="7.0916">
        <ele>370.4</ele>
        <time>2017-05-21T10:22:16Z</time>
      </trkpt>
      <trkpt lat="47.76331" lon="7.09198">
        <ele>373</ele>
        <time>2017-05-21T10:22:21Z</time>
      </trkpt>
      <trkpt lat="47.76339" lon="7.09216">
        <ele>374.8</ele>
        <time>2017-05-21T10:22:25Z</time>
      </trkpt>
      <trkpt lat="47.76344" lon="7.09227">
        <ele>376.2</ele>
        <time>2017-05-21T10:22:29Z</time>
      </trkpt>
      <trkpt lat="47.76354" lon="7.09238">
        <ele>377</ele>
        <time>2017-05-21T10:22:33Z</time>
      </trkpt>
      <trkpt lat="47.7637" lon="7.09246">
        <ele>377.4</ele>
        <time>2017-05-21T10:22:37Z</time>
      </trkpt>
      <trkpt lat="47.76383" lon="7.0925">
        <ele>379.1</ele>
        <time>2017-05-21T10:22:42Z</time>
      </trkpt>
      <trkpt lat="47.76397" lon="7.09256">
        <ele>381.3</ele>
        <time>2017-05-21T10:22:46Z</time>
      </trkpt>
      <trkpt lat="47.76411" lon="7.09265">
        <ele>383.3</ele>
        <time>2017-05-21T10:22:50Z</time>
      </trkpt>
      <trkpt lat="47.76423" lon="7.0927">
        <ele>384.9</ele>
        <time>2017-05-21T10:22:54Z</time>
      </trkpt>
      <trkpt lat="47.7643" lon="7.09273">
        <ele>386.1</ele>
        <time>2017-05-21T10:22:58Z</time>
      </trkpt>
      <trkpt lat="47.7644" lon="7.09278">
        <ele>387.7</ele>
        <time>2017-05-21T10:23:02Z</time>
      </trkpt>
      <trkpt lat="47.76453" lon="7.09284">
        <ele>389.7</ele>
        <time>2017-05-21T10:23:06Z</time>
      </trkpt>
      <trkpt lat="47.76464" lon="7.09289">
        <ele>391</ele>
        <time>2017-05-21T10:23:10Z</time>
      </trkpt>
      <trkpt lat="47.76471" lon="7.09295">
        <ele>392.1</ele>
        <time>2017-05-21T10:23:14Z</time>
      </trkpt>
      <trkpt lat="47.76487" lon="7.09304">
        <ele>393.4</ele>
        <time>2017-05-21T10:23:19Z</time>
      </trkpt>
      <trkpt lat="47.76502" lon="7.09311">
        <ele>394.6</ele>
        <time>2017-05-21T10:23:23Z</time>
      </trkpt>
      <trkpt lat="47.76507" lon="7.09314">
        <ele>395.2</ele>
        <time>2017-05-21T10:23:27Z</time>
      </trkpt>
      <trkpt lat="47.76518" lon="7.0932">
        <ele>396.4</ele>
        <time>2017-05-21T10:23:31Z</time>
      </trkpt>
      <trkpt lat="47.76536" lon="7.09331">
        <ele>397.7</ele>
        <time>2017-05-21T10:23:36Z</time>
      </trkpt>
      <trkpt lat="47.76545" lon="7.09337">
        <ele>398.2</ele>
        <time>2017-05-21T10:23:40Z</time>
      </trkpt>
      <trkpt lat="47.76557" lon="7.09343">
        <ele>399.6</ele>
        <time>2017-05-21T10:23:44Z</time>
      </trkpt>
      <trkpt lat="47.7657" lon="7.0935">
        <ele>401.7</ele>
        <time>2017-05-21T10:23:49Z</time>
      </trkpt>
      <trkpt lat="47.76578" lon="7.09356">
        <ele>402.8</ele>
        <time>2017-05-21T10:23:53Z</time>
      </trkpt>
      <trkpt lat="47.76593" lon="7.09367">
        <ele>404.5</ele>
        <time>2017-05-21T10:23:57Z</time>
      </trkpt>
      <trkpt lat="47.76609" lon="7.09375">
        <ele>405.4</ele>
        <time>2017-05-21T10:24:02Z</time>
      </trkpt>
      <trkpt lat="47.76616" lon="7.09378">
        <ele>405.6</ele>
        <time>2017-05-21T10:24:05Z</time>
      </trkpt>
      <trkpt lat="47.76633" lon="7.09382">
        <ele>405.6</ele>
        <time>2017-05-21T10:24:09Z</time>
      </trkpt>
      <trkpt lat="47.76662" lon="7.09374">
        <ele>404.7</ele>
        <time>2017-05-21T10:24:14Z</time>
      </trkpt>
      <trkpt lat="47.76701" lon="7.09343">
        <ele>402</ele>
        <time>2017-05-21T10:24:18Z</time>
      </trkpt>
      <trkpt lat="47.76723" lon="7.093">
        <ele>401.3</ele>
        <time>2017-05-21T10:24:22Z</time>
      </trkpt>
      <trkpt lat="47.76729" lon="7.09277">
        <ele>401.1</ele>
        <time>2017-05-21T10:24:26Z</time>
      </trkpt>
      <trkpt lat="47.76742" lon="7.09214">
        <ele>401.2</ele>
        <time>2017-05-21T10:24:30Z</time>
      </trkpt>
      <trkpt lat="47.76754" lon="7.09167">
        <ele>400.2</ele>
        <time>2017-05-21T10:24:34Z</time>
      </trkpt>
      <trkpt lat="47.76774" lon="7.09114">
        <ele>399.1</ele>
        <time>2017-05-21T10:24:39Z</time>
      </trkpt>
      <trkpt lat="47.76792" lon="7.09076">
        <ele>397</ele>
        <time>2017-05-21T10:24:43Z</time>
      </trkpt>
      <trkpt lat="47.7682" lon="7.0904">
        <ele>396</ele>
        <time>2017-05-21T10:24:48Z</time>
      </trkpt>
      <trkpt lat="47.76847" lon="7.09028">
        <ele>394.2</ele>
        <time>2017-05-21T10:24:51Z</time>
      </trkpt>
      <trkpt lat="47.76861" lon="7.09034">
        <ele>393.7</ele>
        <time>2017-05-21T10:24:55Z</time>
      </trkpt>
      <trkpt lat="47.76879" lon="7.09068">
        <ele>393.6</ele>
        <time>2017-05-21T10:24:59Z</time>
      </trkpt>
      <trkpt lat="47.76875" lon="7.09096">
        <ele>393.8</ele>
        <time>2017-05-21T10:25:04Z</time>
      </trkpt>
      <trkpt lat="47.76871" lon="7.09126">
        <ele>395.2</ele>
        <time>2017-05-21T10:25:08Z</time>
      </trkpt>
      <trkpt lat="47.76865" lon="7.09152">
        <ele>395.8</ele>
        <time>2017-05-21T10:25:12Z</time>
      </trkpt>
      <trkpt lat="47.76862" lon="7.09173">
        <ele>396.5</ele>
        <time>2017-05-21T10:25:16Z</time>
      </trkpt>
      <trkpt lat="47.76862" lon="7.09195">
        <ele>396.8</ele>
        <time>2017-05-21T10:25:21Z</time>
      </trkpt>
      <trkpt lat="47.76862" lon="7.09217">
        <ele>397.1</ele>
        <time>2017-05-21T10:25:25Z</time>
      </trkpt>
      <trkpt lat="47.76863" lon="7.09235">
        <ele>398</ele>
        <time>2017-05-21T10:25:29Z</time>
      </trkpt>
      <trkpt lat="47.7687" lon="7.09266">
        <ele>400.2</ele>
        <time>2017-05-21T10:25:34Z</time>
      </trkpt>
      <trkpt lat="47.76873" lon="7.09276">
        <ele>401</ele>
        <time>2017-05-21T10:25:38Z</time>
      </trkpt>
      <trkpt lat="47.76881" lon="7.093">
        <ele>403</ele>
        <time>2017-05-21T10:25:42Z</time>
      </trkpt>
      <trkpt lat="47.76894" lon="7.09317">
        <ele>403</ele>
        <time>2017-05-21T10:25:47Z</time>
      </trkpt>
      <trkpt lat="47.76909" lon="7.09329">
        <ele>403</ele>
        <time>2017-05-21T10:25:52Z</time>
      </trkpt>
      <trkpt lat="47.76922" lon="7.09336">
        <ele>404.6</ele>
        <time>2017-05-21T10:25:55Z</time>
      </trkpt>
      <trkpt lat="47.76936" lon="7.09343">
        <ele>405.8</ele>
        <time>2017-05-21T10:25:59Z</time>
      </trkpt>
      <trkpt lat="47.76944" lon="7.09346">
        <ele>407</ele>
        <time>2017-05-21T10:26:03Z</time>
      </trkpt>
      <trkpt lat="47.76952" lon="7.09352">
        <ele>408.2</ele>
        <time>2017-05-21T10:26:07Z</time>
      </trkpt>
      <trkpt lat="47.76962" lon="7.09356">
        <ele>409.5</ele>
        <time>2017-05-21T10:26:11Z</time>
      </trkpt>
      <trkpt lat="47.76976" lon="7.0936">
        <ele>410.8</ele>
        <time>2017-05-21T10:26:15Z</time>
      </trkpt>
      <trkpt lat="47.76991" lon="7.09365">
        <ele>411.6</ele>
        <time>2017-05-21T10:26:20Z</time>
      </trkpt>
      <trkpt lat="47.77013" lon="7.09371">
        <ele>412.1</ele>
        <time>2017-05-21T10:26:24Z</time>
      </trkpt>
      <trkpt lat="47.77046" lon="7.0938">
        <ele>412.9</ele>
        <time>2017-05-21T10:26:28Z</time>
      </trkpt>
      <trkpt lat="47.77069" lon="7.09385">
        <ele>412.6</ele>
        <time>2017-05-21T10:26:32Z</time>
      </trkpt>
      <trkpt lat="47.77105" lon="7.09389">
        <ele>411.9</ele>
        <time>2017-05-21T10:26:36Z</time>
      </trkpt>
      <trkpt lat="47.77146" lon="7.09385">
        <ele>408.9</ele>
        <time>2017-05-21T10:26:40Z</time>
      </trkpt>
      <trkpt lat="47.7719" lon="7.09393">
        <ele>404.3</ele>
        <time>2017-05-21T10:26:44Z</time>
      </trkpt>
      <trkpt lat="47.77235" lon="7.09394">
        <ele>401.4</ele>
        <time>2017-05-21T10:26:48Z</time>
      </trkpt>
      <trkpt lat="47.77279" lon="7.09367">
        <ele>397.2</ele>
        <time>2017-05-21T10:26:52Z</time>
      </trkpt>
      <trkpt lat="47.77322" lon="7.0934">
        <ele>394.2</ele>
        <time>2017-05-21T10:26:56Z</time>
      </trkpt>
      <trkpt lat="47.77393" lon="7.09342">
        <ele>389.2</ele>
        <time>2017-05-21T10:27:01Z</time>
      </trkpt>
      <trkpt lat="47.77436" lon="7.09379">
        <ele>386.1</ele>
        <time>2017-05-21T10:27:05Z</time>
      </trkpt>
      <trkpt lat="47.77479" lon="7.0942">
        <ele>382.4</ele>
        <time>2017-05-21T10:27:10Z</time>
      </trkpt>
      <trkpt lat="47.77515" lon="7.09465">
        <ele>376.7</ele>
        <time>2017-05-21T10:27:14Z</time>
      </trkpt>
      <trkpt lat="47.77551" lon="7.0951">
        <ele>372.1</ele>
        <time>2017-05-21T10:27:18Z</time>
      </trkpt>
      <trkpt lat="47.77586" lon="7.0955">
        <ele>368.9</ele>
        <time>2017-05-21T10:27:22Z</time>
      </trkpt>
      <trkpt lat="47.7764" lon="7.09601">
        <ele>365.3</ele>
        <time>2017-05-21T10:27:27Z</time>
      </trkpt>
      <trkpt lat="47.77658" lon="7.09616">
        <ele>364.7</ele>
        <time>2017-05-21T10:27:31Z</time>
      </trkpt>
      <trkpt lat="47.77701" lon="7.09653">
        <ele>363.1</ele>
        <time>2017-05-21T10:27:35Z</time>
      </trkpt>
      <trkpt lat="47.77749" lon="7.0966">
        <ele>361.7</ele>
        <time>2017-05-21T10:27:39Z</time>
      </trkpt>
      <trkpt lat="47.77785" lon="7.09646">
        <ele>360.9</ele>
        <time>2017-05-21T10:27:44Z</time>
      </trkpt>
      <trkpt lat="47.7782" lon="7.09643">
        <ele>360.5</ele>
        <time>2017-05-21T10:27:48Z</time>
      </trkpt>
      <trkpt lat="47.77851" lon="7.09658">
        <ele>360</ele>
        <time>2017-05-21T10:27:52Z</time>
      </trkpt>
      <trkpt lat="47.77894" lon="7.09685">
        <ele>360.1</ele>
        <time>2017-05-21T10:27:57Z</time>
      </trkpt>
      <trkpt lat="47.77921" lon="7.09702">
        <ele>360.3</ele>
        <time>2017-05-21T10:28:01Z</time>
      </trkpt>
      <trkpt lat="47.77945" lon="7.09718">
        <ele>361.1</ele>
        <time>2017-05-21T10:28:05Z</time>
      </trkpt>
      <trkpt lat="47.77965" lon="7.09729">
        <ele>361.9</ele>
        <time>2017-05-21T10:28:10Z</time>
      </trkpt>
      <trkpt lat="47.77983" lon="7.0974">
        <ele>362.3</ele>
        <time>2017-05-21T10:28:14Z</time>
      </trkpt>
      <trkpt lat="47.78005" lon="7.0975">
        <ele>362.6</ele>
        <time>2017-05-21T10:28:19Z</time>
      </trkpt>
      <trkpt lat="47.78021" lon="7.09758">
        <ele>363.4</ele>
        <time>2017-05-21T10:28:22Z</time>
      </trkpt>
      <trkpt lat="47.78036" lon="7.09765">
        <ele>363.8</ele>
        <time>2017-05-21T10:28:26Z</time>
      </trkpt>
      <trkpt lat="47.78043" lon="7.09768">
        <ele>364</ele>
        <time>2017-05-21T10:28:30Z</time>
      </trkpt>
      <trkpt lat="47.78064" lon="7.09777">
        <ele>364.9</ele>
        <time>2017-05-21T10:28:34Z</time>
      </trkpt>
      <trkpt lat="47.78084" lon="7.09806">
        <ele>365.6</ele>
        <time>2017-05-21T10:28:38Z</time>
      </trkpt>
      <trkpt lat="47.78102" lon="7.09833">
        <ele>365.5</ele>
        <time>2017-05-21T10:28:43Z</time>
      </trkpt>
      <trkpt lat="47.78138" lon="7.09863">
        <ele>364.8</ele>
        <time>2017-05-21T10:28:47Z</time>
      </trkpt>
      <trkpt lat="47.78174" lon="7.09885">
        <ele>363.3</ele>
        <time>2017-05-21T10:28:51Z</time>
      </trkpt>
      <trkpt lat="47.7821" lon="7.09906">
        <ele>361.1</ele>
        <time>2017-05-21T10:28:55Z</time>
      </trkpt>
      <trkpt lat="47.78247" lon="7.09928">
        <ele>360</ele>
        <time>2017-05-21T10:29:00Z</time>
      </trkpt>
      <trkpt lat="47.78278" lon="7.09963">
        <ele>359.8</ele>
        <time>2017-05-21T10:29:04Z</time>
      </trkpt>
      <trkpt lat="47.78302" lon="7.10003">
        <ele>358.5</ele>
        <time>2017-05-21T10:29:08Z</time>
      </trkpt>
      <trkpt lat="47.78335" lon="7.10059">
        <ele>356.4</ele>
        <time>2017-05-21T10:29:14Z</time>
      </trkpt>
      <trkpt lat="47.78355" lon="7.10095">
        <ele>356.2</ele>
        <time>2017-05-21T10:29:17Z</time>
      </trkpt>
      <trkpt lat="47.78376" lon="7.1013">
        <ele>356</ele>
        <time>2017-05-21T10:29:22Z</time>
      </trkpt>
      <trkpt lat="47.784" lon="7.10171">
        <ele>355.6</ele>
        <time>2017-05-21T10:29:26Z</time>
      </trkpt>
      <trkpt lat="47.78414" lon="7.10195">
        <ele>354.8</ele>
        <time>2017-05-21T10:29:31Z</time>
      </trkpt>
      <trkpt lat="47.78438" lon="7.10233">
        <ele>354.5</ele>
        <time>2017-05-21T10:29:35Z</time>
      </trkpt>
      <trkpt lat="47.78457" lon="7.10263">
        <ele>354.7</ele>
        <time>2017-05-21T10:29:39Z</time>
      </trkpt>
      <trkpt lat="47.78476" lon="7.10292">
        <ele>354.2</ele>
        <time>2017-05-21T10:29:43Z</time>
      </trkpt>
      <trkpt lat="47.78495" lon="7.10318">
        <ele>354.6</ele>
        <time>2017-05-21T10:29:47Z</time>
      </trkpt>
      <trkpt lat="47.78521" lon="7.10348">
        <ele>354.6</ele>
        <time>2017-05-21T10:29:52Z</time>
      </trkpt>
      <trkpt lat="47.7855" lon="7.10374">
        <ele>354.5</ele>
        <time>2017-05-21T10:29:56Z</time>
      </trkpt>
      <trkpt lat="47.78574" lon="7.10394">
        <ele>353.8</ele>
        <time>2017-05-21T10:30:00Z</time>
      </trkpt>
      <trkpt lat="47.78587" lon="7.10406">
        <ele>353.5</ele>
        <time>2017-05-21T10:30:04Z</time>
      </trkpt>
      <trkpt lat="47.78619" lon="7.10433">
        <ele>351.6</ele>
        <time>2017-05-21T10:30:08Z</time>
      </trkpt>
      <trkpt lat="47.78647" lon="7.1045">
        <ele>349.8</ele>
        <time>2017-05-21T10:30:12Z</time>
      </trkpt>
      <trkpt lat="47.78681" lon="7.10467">
        <ele>347.3</ele>
        <time>2017-05-21T10:30:17Z</time>
      </trkpt>
      <trkpt lat="47.78714" lon="7.10484">
        <ele>346.7</ele>
        <time>2017-05-21T10:30:22Z</time>
      </trkpt>
      <trkpt lat="47.78736" lon="7.105">
        <ele>346.7</ele>
        <time>2017-05-21T10:30:25Z</time>
      </trkpt>
      <trkpt lat="47.78753" lon="7.10502">
        <ele>347.1</ele>
        <time>2017-05-21T10:30:29Z</time>
      </trkpt>
      <trkpt lat="47.78774" lon="7.10497">
        <ele>348</ele>
        <time>2017-05-21T10:30:33Z</time>
      </trkpt>
      <trkpt lat="47.78795" lon="7.10508">
        <ele>348.7</ele>
        <time>2017-05-21T10:30:38Z</time>
      </trkpt>
      <trkpt lat="47.78817" lon="7.10518">
        <ele>349.8</ele>
        <time>2017-05-21T10:30:42Z</time>
      </trkpt>
      <trkpt lat="47.78825" lon="7.10522">
        <ele>349.8</ele>
        <time>2017-05-21T10:30:46Z</time>
      </trkpt>
      <trkpt lat="47.78843" lon="7.10531">
        <ele>350.5</ele>
        <time>2017-05-21T10:30:50Z</time>
      </trkpt>
      <trkpt lat="47.78856" lon="7.10538">
        <ele>351.1</ele>
        <time>2017-05-21T10:30:54Z</time>
      </trkpt>
      <trkpt lat="47.78875" lon="7.10548">
        <ele>352.1</ele>
        <time>2017-05-21T10:30:59Z</time>
      </trkpt>
      <trkpt lat="47.78888" lon="7.10554">
        <ele>352.8</ele>
        <time>2017-05-21T10:31:03Z</time>
      </trkpt>
      <trkpt lat="47.78901" lon="7.10561">
        <ele>353.5</ele>
        <time>2017-05-21T10:31:08Z</time>
      </trkpt>
      <trkpt lat="47.7891" lon="7.10567">
        <ele>354</ele>
        <time>2017-05-21T10:31:12Z</time>
      </trkpt>
      <trkpt lat="47.7893" lon="7.10582">
        <ele>355.2</ele>
        <time>2017-05-21T10:31:17Z</time>
      </trkpt>
      <trkpt lat="47.78943" lon="7.10592">
        <ele>356.3</ele>
        <time>2017-05-21T10:31:20Z</time>
      </trkpt>
      <trkpt lat="47.78957" lon="7.10602">
        <ele>356.7</ele>
        <time>2017-05-21T10:31:25Z</time>
      </trkpt>
      <trkpt lat="47.78973" lon="7.10608">
        <ele>357.4</ele>
        <time>2017-05-21T10:31:29Z</time>
      </trkpt>
      <trkpt lat="47.78992" lon="7.10609">
        <ele>358.3</ele>
        <time>2017-05-21T10:31:34Z</time>
      </trkpt>
      <trkpt lat="47.79026" lon="7.10606">
        <ele>357.1</ele>
        <time>2017-05-21T10:31:39Z</time>
      </trkpt>
      <trkpt lat="47.79054" lon="7.10602">
        <ele>356.1</ele>
        <time>2017-05-21T10:31:42Z</time>
      </trkpt>
      <trkpt lat="47.79086" lon="7.10597">
        <ele>354.6</ele>
        <time>2017-05-21T10:31:46Z</time>
      </trkpt>
      <trkpt lat="47.79112" lon="7.10595">
        <ele>353.6</ele>
        <time>2017-05-21T10:31:50Z</time>
      </trkpt>
      <trkpt lat="47.79148" lon="7.10596">
        <ele>352.9</ele>
        <time>2017-05-21T10:31:54Z</time>
      </trkpt>
      <trkpt lat="47.7919" lon="7.10619">
        <ele>351.6</ele>
        <time>2017-05-21T10:31:58Z</time>
      </trkpt>
      <trkpt lat="47.79216" lon="7.10643">
        <ele>352.3</ele>
        <time>2017-05-21T10:32:02Z</time>
      </trkpt>
      <trkpt lat="47.79237" lon="7.10664">
        <ele>352</ele>
        <time>2017-05-21T10:32:07Z</time>
      </trkpt>
      <trkpt lat="47.79255" lon="7.10676">
        <ele>352.1</ele>
        <time>2017-05-21T10:32:11Z</time>
      </trkpt>
      <trkpt lat="47.79269" lon="7.10647">
        <ele>353</ele>
        <time>2017-05-21T10:32:15Z</time>
      </trkpt>
      <trkpt lat="47.79272" lon="7.10632">
        <ele>353.2</ele>
        <time>2017-05-21T10:32:19Z</time>
      </trkpt>
      <trkpt lat="47.79277" lon="7.1059">
        <ele>354.1</ele>
        <time>2017-05-21T10:32:23Z</time>
      </trkpt>
      <trkpt lat="47.79281" lon="7.10554">
        <ele>354.2</ele>
        <time>2017-05-21T10:32:28Z</time>
      </trkpt>
      <trkpt lat="47.79282" lon="7.10505">
        <ele>354.8</ele>
        <time>2017-05-21T10:32:32Z</time>
      </trkpt>
      <trkpt lat="47.79281" lon="7.10466">
        <ele>355.3</ele>
        <time>2017-05-21T10:32:36Z</time>
      </trkpt>
      <trkpt lat="47.7928" lon="7.10409">
        <ele>356</ele>
        <time>2017-05-21T10:32:41Z</time>
      </trkpt>
      <trkpt lat="47.7928" lon="7.10373">
        <ele>356.7</ele>
        <time>2017-05-21T10:32:46Z</time>
      </trkpt>
      <trkpt lat="47.7928" lon="7.10338">
        <ele>357.9</ele>
        <time>2017-05-21T10:32:50Z</time>
      </trkpt>
      <trkpt lat="47.79283" lon="7.10305">
        <ele>358.7</ele>
        <time>2017-05-21T10:32:54Z</time>
      </trkpt>
      <trkpt lat="47.79286" lon="7.10273">
        <ele>359.7</ele>
        <time>2017-05-21T10:32:58Z</time>
      </trkpt>
      <trkpt lat="47.7929" lon="7.10231">
        <ele>360.3</ele>
        <time>2017-05-21T10:33:03Z</time>
      </trkpt>
      <trkpt lat="47.79294" lon="7.10189">
        <ele>360.7</ele>
        <time>2017-05-21T10:33:08Z</time>
      </trkpt>
      <trkpt lat="47.79297" lon="7.10166">
        <ele>360.7</ele>
        <time>2017-05-21T10:33:11Z</time>
      </trkpt>
      <trkpt lat="47.79303" lon="7.10138">
        <ele>361.4</ele>
        <time>2017-05-21T10:33:15Z</time>
      </trkpt>
      <trkpt lat="47.79312" lon="7.10094">
        <ele>362.2</ele>
        <time>2017-05-21T10:33:20Z</time>
      </trkpt>
      <trkpt lat="47.79314" lon="7.10065">
        <ele>363.5</ele>
        <time>2017-05-21T10:33:24Z</time>
      </trkpt>
      <trkpt lat="47.7931" lon="7.10034">
        <ele>363.9</ele>
        <time>2017-05-21T10:33:28Z</time>
      </trkpt>
      <trkpt lat="47.79308" lon="7.10003">
        <ele>363.9</ele>
        <time>2017-05-21T10:33:33Z</time>
      </trkpt>
      <trkpt lat="47.79309" lon="7.09961">
        <ele>364</ele>
        <time>2017-05-21T10:33:37Z</time>
      </trkpt>
      <trkpt lat="47.79309" lon="7.09928">
        <ele>364</ele>
        <time>2017-05-21T10:33:42Z</time>
      </trkpt>
      <trkpt lat="47.7931" lon="7.09895">
        <ele>364.1</ele>
        <time>2017-05-21T10:33:45Z</time>
      </trkpt>
      <trkpt lat="47.79314" lon="7.09863">
        <ele>364.5</ele>
        <time>2017-05-21T10:33:49Z</time>
      </trkpt>
      <trkpt lat="47.79321" lon="7.09833">
        <ele>365.5</ele>
        <time>2017-05-21T10:33:54Z</time>
      </trkpt>
      <trkpt lat="47.79327" lon="7.09804">
        <ele>366.2</ele>
        <time>2017-05-21T10:33:57Z</time>
      </trkpt>
      <trkpt lat="47.79333" lon="7.09777">
        <ele>366.8</ele>
        <time>2017-05-21T10:34:01Z</time>
      </trkpt>
      <trkpt lat="47.79339" lon="7.0975">
        <ele>367.7</ele>
        <time>2017-05-21T10:34:06Z</time>
      </trkpt>
      <trkpt lat="47.79345" lon="7.09724">
        <ele>368.5</ele>
        <time>2017-05-21T10:34:10Z</time>
      </trkpt>
      <trkpt lat="47.7935" lon="7.09698">
        <ele>369.5</ele>
        <time>2017-05-21T10:34:14Z</time>
      </trkpt>
      <trkpt lat="47.79357" lon="7.09673">
        <ele>370.2</ele>
        <time>2017-05-21T10:34:18Z</time>
      </trkpt>
      <trkpt lat="47.79372" lon="7.09629">
        <ele>371.5</ele>
        <time>2017-05-21T10:34:23Z</time>
      </trkpt>
      <trkpt lat="47.79384" lon="7.09601">
        <ele>372.7</ele>
        <time>2017-05-21T10:34:27Z</time>
      </trkpt>
      <trkpt lat="47.79398" lon="7.09575">
        <ele>374</ele>
        <time>2017-05-21T10:34:31Z</time>
      </trkpt>
      <trkpt lat="47.79412" lon="7.09555">
        <ele>374.3</ele>
        <time>2017-05-21T10:34:36Z</time>
      </trkpt>
      <trkpt lat="47.79431" lon="7.09539">
        <ele>375.5</ele>
        <time>2017-05-21T10:34:40Z</time>
      </trkpt>
      <trkpt lat="47.7945" lon="7.09524">
        <ele>376.9</ele>
        <time>2017-05-21T10:34:44Z</time>
      </trkpt>
      <trkpt lat="47.7947" lon="7.09499">
        <ele>378.3</ele>
        <time>2017-05-21T10:34:48Z</time>
      </trkpt>
      <trkpt lat="47.79486" lon="7.09468">
        <ele>379.3</ele>
        <time>2017-05-21T10:34:52Z</time>
      </trkpt>
      <trkpt lat="47.79495" lon="7.09441">
        <ele>379.8</ele>
        <time>2017-05-21T10:34:58Z</time>
      </trkpt>
      <trkpt lat="47.79502" lon="7.09413">
        <ele>380.7</ele>
        <time>2017-05-21T10:35:02Z</time>
      </trkpt>
      <trkpt lat="47.79509" lon="7.09383">
        <ele>381.7</ele>
        <time>2017-05-21T10:35:06Z</time>
      </trkpt>
      <trkpt lat="47.79514" lon="7.09355">
        <ele>382.6</ele>
        <time>2017-05-21T10:35:10Z</time>
      </trkpt>
      <trkpt lat="47.79523" lon="7.09309">
        <ele>384.5</ele>
        <time>2017-05-21T10:35:15Z</time>
      </trkpt>
      <trkpt lat="47.79528" lon="7.09279">
        <ele>385.5</ele>
        <time>2017-05-21T10:35:20Z</time>
      </trkpt>
      <trkpt lat="47.79535" lon="7.09249">
        <ele>386.5</ele>
        <time>2017-05-21T10:35:23Z</time>
      </trkpt>
      <trkpt lat="47.79538" lon="7.09227">
        <ele>387.5</ele>
        <time>2017-05-21T10:35:27Z</time>
      </trkpt>
      <trkpt lat="47.79541" lon="7.09193">
        <ele>389.5</ele>
        <time>2017-05-21T10:35:32Z</time>
      </trkpt>
      <trkpt lat="47.79544" lon="7.0917">
        <ele>390.9</ele>
        <time>2017-05-21T10:35:36Z</time>
      </trkpt>
      <trkpt lat="47.79547" lon="7.09139">
        <ele>392.7</ele>
        <time>2017-05-21T10:35:40Z</time>
      </trkpt>
      <trkpt lat="47.79551" lon="7.09113">
        <ele>394.8</ele>
        <time>2017-05-21T10:35:44Z</time>
      </trkpt>
      <trkpt lat="47.79556" lon="7.09089">
        <ele>396.2</ele>
        <time>2017-05-21T10:35:48Z</time>
      </trkpt>
      <trkpt lat="47.79561" lon="7.09073">
        <ele>396.6</ele>
        <time>2017-05-21T10:35:52Z</time>
      </trkpt>
      <trkpt lat="47.79572" lon="7.09049">
        <ele>397.6</ele>
        <time>2017-05-21T10:35:56Z</time>
      </trkpt>
      <trkpt lat="47.7958" lon="7.09025">
        <ele>398.7</ele>
        <time>2017-05-21T10:36:00Z</time>
      </trkpt>
      <trkpt lat="47.79588" lon="7.09002">
        <ele>399.8</ele>
        <time>2017-05-21T10:36:05Z</time>
      </trkpt>
      <trkpt lat="47.79597" lon="7.08975">
        <ele>402</ele>
        <time>2017-05-21T10:36:09Z</time>
      </trkpt>
      <trkpt lat="47.79605" lon="7.08962">
        <ele>402.9</ele>
        <time>2017-05-21T10:36:13Z</time>
      </trkpt>
      <trkpt lat="47.79617" lon="7.08942">
        <ele>403.8</ele>
        <time>2017-05-21T10:36:18Z</time>
      </trkpt>
      <trkpt lat="47.79626" lon="7.08917">
        <ele>405.2</ele>
        <time>2017-05-21T10:36:22Z</time>
      </trkpt>
      <trkpt lat="47.79632" lon="7.08902">
        <ele>406.8</ele>
        <time>2017-05-21T10:36:27Z</time>
      </trkpt>
      <trkpt lat="47.79645" lon="7.0889">
        <ele>409</ele>
        <time>2017-05-21T10:36:31Z</time>
      </trkpt>
      <trkpt lat="47.79653" lon="7.08907">
        <ele>409.6</ele>
        <time>2017-05-21T10:36:35Z</time>
      </trkpt>
      <trkpt lat="47.79654" lon="7.08928">
        <ele>410</ele>
        <time>2017-05-21T10:36:39Z</time>
      </trkpt>
      <trkpt lat="47.79655" lon="7.0895">
        <ele>410.7</ele>
        <time>2017-05-21T10:36:44Z</time>
      </trkpt>
      <trkpt lat="47.79658" lon="7.08977">
        <ele>411</ele>
        <time>2017-05-21T10:36:48Z</time>
      </trkpt>
      <trkpt lat="47.79658" lon="7.08996">
        <ele>411.5</ele>
        <time>2017-05-21T10:36:52Z</time>
      </trkpt>
      <trkpt lat="47.79662" lon="7.09013">
        <ele>412.7</ele>
        <time>2017-05-21T10:36:56Z</time>
      </trkpt>
      <trkpt lat="47.79673" lon="7.09013">
        <ele>414.4</ele>
        <time>2017-05-21T10:37:00Z</time>
      </trkpt>
      <trkpt lat="47.79678" lon="7.09">
        <ele>415.2</ele>
        <time>2017-05-21T10:37:04Z</time>
      </trkpt>
      <trkpt lat="47.79677" lon="7.0898">
        <ele>416</ele>
        <time>2017-05-21T10:37:08Z</time>
      </trkpt>
      <trkpt lat="47.79677" lon="7.08945">
        <ele>418.4</ele>
        <time>2017-05-21T10:37:14Z</time>
      </trkpt>
      <trkpt lat="47.79682" lon="7.08923">
        <ele>419.5</ele>
        <time>2017-05-21T10:37:17Z</time>
      </trkpt>
      <trkpt lat="47.79685" lon="7.08911">
        <ele>419.5</ele>
        <time>2017-05-21T10:37:21Z</time>
      </trkpt>
      <trkpt lat="47.79693" lon="7.08884">
        <ele>421.2</ele>
        <time>2017-05-21T10:37:25Z</time>
      </trkpt>
      <trkpt lat="47.79698" lon="7.08866">
        <ele>422.7</ele>
        <time>2017-05-21T10:37:29Z</time>
      </trkpt>
      <trkpt lat="47.79704" lon="7.08846">
        <ele>424</ele>
        <time>2017-05-21T10:37:33Z</time>
      </trkpt>
      <trkpt lat="47.79712" lon="7.08829">
        <ele>426</ele>
        <time>2017-05-21T10:37:37Z</time>
      </trkpt>
      <trkpt lat="47.79719" lon="7.0881">
        <ele>427.1</ele>
        <time>2017-05-21T10:37:41Z</time>
      </trkpt>
      <trkpt lat="47.79725" lon="7.08787">
        <ele>427.6</ele>
        <time>2017-05-21T10:37:45Z</time>
      </trkpt>
      <trkpt lat="47.79731" lon="7.08759">
        <ele>428.4</ele>
        <time>2017-05-21T10:37:49Z</time>
      </trkpt>
      <trkpt lat="47.79736" lon="7.08729">
        <ele>429.3</ele>
        <time>2017-05-21T10:37:53Z</time>
      </trkpt>
      <trkpt lat="47.79741" lon="7.08701">
        <ele>429.8</ele>
        <time>2017-05-21T10:37:58Z</time>
      </trkpt>
      <trkpt lat="47.79743" lon="7.08693">
        <ele>430.3</ele>
        <time>2017-05-21T10:38:02Z</time>
      </trkpt>
      <trkpt lat="47.79746" lon="7.08658">
        <ele>431.8</ele>
        <time>2017-05-21T10:38:07Z</time>
      </trkpt>
      <trkpt lat="47.79753" lon="7.08625">
        <ele>432.6</ele>
        <time>2017-05-21T10:38:11Z</time>
      </trkpt>
      <trkpt lat="47.79756" lon="7.08605">
        <ele>433.8</ele>
        <time>2017-05-21T10:38:15Z</time>
      </trkpt>
      <trkpt lat="47.79764" lon="7.08574">
        <ele>434.8</ele>
        <time>2017-05-21T10:38:20Z</time>
      </trkpt>
      <trkpt lat="47.7977" lon="7.0855">
        <ele>435</ele>
        <time>2017-05-21T10:38:24Z</time>
      </trkpt>
      <trkpt lat="47.79776" lon="7.08526">
        <ele>436.1</ele>
        <time>2017-05-21T10:38:28Z</time>
      </trkpt>
      <trkpt lat="47.79779" lon="7.08504">
        <ele>436.9</ele>
        <time>2017-05-21T10:38:33Z</time>
      </trkpt>
      <trkpt lat="47.79766" lon="7.08479">
        <ele>437.7</ele>
        <time>2017-05-21T10:38:37Z</time>
      </trkpt>
      <trkpt lat="47.79753" lon="7.08476">
        <ele>438.6</ele>
        <time>2017-05-21T10:38:41Z</time>
      </trkpt>
      <trkpt lat="47.79746" lon="7.08478">
        <ele>439.4</ele>
        <time>2017-05-21T10:38:45Z</time>
      </trkpt>
      <trkpt lat="47.79732" lon="7.08484">
        <ele>440.7</ele>
        <time>2017-05-21T10:38:49Z</time>
      </trkpt>
      <trkpt lat="47.79712" lon="7.085">
        <ele>443.1</ele>
        <time>2017-05-21T10:38:54Z</time>
      </trkpt>
      <trkpt lat="47.79706" lon="7.08505">
        <ele>443.6</ele>
        <time>2017-05-21T10:38:58Z</time>
      </trkpt>
      <trkpt lat="47.79692" lon="7.08517">
        <ele>444.1</ele>
        <time>2017-05-21T10:39:02Z</time>
      </trkpt>
      <trkpt lat="47.7968" lon="7.08523">
        <ele>444.8</ele>
        <time>2017-05-21T10:39:06Z</time>
      </trkpt>
      <trkpt lat="47.79667" lon="7.08526">
        <ele>444.8</ele>
        <time>2017-05-21T10:39:10Z</time>
      </trkpt>
      <trkpt lat="47.79649" lon="7.08519">
        <ele>444</ele>
        <time>2017-05-21T10:39:15Z</time>
      </trkpt>
      <trkpt lat="47.79636" lon="7.08507">
        <ele>444.4</ele>
        <time>2017-05-21T10:39:19Z</time>
      </trkpt>
      <trkpt lat="47.79625" lon="7.08486">
        <ele>445.7</ele>
        <time>2017-05-21T10:39:23Z</time>
      </trkpt>
      <trkpt lat="47.79619" lon="7.08466">
        <ele>445.9</ele>
        <time>2017-05-21T10:39:27Z</time>
      </trkpt>
      <trkpt lat="47.79611" lon="7.08449">
        <ele>447.8</ele>
        <time>2017-05-21T10:39:31Z</time>
      </trkpt>
      <trkpt lat="47.79605" lon="7.08436">
        <ele>448.9</ele>
        <time>2017-05-21T10:39:35Z</time>
      </trkpt>
      <trkpt lat="47.79596" lon="7.08418">
        <ele>450.7</ele>
        <time>2017-05-21T10:39:39Z</time>
      </trkpt>
      <trkpt lat="47.79589" lon="7.08404">
        <ele>451.8</ele>
        <time>2017-05-21T10:39:43Z</time>
      </trkpt>
      <trkpt lat="47.79574" lon="7.08398">
        <ele>452.6</ele>
        <time>2017-05-21T10:39:48Z</time>
      </trkpt>
      <trkpt lat="47.7956" lon="7.08414">
        <ele>453.6</ele>
        <time>2017-05-21T10:39:52Z</time>
      </trkpt>
      <trkpt lat="47.79553" lon="7.08435">
        <ele>454.2</ele>
        <time>2017-05-21T10:39:56Z</time>
      </trkpt>
      <trkpt lat="47.79547" lon="7.0845">
        <ele>454.9</ele>
        <time>2017-05-21T10:40:00Z</time>
      </trkpt>
      <trkpt lat="47.79538" lon="7.08464">
        <ele>456</ele>
        <time>2017-05-21T10:40:05Z</time>
      </trkpt>
      <trkpt lat="47.79523" lon="7.08476">
        <ele>457.4</ele>
        <time>2017-05-21T10:40:09Z</time>
      </trkpt>
      <trkpt lat="47.79508" lon="7.08493">
        <ele>458.3</ele>
        <time>2017-05-21T10:40:13Z</time>
      </trkpt>
      <trkpt lat="47.79485" lon="7.08509">
        <ele>459.5</ele>
        <time>2017-05-21T10:40:18Z</time>
      </trkpt>
      <trkpt lat="47.79481" lon="7.08505">
        <ele>460.5</ele>
        <time>2017-05-21T10:40:23Z</time>
      </trkpt>
      <trkpt lat="47.79483" lon="7.08483">
        <ele>462.5</ele>
        <time>2017-05-21T10:40:27Z</time>
      </trkpt>
      <trkpt lat="47.79493" lon="7.08465">
        <ele>462.6</ele>
        <time>2017-05-21T10:40:31Z</time>
      </trkpt>
      <trkpt lat="47.79509" lon="7.08442">
        <ele>463.7</ele>
        <time>2017-05-21T10:40:35Z</time>
      </trkpt>
      <trkpt lat="47.7952" lon="7.08426">
        <ele>464.9</ele>
        <time>2017-05-21T10:40:40Z</time>
      </trkpt>
      <trkpt lat="47.7953" lon="7.08409">
        <ele>466.2</ele>
        <time>2017-05-21T10:40:44Z</time>
      </trkpt>
      <trkpt lat="47.79534" lon="7.0839">
        <ele>467.5</ele>
        <time>2017-05-21T10:40:48Z</time>
      </trkpt>
      <trkpt lat="47.79533" lon="7.0836">
        <ele>468.5</ele>
        <time>2017-05-21T10:40:53Z</time>
      </trkpt>
      <trkpt lat="47.79534" lon="7.08335">
        <ele>469.6</ele>
        <time>2017-05-21T10:40:57Z</time>
      </trkpt>
      <trkpt lat="47.79531" lon="7.08312">
        <ele>470.8</ele>
        <time>2017-05-21T10:41:01Z</time>
      </trkpt>
      <trkpt lat="47.79528" lon="7.08291">
        <ele>470.8</ele>
        <time>2017-05-21T10:41:05Z</time>
      </trkpt>
      <trkpt lat="47.79521" lon="7.08276">
        <ele>471.5</ele>
        <time>2017-05-21T10:41:09Z</time>
      </trkpt>
      <trkpt lat="47.79516" lon="7.08258">
        <ele>473.9</ele>
        <time>2017-05-21T10:41:13Z</time>
      </trkpt>
      <trkpt lat="47.79509" lon="7.08239">
        <ele>476</ele>
        <time>2017-05-21T10:41:17Z</time>
      </trkpt>
      <trkpt lat="47.795" lon="7.08213">
        <ele>477.8</ele>
        <time>2017-05-21T10:41:21Z</time>
      </trkpt>
      <trkpt lat="47.79494" lon="7.08186">
        <ele>479.6</ele>
        <time>2017-05-21T10:41:26Z</time>
      </trkpt>
      <trkpt lat="47.79492" lon="7.0815">
        <ele>481.6</ele>
        <time>2017-05-21T10:41:30Z</time>
      </trkpt>
      <trkpt lat="47.7949" lon="7.08117">
        <ele>483.1</ele>
        <time>2017-05-21T10:41:34Z</time>
      </trkpt>
      <trkpt lat="47.79491" lon="7.08083">
        <ele>484.3</ele>
        <time>2017-05-21T10:41:38Z</time>
      </trkpt>
      <trkpt lat="47.7949" lon="7.08047">
        <ele>485.6</ele>
        <time>2017-05-21T10:41:42Z</time>
      </trkpt>
      <trkpt lat="47.79489" lon="7.08014">
        <ele>485.9</ele>
        <time>2017-05-21T10:41:47Z</time>
      </trkpt>
      <trkpt lat="47.79485" lon="7.07981">
        <ele>486.9</ele>
        <time>2017-05-21T10:41:51Z</time>
      </trkpt>
      <trkpt lat="47.79471" lon="7.07936">
        <ele>486.6</ele>
        <time>2017-05-21T10:41:56Z</time>
      </trkpt>
      <trkpt lat="47.79462" lon="7.07905">
        <ele>486.4</ele>
        <time>2017-05-21T10:42:00Z</time>
      </trkpt>
      <trkpt lat="47.79449" lon="7.07868">
        <ele>485.1</ele>
        <time>2017-05-21T10:42:04Z</time>
      </trkpt>
      <trkpt lat="47.79439" lon="7.07825">
        <ele>483.9</ele>
        <time>2017-05-21T10:42:09Z</time>
      </trkpt>
      <trkpt lat="47.79428" lon="7.07763">
        <ele>482.3</ele>
        <time>2017-05-21T10:42:13Z</time>
      </trkpt>
      <trkpt lat="47.79426" lon="7.0772">
        <ele>481.1</ele>
        <time>2017-05-21T10:42:17Z</time>
      </trkpt>
      <trkpt lat="47.79459" lon="7.07625">
        <ele>472.9</ele>
        <time>2017-05-21T10:42:22Z</time>
      </trkpt>
      <trkpt lat="47.79476" lon="7.07601">
        <ele>470.9</ele>
        <time>2017-05-21T10:42:26Z</time>
      </trkpt>
      <trkpt lat="47.79521" lon="7.07547">
        <ele>469.1</ele>
        <time>2017-05-21T10:42:30Z</time>
      </trkpt>
      <trkpt lat="47.79554" lon="7.07509">
        <ele>468</ele>
        <time>2017-05-21T10:42:34Z</time>
      </trkpt>
      <trkpt lat="47.79547" lon="7.0745">
        <ele>468.3</ele>
        <time>2017-05-21T10:42:39Z</time>
      </trkpt>
      <trkpt lat="47.79519" lon="7.07454">
        <ele>467.6</ele>
        <time>2017-05-21T10:42:43Z</time>
      </trkpt>
      <trkpt lat="47.79494" lon="7.07471">
        <ele>467.5</ele>
        <time>2017-05-21T10:42:47Z</time>
      </trkpt>
      <trkpt lat="47.79477" lon="7.07485">
        <ele>467.2</ele>
        <time>2017-05-21T10:42:51Z</time>
      </trkpt>
      <trkpt lat="47.79462" lon="7.07494">
        <ele>467.6</ele>
        <time>2017-05-21T10:42:56Z</time>
      </trkpt>
      <trkpt lat="47.79444" lon="7.07505">
        <ele>467.6</ele>
        <time>2017-05-21T10:43:00Z</time>
      </trkpt>
      <trkpt lat="47.7943" lon="7.07512">
        <ele>467.8</ele>
        <time>2017-05-21T10:43:05Z</time>
      </trkpt>
      <trkpt lat="47.79419" lon="7.07517">
        <ele>467.8</ele>
        <time>2017-05-21T10:43:08Z</time>
      </trkpt>
      <trkpt lat="47.79406" lon="7.07522">
        <ele>467.3</ele>
        <time>2017-05-21T10:43:12Z</time>
      </trkpt>
      <trkpt lat="47.79395" lon="7.07527">
        <ele>466.5</ele>
        <time>2017-05-21T10:43:16Z</time>
      </trkpt>
      <trkpt lat="47.79386" lon="7.07529">
        <ele>465.8</ele>
        <time>2017-05-21T10:43:20Z</time>
      </trkpt>
      <trkpt lat="47.79364" lon="7.07532">
        <ele>466.1</ele>
        <time>2017-05-21T10:43:24Z</time>
      </trkpt>
      <trkpt lat="47.79346" lon="7.07536">
        <ele>467.2</ele>
        <time>2017-05-21T10:43:29Z</time>
      </trkpt>
      <trkpt lat="47.79332" lon="7.0754">
        <ele>468.5</ele>
        <time>2017-05-21T10:43:33Z</time>
      </trkpt>
      <trkpt lat="47.79315" lon="7.07545">
        <ele>471.2</ele>
        <time>2017-05-21T10:43:38Z</time>
      </trkpt>
      <trkpt lat="47.79304" lon="7.07545">
        <ele>474.6</ele>
        <time>2017-05-21T10:43:42Z</time>
      </trkpt>
      <trkpt lat="47.79294" lon="7.07539">
        <ele>475.7</ele>
        <time>2017-05-21T10:43:46Z</time>
      </trkpt>
      <trkpt lat="47.7928" lon="7.07528">
        <ele>477.2</ele>
        <time>2017-05-21T10:43:50Z</time>
      </trkpt>
      <trkpt lat="47.7926" lon="7.07516">
        <ele>480.4</ele>
        <time>2017-05-21T10:43:54Z</time>
      </trkpt>
      <trkpt lat="47.79245" lon="7.07513">
        <ele>482.2</ele>
        <time>2017-05-21T10:43:59Z</time>
      </trkpt>
      <trkpt lat="47.79232" lon="7.07508">
        <ele>484.1</ele>
        <time>2017-05-21T10:44:03Z</time>
      </trkpt>
      <trkpt lat="47.79217" lon="7.07502">
        <ele>484</ele>
        <time>2017-05-21T10:44:07Z</time>
      </trkpt>
      <trkpt lat="47.79189" lon="7.07482">
        <ele>483.7</ele>
        <time>2017-05-21T10:44:12Z</time>
      </trkpt>
      <trkpt lat="47.79174" lon="7.07464">
        <ele>484.6</ele>
        <time>2017-05-21T10:44:16Z</time>
      </trkpt>
      <trkpt lat="47.79162" lon="7.0745">
        <ele>485.4</ele>
        <time>2017-05-21T10:44:21Z</time>
      </trkpt>
      <trkpt lat="47.79143" lon="7.07424">
        <ele>487.7</ele>
        <time>2017-05-21T10:44:25Z</time>
      </trkpt>
      <trkpt lat="47.79124" lon="7.074">
        <ele>489.6</ele>
        <time>2017-05-21T10:44:29Z</time>
      </trkpt>
      <trkpt lat="47.79117" lon="7.07392">
        <ele>489.8</ele>
        <time>2017-05-21T10:44:33Z</time>
      </trkpt>
      <trkpt lat="47.79101" lon="7.07365">
        <ele>490.2</ele>
        <time>2017-05-21T10:44:37Z</time>
      </trkpt>
      <trkpt lat="47.79084" lon="7.0734">
        <ele>491.5</ele>
        <time>2017-05-21T10:44:41Z</time>
      </trkpt>
      <trkpt lat="47.7907" lon="7.07321">
        <ele>492.7</ele>
        <time>2017-05-21T10:44:46Z</time>
      </trkpt>
      <trkpt lat="47.79048" lon="7.07304">
        <ele>493.8</ele>
        <time>2017-05-21T10:44:50Z</time>
      </trkpt>
      <trkpt lat="47.79029" lon="7.07309">
        <ele>495.2</ele>
        <time>2017-05-21T10:44:54Z</time>
      </trkpt>
      <trkpt lat="47.79018" lon="7.07322">
        <ele>496.2</ele>
        <time>2017-05-21T10:44:58Z</time>
      </trkpt>
      <trkpt lat="47.79003" lon="7.07348">
        <ele>497.6</ele>
        <time>2017-05-21T10:45:02Z</time>
      </trkpt>
      <trkpt lat="47.78986" lon="7.07366">
        <ele>498.5</ele>
        <time>2017-05-21T10:45:07Z</time>
      </trkpt>
      <trkpt lat="47.78963" lon="7.07357">
        <ele>499.8</ele>
        <time>2017-05-21T10:45:11Z</time>
      </trkpt>
      <trkpt lat="47.78954" lon="7.0733">
        <ele>500.1</ele>
        <time>2017-05-21T10:45:15Z</time>
      </trkpt>
      <trkpt lat="47.78947" lon="7.07297">
        <ele>500.3</ele>
        <time>2017-05-21T10:45:20Z</time>
      </trkpt>
      <trkpt lat="47.78942" lon="7.07263">
        <ele>500.4</ele>
        <time>2017-05-21T10:45:23Z</time>
      </trkpt>
      <trkpt lat="47.78938" lon="7.07227">
        <ele>500.9</ele>
        <time>2017-05-21T10:45:27Z</time>
      </trkpt>
      <trkpt lat="47.78937" lon="7.07189">
        <ele>500.9</ele>
        <time>2017-05-21T10:45:32Z</time>
      </trkpt>
      <trkpt lat="47.78937" lon="7.07151">
        <ele>501.2</ele>
        <time>2017-05-21T10:45:36Z</time>
      </trkpt>
      <trkpt lat="47.78936" lon="7.07102">
        <ele>500.9</ele>
        <time>2017-05-21T10:45:41Z</time>
      </trkpt>
      <trkpt lat="47.78938" lon="7.07062">
        <ele>500.5</ele>
        <time>2017-05-21T10:45:44Z</time>
      </trkpt>
      <trkpt lat="47.78944" lon="7.07024">
        <ele>500</ele>
        <time>2017-05-21T10:45:48Z</time>
      </trkpt>
      <trkpt lat="47.78957" lon="7.06992">
        <ele>499.9</ele>
        <time>2017-05-21T10:45:53Z</time>
      </trkpt>
      <trkpt lat="47.7898" lon="7.06971">
        <ele>498.5</ele>
        <time>2017-05-21T10:45:57Z</time>
      </trkpt>
      <trkpt lat="47.78993" lon="7.06911">
        <ele>496.7</ele>
        <time>2017-05-21T10:46:03Z</time>
      </trkpt>
      <trkpt lat="47.78986" lon="7.0689">
        <ele>495.4</ele>
        <time>2017-05-21T10:46:06Z</time>
      </trkpt>
      <trkpt lat="47.78982" lon="7.06905">
        <ele>495.2</ele>
        <time>2017-05-21T10:46:11Z</time>
      </trkpt>
      <trkpt lat="47.78967" lon="7.06929">
        <ele>494.4</ele>
        <time>2017-05-21T10:46:15Z</time>
      </trkpt>
      <trkpt lat="47.78932" lon="7.06977">
        <ele>492.1</ele>
        <time>2017-05-21T10:46:20Z</time>
      </trkpt>
      <trkpt lat="47.78903" lon="7.07014">
        <ele>490.6</ele>
        <time>2017-05-21T10:46:24Z</time>
      </trkpt>
      <trkpt lat="47.78872" lon="7.0706">
        <ele>487.7</ele>
        <time>2017-05-21T10:46:29Z</time>
      </trkpt>
      <trkpt lat="47.78856" lon="7.07123">
        <ele>483.4</ele>
        <time>2017-05-21T10:46:33Z</time>
      </trkpt>
      <trkpt lat="47.7883" lon="7.07175">
        <ele>477.8</ele>
        <time>2017-05-21T10:46:37Z</time>
      </trkpt>
      <trkpt lat="47.78798" lon="7.07228">
        <ele>467.9</ele>
        <time>2017-05-21T10:46:41Z</time>
      </trkpt>
      <trkpt lat="47.78783" lon="7.07288">
        <ele>462.7</ele>
        <time>2017-05-21T10:46:45Z</time>
      </trkpt>
      <trkpt lat="47.78764" lon="7.07354">
        <ele>457.9</ele>
        <time>2017-05-21T10:46:50Z</time>
      </trkpt>
      <trkpt lat="47.78753" lon="7.07407">
        <ele>455.6</ele>
        <time>2017-05-21T10:46:53Z</time>
      </trkpt>
      <trkpt lat="47.78737" lon="7.07485">
        <ele>451.3</ele>
        <time>2017-05-21T10:46:57Z</time>
      </trkpt>
      <trkpt lat="47.78731" lon="7.07583">
        <ele>446.4</ele>
        <time>2017-05-21T10:47:02Z</time>
      </trkpt>
      <trkpt lat="47.78717" lon="7.07653">
        <ele>443.4</ele>
        <time>2017-05-21T10:47:06Z</time>
      </trkpt>
      <trkpt lat="47.7869" lon="7.07734">
        <ele>439.8</ele>
        <time>2017-05-21T10:47:10Z</time>
      </trkpt>
      <trkpt lat="47.78672" lon="7.07782">
        <ele>437.7</ele>
        <time>2017-05-21T10:47:14Z</time>
      </trkpt>
      <trkpt lat="47.7865" lon="7.07845">
        <ele>432.3</ele>
        <time>2017-05-21T10:47:18Z</time>
      </trkpt>
      <trkpt lat="47.78634" lon="7.07911">
        <ele>427.7</ele>
        <time>2017-05-21T10:47:23Z</time>
      </trkpt>
      <trkpt lat="47.78633" lon="7.07996">
        <ele>423</ele>
        <time>2017-05-21T10:47:27Z</time>
      </trkpt>
      <trkpt lat="47.78629" lon="7.08044">
        <ele>419.5</ele>
        <time>2017-05-21T10:47:31Z</time>
      </trkpt>
      <trkpt lat="47.78628" lon="7.08143">
        <ele>414.8</ele>
        <time>2017-05-21T10:47:36Z</time>
      </trkpt>
      <trkpt lat="47.7863" lon="7.0823">
        <ele>410.9</ele>
        <time>2017-05-21T10:47:40Z</time>
      </trkpt>
      <trkpt lat="47.78621" lon="7.08295">
        <ele>407.4</ele>
        <time>2017-05-21T10:47:44Z</time>
      </trkpt>
      <trkpt lat="47.78624" lon="7.083">
        <ele>406.7</ele>
        <time>2017-05-21T10:47:48Z</time>
      </trkpt>
      <trkpt lat="47.78625" lon="7.083">
        <ele>407.1</ele>
        <time>2017-05-21T10:47:53Z</time>
      </trkpt>
      <trkpt lat="47.78626" lon="7.08299">
        <ele>406.6</ele>
        <time>2017-05-21T10:47:57Z</time>
      </trkpt>
      <trkpt lat="47.78625" lon="7.083">
        <ele>407.2</ele>
        <time>2017-05-21T10:48:02Z</time>
      </trkpt>
      <trkpt lat="47.78625" lon="7.083">
        <ele>407.9</ele>
        <time>2017-05-21T10:48:06Z</time>
      </trkpt>
      <trkpt lat="47.78625" lon="7.083">
        <ele>408.5</ele>
        <time>2017-05-21T10:48:10Z</time>
      </trkpt>
      <trkpt lat="47.78621" lon="7.08305">
        <ele>408.5</ele>
        <time>2017-05-21T10:48:14Z</time>
      </trkpt>
      <trkpt lat="47.78615" lon="7.08321">
        <ele>407.3</ele>
        <time>2017-05-21T10:48:19Z</time>
      </trkpt>
      <trkpt lat="47.78612" lon="7.0834">
        <ele>405.4</ele>
        <time>2017-05-21T10:48:23Z</time>
      </trkpt>
      <trkpt lat="47.78616" lon="7.08376">
        <ele>401.5</ele>
        <time>2017-05-21T10:48:27Z</time>
      </trkpt>
      <trkpt lat="47.78624" lon="7.08417">
        <ele>400.4</ele>
        <time>2017-05-21T10:48:31Z</time>
      </trkpt>
      <trkpt lat="47.78621" lon="7.08449">
        <ele>399.1</ele>
        <time>2017-05-21T10:48:36Z</time>
      </trkpt>
      <trkpt lat="47.78618" lon="7.08488">
        <ele>396.5</ele>
        <time>2017-05-21T10:48:40Z</time>
      </trkpt>
      <trkpt lat="47.78613" lon="7.08523">
        <ele>394.8</ele>
        <time>2017-05-21T10:48:45Z</time>
      </trkpt>
      <trkpt lat="47.78605" lon="7.08556">
        <ele>393.7</ele>
        <time>2017-05-21T10:48:48Z</time>
      </trkpt>
      <trkpt lat="47.78595" lon="7.08577">
        <ele>393.7</ele>
        <time>2017-05-21T10:48:52Z</time>
      </trkpt>
      <trkpt lat="47.78572" lon="7.08609">
        <ele>392.6</ele>
        <time>2017-05-21T10:48:57Z</time>
      </trkpt>
      <trkpt lat="47.78549" lon="7.08643">
        <ele>391.8</ele>
        <time>2017-05-21T10:49:01Z</time>
      </trkpt>
      <trkpt lat="47.78529" lon="7.08673">
        <ele>390.8</ele>
        <time>2017-05-21T10:49:05Z</time>
      </trkpt>
      <trkpt lat="47.78514" lon="7.08698">
        <ele>390.1</ele>
        <time>2017-05-21T10:49:10Z</time>
      </trkpt>
      <trkpt lat="47.78485" lon="7.08741">
        <ele>388.9</ele>
        <time>2017-05-21T10:49:14Z</time>
      </trkpt>
      <trkpt lat="47.78457" lon="7.08731">
        <ele>386.5</ele>
        <time>2017-05-21T10:49:18Z</time>
      </trkpt>
      <trkpt lat="47.78413" lon="7.08738">
        <ele>383.8</ele>
        <time>2017-05-21T10:49:23Z</time>
      </trkpt>
      <trkpt lat="47.78387" lon="7.08765">
        <ele>381.9</ele>
        <time>2017-05-21T10:49:27Z</time>
      </trkpt>
      <trkpt lat="47.7836" lon="7.08786">
        <ele>379.7</ele>
        <time>2017-05-21T10:49:32Z</time>
      </trkpt>
      <trkpt lat="47.78332" lon="7.08804">
        <ele>379.1</ele>
        <time>2017-05-21T10:49:36Z</time>
      </trkpt>
      <trkpt lat="47.7829" lon="7.08835">
        <ele>378.2</ele>
        <time>2017-05-21T10:49:42Z</time>
      </trkpt>
      <trkpt lat="47.78266" lon="7.08859">
        <ele>376.1</ele>
        <time>2017-05-21T10:49:45Z</time>
      </trkpt>
      <trkpt lat="47.78245" lon="7.08888">
        <ele>376</ele>
        <time>2017-05-21T10:49:49Z</time>
      </trkpt>
      <trkpt lat="47.78235" lon="7.08901">
        <ele>375.7</ele>
        <time>2017-05-21T10:49:53Z</time>
      </trkpt>
      <trkpt lat="47.78207" lon="7.08926">
        <ele>375</ele>
        <time>2017-05-21T10:49:58Z</time>
      </trkpt>
      <trkpt lat="47.7817" lon="7.08918">
        <ele>375.3</ele>
        <time>2017-05-21T10:50:03Z</time>
      </trkpt>
      <trkpt lat="47.7816" lon="7.08911">
        <ele>374.9</ele>
        <time>2017-05-21T10:50:06Z</time>
      </trkpt>
      <trkpt lat="47.78147" lon="7.08923">
        <ele>374.9</ele>
        <time>2017-05-21T10:50:10Z</time>
      </trkpt>
      <trkpt lat="47.78133" lon="7.08952">
        <ele>374.2</ele>
        <time>2017-05-21T10:50:14Z</time>
      </trkpt>
      <trkpt lat="47.78115" lon="7.08996">
        <ele>373.1</ele>
        <time>2017-05-21T10:50:18Z</time>
      </trkpt>
      <trkpt lat="47.78101" lon="7.09035">
        <ele>372.1</ele>
        <time>2017-05-21T10:50:22Z</time>
      </trkpt>
      <trkpt lat="47.78081" lon="7.09071">
        <ele>371.4</ele>
        <time>2017-05-21T10:50:27Z</time>
      </trkpt>
      <trkpt lat="47.78054" lon="7.0911">
        <ele>371</ele>
        <time>2017-05-21T10:50:31Z</time>
      </trkpt>
      <trkpt lat="47.7803" lon="7.09139">
        <ele>370.2</ele>
        <time>2017-05-21T10:50:36Z</time>
      </trkpt>
      <trkpt lat="47.7801" lon="7.09159">
        <ele>369.6</ele>
        <time>2017-05-21T10:50:39Z</time>
      </trkpt>
      <trkpt lat="47.77976" lon="7.09189">
        <ele>369.5</ele>
        <time>2017-05-21T10:50:43Z</time>
      </trkpt>
      <trkpt lat="47.77948" lon="7.09211">
        <ele>369.3</ele>
        <time>2017-05-21T10:50:48Z</time>
      </trkpt>
      <trkpt lat="47.7792" lon="7.09233">
        <ele>368.9</ele>
        <time>2017-05-21T10:50:52Z</time>
      </trkpt>
      <trkpt lat="47.77903" lon="7.09262">
        <ele>368.2</ele>
        <time>2017-05-21T10:50:56Z</time>
      </trkpt>
      <trkpt lat="47.77925" lon="7.09302">
        <ele>367.8</ele>
        <time>2017-05-21T10:51:01Z</time>
      </trkpt>
      <trkpt lat="47.77943" lon="7.09323">
        <ele>368.3</ele>
        <time>2017-05-21T10:51:05Z</time>
      </trkpt>
      <trkpt lat="47.77962" lon="7.0934">
        <ele>368.3</ele>
        <time>2017-05-21T10:51:10Z</time>
      </trkpt>
      <trkpt lat="47.77979" lon="7.09356">
        <ele>367.1</ele>
        <time>2017-05-21T10:51:13Z</time>
      </trkpt>
      <trkpt lat="47.77991" lon="7.09376">
        <ele>365.9</ele>
        <time>2017-05-21T10:51:18Z</time>
      </trkpt>
      <trkpt lat="47.77995" lon="7.09399">
        <ele>365.3</ele>
        <time>2017-05-21T10:51:22Z</time>
      </trkpt>
      <trkpt lat="47.77999" lon="7.09437">
        <ele>365.6</ele>
        <time>2017-05-21T10:51:27Z</time>
      </trkpt>
      <trkpt lat="47.78001" lon="7.0946">
        <ele>365.6</ele>
        <time>2017-05-21T10:51:32Z</time>
      </trkpt>
      <trkpt lat="47.78004" lon="7.09482">
        <ele>365.9</ele>
        <time>2017-05-21T10:51:36Z</time>
      </trkpt>
      <trkpt lat="47.78005" lon="7.09493">
        <ele>366.5</ele>
        <time>2017-05-21T10:51:40Z</time>
      </trkpt>
      <trkpt lat="47.78013" lon="7.09524">
        <ele>368.3</ele>
        <time>2017-05-21T10:51:44Z</time>
      </trkpt>
      <trkpt lat="47.7802" lon="7.09544">
        <ele>369.3</ele>
        <time>2017-05-21T10:51:48Z</time>
      </trkpt>
      <trkpt lat="47.78029" lon="7.09571">
        <ele>370</ele>
        <time>2017-05-21T10:51:52Z</time>
      </trkpt>
      <trkpt lat="47.78034" lon="7.09599">
        <ele>370.4</ele>
        <time>2017-05-21T10:51:56Z</time>
      </trkpt>
      <trkpt lat="47.78039" lon="7.09621">
        <ele>370.3</ele>
        <time>2017-05-21T10:52:00Z</time>
      </trkpt>
      <trkpt lat="47.78045" lon="7.09656">
        <ele>369.6</ele>
        <time>2017-05-21T10:52:04Z</time>
      </trkpt>
      <trkpt lat="47.78053" lon="7.09702">
        <ele>368.5</ele>
        <time>2017-05-21T10:52:09Z</time>
      </trkpt>
      <trkpt lat="47.78062" lon="7.09738">
        <ele>368.2</ele>
        <time>2017-05-21T10:52:13Z</time>
      </trkpt>
      <trkpt lat="47.78064" lon="7.09767">
        <ele>367.9</ele>
        <time>2017-05-21T10:52:18Z</time>
      </trkpt>
      <trkpt lat="47.78074" lon="7.09787">
        <ele>367.9</ele>
        <time>2017-05-21T10:52:21Z</time>
      </trkpt>
      <trkpt lat="47.78082" lon="7.098">
        <ele>368</ele>
        <time>2017-05-21T10:52:25Z</time>
      </trkpt>
      <trkpt lat="47.78106" lon="7.09835">
        <ele>366.9</ele>
        <time>2017-05-21T10:52:29Z</time>
      </trkpt>
      <trkpt lat="47.78142" lon="7.09864">
        <ele>365.8</ele>
        <time>2017-05-21T10:52:33Z</time>
      </trkpt>
      <trkpt lat="47.78186" lon="7.09891">
        <ele>363.4</ele>
        <time>2017-05-21T10:52:39Z</time>
      </trkpt>
      <trkpt lat="47.78204" lon="7.09902">
        <ele>362.2</ele>
        <time>2017-05-21T10:52:42Z</time>
      </trkpt>
      <trkpt lat="47.78246" lon="7.09928">
        <ele>360.6</ele>
        <time>2017-05-21T10:52:46Z</time>
      </trkpt>
      <trkpt lat="47.78279" lon="7.09969">
        <ele>359.8</ele>
        <time>2017-05-21T10:52:51Z</time>
      </trkpt>
      <trkpt lat="47.78296" lon="7.09995">
        <ele>359.4</ele>
        <time>2017-05-21T10:52:55Z</time>
      </trkpt>
      <trkpt lat="47.78326" lon="7.10046">
        <ele>358.5</ele>
        <time>2017-05-21T10:53:00Z</time>
      </trkpt>
      <trkpt lat="47.78341" lon="7.10071">
        <ele>358</ele>
        <time>2017-05-21T10:53:04Z</time>
      </trkpt>
      <trkpt lat="47.78366" lon="7.10112">
        <ele>357.4</ele>
        <time>2017-05-21T10:53:08Z</time>
      </trkpt>
      <trkpt lat="47.78394" lon="7.10161">
        <ele>357.1</ele>
        <time>2017-05-21T10:53:14Z</time>
      </trkpt>
      <trkpt lat="47.78413" lon="7.10192">
        <ele>356.6</ele>
        <time>2017-05-21T10:53:17Z</time>
      </trkpt>
      <trkpt lat="47.78431" lon="7.10223">
        <ele>356.2</ele>
        <time>2017-05-21T10:53:21Z</time>
      </trkpt>
      <trkpt lat="47.78449" lon="7.10251">
        <ele>356.5</ele>
        <time>2017-05-21T10:53:26Z</time>
      </trkpt>
      <trkpt lat="47.78467" lon="7.10278">
        <ele>355.5</ele>
        <time>2017-05-21T10:53:30Z</time>
      </trkpt>
      <trkpt lat="47.78485" lon="7.10304">
        <ele>355.4</ele>
        <time>2017-05-21T10:53:34Z</time>
      </trkpt>
      <trkpt lat="47.78513" lon="7.10339">
        <ele>355.2</ele>
        <time>2017-05-21T10:53:39Z</time>
      </trkpt>
      <trkpt lat="47.78534" lon="7.1036">
        <ele>354.3</ele>
        <time>2017-05-21T10:53:43Z</time>
      </trkpt>
      <trkpt lat="47.78555" lon="7.10379">
        <ele>353.7</ele>
        <time>2017-05-21T10:53:47Z</time>
      </trkpt>
      <trkpt lat="47.78578" lon="7.10399">
        <ele>352.3</ele>
        <time>2017-05-21T10:53:51Z</time>
      </trkpt>
      <trkpt lat="47.78604" lon="7.10421">
        <ele>351.2</ele>
        <time>2017-05-21T10:53:55Z</time>
      </trkpt>
      <trkpt lat="47.78618" lon="7.10432">
        <ele>350.3</ele>
        <time>2017-05-21T10:53:59Z</time>
      </trkpt>
      <trkpt lat="47.78652" lon="7.10454">
        <ele>349.3</ele>
        <time>2017-05-21T10:54:04Z</time>
      </trkpt>
      <trkpt lat="47.78688" lon="7.10471">
        <ele>348.3</ele>
        <time>2017-05-21T10:54:08Z</time>
      </trkpt>
      <trkpt lat="47.78709" lon="7.10482">
        <ele>349</ele>
        <time>2017-05-21T10:54:11Z</time>
      </trkpt>
      <trkpt lat="47.78737" lon="7.10521">
        <ele>348.1</ele>
        <time>2017-05-21T10:54:15Z</time>
      </trkpt>
      <trkpt lat="47.78744" lon="7.10545">
        <ele>346.9</ele>
        <time>2017-05-21T10:54:19Z</time>
      </trkpt>
      <trkpt lat="47.78753" lon="7.10579">
        <ele>346.5</ele>
        <time>2017-05-21T10:54:24Z</time>
      </trkpt>
      <trkpt lat="47.78761" lon="7.10613">
        <ele>346.4</ele>
        <time>2017-05-21T10:54:28Z</time>
      </trkpt>
      <trkpt lat="47.78771" lon="7.10666">
        <ele>346.9</ele>
        <time>2017-05-21T10:54:33Z</time>
      </trkpt>
      <trkpt lat="47.78777" lon="7.10694">
        <ele>347.1</ele>
        <time>2017-05-21T10:54:37Z</time>
      </trkpt>
      <trkpt lat="47.78789" lon="7.10751">
        <ele>346.2</ele>
        <time>2017-05-21T10:54:43Z</time>
      </trkpt>
      <trkpt lat="47.78802" lon="7.10785">
        <ele>345.3</ele>
        <time>2017-05-21T10:54:46Z</time>
      </trkpt>
      <trkpt lat="47.78818" lon="7.10818">
        <ele>345</ele>
        <time>2017-05-21T10:54:50Z</time>
      </trkpt>
      <trkpt lat="47.78835" lon="7.1085">
        <ele>344.8</ele>
        <time>2017-05-21T10:54:54Z</time>
      </trkpt>
      <trkpt lat="47.78851" lon="7.10881">
        <ele>344.6</ele>
        <time>2017-05-21T10:54:58Z</time>
      </trkpt>
      <trkpt lat="47.78867" lon="7.10913">
        <ele>343.9</ele>
        <time>2017-05-21T10:55:03Z</time>
      </trkpt>
      <trkpt lat="47.78881" lon="7.10949">
        <ele>343.9</ele>
        <time>2017-05-21T10:55:07Z</time>
      </trkpt>
      <trkpt lat="47.78893" lon="7.10988">
        <ele>342.9</ele>
        <time>2017-05-21T10:55:11Z</time>
      </trkpt>
      <trkpt lat="47.78904" lon="7.11025">
        <ele>341.7</ele>
        <time>2017-05-21T10:55:16Z</time>
      </trkpt>
      <trkpt lat="47.78918" lon="7.11073">
        <ele>340.7</ele>
        <time>2017-05-21T10:55:20Z</time>
      </trkpt>
      <trkpt lat="47.78931" lon="7.1112">
        <ele>339.1</ele>
        <time>2017-05-21T10:55:24Z</time>
      </trkpt>
      <trkpt lat="47.78936" lon="7.11137">
        <ele>338.9</ele>
        <time>2017-05-21T10:55:28Z</time>
      </trkpt>
      <trkpt lat="47.78956" lon="7.11178">
        <ele>339</ele>
        <time>2017-05-21T10:55:32Z</time>
      </trkpt>
      <trkpt lat="47.78976" lon="7.11204">
        <ele>339.6</ele>
        <time>2017-05-21T10:55:36Z</time>
      </trkpt>
      <trkpt lat="47.79002" lon="7.11235">
        <ele>339.4</ele>
        <time>2017-05-21T10:55:40Z</time>
      </trkpt>
      <trkpt lat="47.79023" lon="7.11261">
        <ele>339.5</ele>
        <time>2017-05-21T10:55:44Z</time>
      </trkpt>
      <trkpt lat="47.79036" lon="7.11295">
        <ele>339.2</ele>
        <time>2017-05-21T10:55:49Z</time>
      </trkpt>
      <trkpt lat="47.79046" lon="7.11333">
        <ele>338.6</ele>
        <time>2017-05-21T10:55:53Z</time>
      </trkpt>
      <trkpt lat="47.79052" lon="7.11361">
        <ele>338.3</ele>
        <time>2017-05-21T10:55:57Z</time>
      </trkpt>
      <trkpt lat="47.79066" lon="7.11406">
        <ele>336.8</ele>
        <time>2017-05-21T10:56:01Z</time>
      </trkpt>
      <trkpt lat="47.79063" lon="7.11443">
        <ele>335.9</ele>
        <time>2017-05-21T10:56:05Z</time>
      </trkpt>
      <trkpt lat="47.79057" lon="7.1147">
        <ele>335</ele>
        <time>2017-05-21T10:56:09Z</time>
      </trkpt>
      <trkpt lat="47.79051" lon="7.11527">
        <ele>334.9</ele>
        <time>2017-05-21T10:56:14Z</time>
      </trkpt>
      <trkpt lat="47.79047" lon="7.11574">
        <ele>333.8</ele>
        <time>2017-05-21T10:56:18Z</time>
      </trkpt>
      <trkpt lat="47.79043" lon="7.11602">
        <ele>333.4</ele>
        <time>2017-05-21T10:56:22Z</time>
      </trkpt>
      <trkpt lat="47.79036" lon="7.11648">
        <ele>333.1</ele>
        <time>2017-05-21T10:56:26Z</time>
      </trkpt>
      <trkpt lat="47.79025" lon="7.11682">
        <ele>333.1</ele>
        <time>2017-05-21T10:56:31Z</time>
      </trkpt>
      <trkpt lat="47.79009" lon="7.11713">
        <ele>332.8</ele>
        <time>2017-05-21T10:56:35Z</time>
      </trkpt>
      <trkpt lat="47.78992" lon="7.11741">
        <ele>332.7</ele>
        <time>2017-05-21T10:56:39Z</time>
      </trkpt>
      <trkpt lat="47.78976" lon="7.11771">
        <ele>332.5</ele>
        <time>2017-05-21T10:56:43Z</time>
      </trkpt>
      <trkpt lat="47.7895" lon="7.11813">
        <ele>332.4</ele>
        <time>2017-05-21T10:56:47Z</time>
      </trkpt>
      <trkpt lat="47.78931" lon="7.11837">
        <ele>331.7</ele>
        <time>2017-05-21T10:56:51Z</time>
      </trkpt>
      <trkpt lat="47.78911" lon="7.11861">
        <ele>332.2</ele>
        <time>2017-05-21T10:56:56Z</time>
      </trkpt>
      <trkpt lat="47.7889" lon="7.11884">
        <ele>332.3</ele>
        <time>2017-05-21T10:57:00Z</time>
      </trkpt>
      <trkpt lat="47.78869" lon="7.11908">
        <ele>332.1</ele>
        <time>2017-05-21T10:57:05Z</time>
      </trkpt>
      <trkpt lat="47.78846" lon="7.11933">
        <ele>331.8</ele>
        <time>2017-05-21T10:57:09Z</time>
      </trkpt>
      <trkpt lat="47.78823" lon="7.11958">
        <ele>331.3</ele>
        <time>2017-05-21T10:57:13Z</time>
      </trkpt>
      <trkpt lat="47.78801" lon="7.11984">
        <ele>331.4</ele>
        <time>2017-05-21T10:57:17Z</time>
      </trkpt>
      <trkpt lat="47.78789" lon="7.12019">
        <ele>331</ele>
        <time>2017-05-21T10:57:21Z</time>
      </trkpt>
      <trkpt lat="47.78784" lon="7.12072">
        <ele>329.4</ele>
        <time>2017-05-21T10:57:27Z</time>
      </trkpt>
      <trkpt lat="47.78782" lon="7.12108">
        <ele>328.5</ele>
        <time>2017-05-21T10:57:30Z</time>
      </trkpt>
      <trkpt lat="47.78779" lon="7.12143">
        <ele>328.4</ele>
        <time>2017-05-21T10:57:34Z</time>
      </trkpt>
      <trkpt lat="47.78778" lon="7.12177">
        <ele>328.2</ele>
        <time>2017-05-21T10:57:39Z</time>
      </trkpt>
      <trkpt lat="47.78775" lon="7.12208">
        <ele>327.6</ele>
        <time>2017-05-21T10:57:43Z</time>
      </trkpt>
      <trkpt lat="47.7877" lon="7.12227">
        <ele>327.3</ele>
        <time>2017-05-21T10:57:47Z</time>
      </trkpt>
      <trkpt lat="47.7875" lon="7.12212">
        <ele>326.9</ele>
        <time>2017-05-21T10:57:51Z</time>
      </trkpt>
      <trkpt lat="47.78726" lon="7.12183">
        <ele>325.9</ele>
        <time>2017-05-21T10:57:56Z</time>
      </trkpt>
      <trkpt lat="47.78704" lon="7.1216">
        <ele>326.2</ele>
        <time>2017-05-21T10:58:00Z</time>
      </trkpt>
      <trkpt lat="47.78674" lon="7.12129">
        <ele>326.6</ele>
        <time>2017-05-21T10:58:04Z</time>
      </trkpt>
      <trkpt lat="47.78652" lon="7.12103">
        <ele>326.8</ele>
        <time>2017-05-21T10:58:08Z</time>
      </trkpt>
      <trkpt lat="47.78635" lon="7.12084">
        <ele>326.4</ele>
        <time>2017-05-21T10:58:12Z</time>
      </trkpt>
      <trkpt lat="47.78599" lon="7.12068">
        <ele>326</ele>
        <time>2017-05-21T10:58:17Z</time>
      </trkpt>
      <trkpt lat="47.78583" lon="7.121">
        <ele>326</ele>
        <time>2017-05-21T10:58:21Z</time>
      </trkpt>
      <trkpt lat="47.78569" lon="7.12131">
        <ele>326</ele>
        <time>2017-05-21T10:58:25Z</time>
      </trkpt>
      <trkpt lat="47.78555" lon="7.12162">
        <ele>325.3</ele>
        <time>2017-05-21T10:58:29Z</time>
      </trkpt>
      <trkpt lat="47.78542" lon="7.12194">
        <ele>324.2</ele>
        <time>2017-05-21T10:58:34Z</time>
      </trkpt>
      <trkpt lat="47.78525" lon="7.12235">
        <ele>323</ele>
        <time>2017-05-21T10:58:38Z</time>
      </trkpt>
      <trkpt lat="47.78514" lon="7.12259">
        <ele>322.7</ele>
        <time>2017-05-21T10:58:42Z</time>
      </trkpt>
      <trkpt lat="47.78492" lon="7.12309">
        <ele>323.1</ele>
        <time>2017-05-21T10:58:47Z</time>
      </trkpt>
      <trkpt lat="47.78481" lon="7.12333">
        <ele>322.6</ele>
        <time>2017-05-21T10:58:51Z</time>
      </trkpt>
      <trkpt lat="47.78461" lon="7.12384">
        <ele>322.2</ele>
        <time>2017-05-21T10:58:56Z</time>
      </trkpt>
      <trkpt lat="47.78443" lon="7.12409">
        <ele>322.1</ele>
        <time>2017-05-21T10:59:00Z</time>
      </trkpt>
      <trkpt lat="47.78426" lon="7.12395">
        <ele>321.9</ele>
        <time>2017-05-21T10:59:04Z</time>
      </trkpt>
      <trkpt lat="47.78401" lon="7.12363">
        <ele>322.6</ele>
        <time>2017-05-21T10:59:09Z</time>
      </trkpt>
      <trkpt lat="47.78374" lon="7.12333">
        <ele>323</ele>
        <time>2017-05-21T10:59:13Z</time>
      </trkpt>
      <trkpt lat="47.78352" lon="7.1234">
        <ele>323.5</ele>
        <time>2017-05-21T10:59:18Z</time>
      </trkpt>
      <trkpt lat="47.78332" lon="7.12368">
        <ele>323.5</ele>
        <time>2017-05-21T10:59:21Z</time>
      </trkpt>
      <trkpt lat="47.78312" lon="7.12395">
        <ele>323.2</ele>
        <time>2017-05-21T10:59:25Z</time>
      </trkpt>
      <trkpt lat="47.78297" lon="7.12415">
        <ele>323.2</ele>
        <time>2017-05-21T10:59:29Z</time>
      </trkpt>
      <trkpt lat="47.78273" lon="7.12451">
        <ele>322.5</ele>
        <time>2017-05-21T10:59:34Z</time>
      </trkpt>
      <trkpt lat="47.78255" lon="7.12482">
        <ele>321.9</ele>
        <time>2017-05-21T10:59:38Z</time>
      </trkpt>
      <trkpt lat="47.78235" lon="7.12524">
        <ele>321.8</ele>
        <time>2017-05-21T10:59:41Z</time>
      </trkpt>
      <trkpt lat="47.78225" lon="7.1255">
        <ele>321.9</ele>
        <time>2017-05-21T10:59:45Z</time>
      </trkpt>
      <trkpt lat="47.78215" lon="7.12574">
        <ele>321.8</ele>
        <time>2017-05-21T10:59:50Z</time>
      </trkpt>
      <trkpt lat="47.782" lon="7.12615">
        <ele>321.1</ele>
        <time>2017-05-21T10:59:54Z</time>
      </trkpt>
      <trkpt lat="47.78193" lon="7.12652">
        <ele>320.9</ele>
        <time>2017-05-21T10:59:58Z</time>
      </trkpt>
      <trkpt lat="47.78176" lon="7.12702">
        <ele>321</ele>
        <time>2017-05-21T11:00:03Z</time>
      </trkpt>
      <trkpt lat="47.78164" lon="7.12734">
        <ele>320.8</ele>
        <time>2017-05-21T11:00:07Z</time>
      </trkpt>
      <trkpt lat="47.7815" lon="7.12766">
        <ele>319.9</ele>
        <time>2017-05-21T11:00:12Z</time>
      </trkpt>
      <trkpt lat="47.78135" lon="7.12796">
        <ele>320.1</ele>
        <time>2017-05-21T11:00:16Z</time>
      </trkpt>
      <trkpt lat="47.78114" lon="7.12819">
        <ele>320.1</ele>
        <time>2017-05-21T11:00:20Z</time>
      </trkpt>
      <trkpt lat="47.78089" lon="7.12832">
        <ele>320.7</ele>
        <time>2017-05-21T11:00:25Z</time>
      </trkpt>
      <trkpt lat="47.78058" lon="7.12856">
        <ele>321.2</ele>
        <time>2017-05-21T11:00:29Z</time>
      </trkpt>
      <trkpt lat="47.78031" lon="7.12884">
        <ele>320.7</ele>
        <time>2017-05-21T11:00:34Z</time>
      </trkpt>
      <trkpt lat="47.78011" lon="7.12905">
        <ele>320.7</ele>
        <time>2017-05-21T11:00:37Z</time>
      </trkpt>
      <trkpt lat="47.77991" lon="7.12925">
        <ele>321</ele>
        <time>2017-05-21T11:00:41Z</time>
      </trkpt>
      <trkpt lat="47.77973" lon="7.12946">
        <ele>320.7</ele>
        <time>2017-05-21T11:00:46Z</time>
      </trkpt>
      <trkpt lat="47.77954" lon="7.12969">
        <ele>320.7</ele>
        <time>2017-05-21T11:00:50Z</time>
      </trkpt>
      <trkpt lat="47.77936" lon="7.1299">
        <ele>321</ele>
        <time>2017-05-21T11:00:54Z</time>
      </trkpt>
      <trkpt lat="47.77916" lon="7.13012">
        <ele>320.7</ele>
        <time>2017-05-21T11:00:58Z</time>
      </trkpt>
      <trkpt lat="47.77884" lon="7.13044">
        <ele>321</ele>
        <time>2017-05-21T11:01:03Z</time>
      </trkpt>
      <trkpt lat="47.77861" lon="7.13062">
        <ele>321.7</ele>
        <time>2017-05-21T11:01:08Z</time>
      </trkpt>
      <trkpt lat="47.77842" lon="7.13074">
        <ele>321.3</ele>
        <time>2017-05-21T11:01:11Z</time>
      </trkpt>
      <trkpt lat="47.7781" lon="7.13095">
        <ele>319.9</ele>
        <time>2017-05-21T11:01:15Z</time>
      </trkpt>
      <trkpt lat="47.77786" lon="7.13109">
        <ele>319.1</ele>
        <time>2017-05-21T11:01:20Z</time>
      </trkpt>
      <trkpt lat="47.77771" lon="7.13121">
        <ele>318.2</ele>
        <time>2017-05-21T11:01:24Z</time>
      </trkpt>
      <trkpt lat="47.77763" lon="7.13137">
        <ele>317.2</ele>
        <time>2017-05-21T11:01:28Z</time>
      </trkpt>
      <trkpt lat="47.77773" lon="7.13145">
        <ele>317.3</ele>
        <time>2017-05-21T11:01:32Z</time>
      </trkpt>
      <trkpt lat="47.7779" lon="7.1315">
        <ele>317.8</ele>
        <time>2017-05-21T11:01:36Z</time>
      </trkpt>
      <trkpt lat="47.77817" lon="7.13159">
        <ele>318</ele>
        <time>2017-05-21T11:01:41Z</time>
      </trkpt>
      <trkpt lat="47.77846" lon="7.13166">
        <ele>317.2</ele>
        <time>2017-05-21T11:01:45Z</time>
      </trkpt>
      <trkpt lat="47.77869" lon="7.13173">
        <ele>317.6</ele>
        <time>2017-05-21T11:01:49Z</time>
      </trkpt>
      <trkpt lat="47.7788" lon="7.13175">
        <ele>317.6</ele>
        <time>2017-05-21T11:01:53Z</time>
      </trkpt>
      <trkpt lat="47.77906" lon="7.13179">
        <ele>317.5</ele>
        <time>2017-05-21T11:01:58Z</time>
      </trkpt>
      <trkpt lat="47.77937" lon="7.13185">
        <ele>318.6</ele>
        <time>2017-05-21T11:02:03Z</time>
      </trkpt>
      <trkpt lat="47.77953" lon="7.13188">
        <ele>318.3</ele>
        <time>2017-05-21T11:02:06Z</time>
      </trkpt>
      <trkpt lat="47.7796" lon="7.13206">
        <ele>318.1</ele>
        <time>2017-05-21T11:02:11Z</time>
      </trkpt>
      <trkpt lat="47.77937" lon="7.13217">
        <ele>317.9</ele>
        <time>2017-05-21T11:02:15Z</time>
      </trkpt>
      <trkpt lat="47.77913" lon="7.13229">
        <ele>317.8</ele>
        <time>2017-05-21T11:02:19Z</time>
      </trkpt>
      <trkpt lat="47.77889" lon="7.13243">
        <ele>317.8</ele>
        <time>2017-05-21T11:02:24Z</time>
      </trkpt>
      <trkpt lat="47.77865" lon="7.13256">
        <ele>318.3</ele>
        <time>2017-05-21T11:02:28Z</time>
      </trkpt>
      <trkpt lat="47.77828" lon="7.13276">
        <ele>318.5</ele>
        <time>2017-05-21T11:02:33Z</time>
      </trkpt>
      <trkpt lat="47.77802" lon="7.1329">
        <ele>318.4</ele>
        <time>2017-05-21T11:02:37Z</time>
      </trkpt>
      <trkpt lat="47.77778" lon="7.13303">
        <ele>318.2</ele>
        <time>2017-05-21T11:02:42Z</time>
      </trkpt>
      <trkpt lat="47.77752" lon="7.13315">
        <ele>318.9</ele>
        <time>2017-05-21T11:02:46Z</time>
      </trkpt>
      <trkpt lat="47.77728" lon="7.13328">
        <ele>318.5</ele>
        <time>2017-05-21T11:02:50Z</time>
      </trkpt>
      <trkpt lat="47.77704" lon="7.13344">
        <ele>318.7</ele>
        <time>2017-05-21T11:02:54Z</time>
      </trkpt>
      <trkpt lat="47.77671" lon="7.13372">
        <ele>318.2</ele>
        <time>2017-05-21T11:03:00Z</time>
      </trkpt>
      <trkpt lat="47.77656" lon="7.13399">
        <ele>318</ele>
        <time>2017-05-21T11:03:03Z</time>
      </trkpt>
      <trkpt lat="47.77665" lon="7.13423">
        <ele>318.2</ele>
        <time>2017-05-21T11:03:07Z</time>
      </trkpt>
      <trkpt lat="47.77681" lon="7.13451">
        <ele>317.5</ele>
        <time>2017-05-21T11:03:11Z</time>
      </trkpt>
      <trkpt lat="47.77701" lon="7.13488">
        <ele>317.2</ele>
        <time>2017-05-21T11:03:16Z</time>
      </trkpt>
      <trkpt lat="47.77712" lon="7.13511">
        <ele>316.6</ele>
        <time>2017-05-21T11:03:20Z</time>
      </trkpt>
      <trkpt lat="47.77737" lon="7.13555">
        <ele>315.8</ele>
        <time>2017-05-21T11:03:24Z</time>
      </trkpt>
      <trkpt lat="47.77752" lon="7.13586">
        <ele>316.1</ele>
        <time>2017-05-21T11:03:28Z</time>
      </trkpt>
      <trkpt lat="47.77766" lon="7.13616">
        <ele>316.1</ele>
        <time>2017-05-21T11:03:32Z</time>
      </trkpt>
      <trkpt lat="47.77774" lon="7.1364">
        <ele>315.9</ele>
        <time>2017-05-21T11:03:36Z</time>
      </trkpt>
      <trkpt lat="47.77783" lon="7.13684">
        <ele>315.2</ele>
        <time>2017-05-21T11:03:41Z</time>
      </trkpt>
      <trkpt lat="47.77785" lon="7.1373">
        <ele>314.8</ele>
        <time>2017-05-21T11:03:46Z</time>
      </trkpt>
      <trkpt lat="47.77784" lon="7.13769">
        <ele>314.1</ele>
        <time>2017-05-21T11:03:49Z</time>
      </trkpt>
      <trkpt lat="47.77781" lon="7.13806">
        <ele>313.4</ele>
        <time>2017-05-21T11:03:53Z</time>
      </trkpt>
      <trkpt lat="47.77779" lon="7.13843">
        <ele>313.6</ele>
        <time>2017-05-21T11:03:58Z</time>
      </trkpt>
      <trkpt lat="47.77776" lon="7.1388">
        <ele>313.3</ele>
        <time>2017-05-21T11:04:02Z</time>
      </trkpt>
      <trkpt lat="47.77781" lon="7.13932">
        <ele>312.3</ele>
        <time>2017-05-21T11:04:07Z</time>
      </trkpt>
      <trkpt lat="47.77785" lon="7.13948">
        <ele>312.5</ele>
        <time>2017-05-21T11:04:11Z</time>
      </trkpt>
      <trkpt lat="47.77798" lon="7.13985">
        <ele>312.7</ele>
        <time>2017-05-21T11:04:15Z</time>
      </trkpt>
      <trkpt lat="47.7782" lon="7.14025">
        <ele>312.7</ele>
        <time>2017-05-21T11:04:20Z</time>
      </trkpt>
      <trkpt lat="47.77831" lon="7.14044">
        <ele>312.8</ele>
        <time>2017-05-21T11:04:24Z</time>
      </trkpt>
      <trkpt lat="47.77852" lon="7.14075">
        <ele>312.4</ele>
        <time>2017-05-21T11:04:29Z</time>
      </trkpt>
      <trkpt lat="47.77872" lon="7.14106">
        <ele>312.6</ele>
        <time>2017-05-21T11:04:33Z</time>
      </trkpt>
      <trkpt lat="47.77887" lon="7.1413">
        <ele>312.8</ele>
        <time>2017-05-21T11:04:37Z</time>
      </trkpt>
      <trkpt lat="47.77894" lon="7.14142">
        <ele>312.8</ele>
        <time>2017-05-21T11:04:41Z</time>
      </trkpt>
      <trkpt lat="47.77918" lon="7.14179">
        <ele>312.9</ele>
        <time>2017-05-21T11:04:46Z</time>
      </trkpt>
      <trkpt lat="47.77937" lon="7.14209">
        <ele>313.2</ele>
        <time>2017-05-21T11:04:51Z</time>
      </trkpt>
      <trkpt lat="47.77953" lon="7.14232">
        <ele>312.9</ele>
        <time>2017-05-21T11:04:54Z</time>
      </trkpt>
      <trkpt lat="47.77967" lon="7.14253">
        <ele>312.7</ele>
        <time>2017-05-21T11:04:58Z</time>
      </trkpt>
      <trkpt lat="47.77979" lon="7.14268">
        <ele>312.8</ele>
        <time>2017-05-21T11:05:02Z</time>
      </trkpt>
      <trkpt lat="47.77995" lon="7.14285">
        <ele>313.2</ele>
        <time>2017-05-21T11:05:06Z</time>
      </trkpt>
      <trkpt lat="47.78019" lon="7.14304">
        <ele>313</ele>
        <time>2017-05-21T11:05:11Z</time>
      </trkpt>
      <trkpt lat="47.78034" lon="7.14315">
        <ele>313.6</ele>
        <time>2017-05-21T11:05:15Z</time>
      </trkpt>
      <trkpt lat="47.78064" lon="7.14336">
        <ele>312.4</ele>
        <time>2017-05-21T11:05:19Z</time>
      </trkpt>
      <trkpt lat="47.78079" lon="7.14347">
        <ele>312.2</ele>
        <time>2017-05-21T11:05:23Z</time>
      </trkpt>
      <trkpt lat="47.78105" lon="7.14365">
        <ele>312.5</ele>
        <time>2017-05-21T11:05:27Z</time>
      </trkpt>
      <trkpt lat="47.7813" lon="7.14383">
        <ele>312.6</ele>
        <time>2017-05-21T11:05:32Z</time>
      </trkpt>
      <trkpt lat="47.78146" lon="7.14395">
        <ele>312.4</ele>
        <time>2017-05-21T11:05:36Z</time>
      </trkpt>
      <trkpt lat="47.78169" lon="7.14418">
        <ele>312.1</ele>
        <time>2017-05-21T11:05:41Z</time>
      </trkpt>
      <trkpt lat="47.78182" lon="7.14433">
        <ele>311.7</ele>
        <time>2017-05-21T11:05:45Z</time>
      </trkpt>
      <trkpt lat="47.78206" lon="7.14465">
        <ele>312.1</ele>
        <time>2017-05-21T11:05:50Z</time>
      </trkpt>
      <trkpt lat="47.78225" lon="7.14492">
        <ele>311.5</ele>
        <time>2017-05-21T11:05:54Z</time>
      </trkpt>
      <trkpt lat="47.78241" lon="7.14514">
        <ele>311.1</ele>
        <time>2017-05-21T11:05:58Z</time>
      </trkpt>
      <trkpt lat="47.78257" lon="7.14536">
        <ele>311.2</ele>
        <time>2017-05-21T11:06:03Z</time>
      </trkpt>
      <trkpt lat="47.78273" lon="7.14559">
        <ele>311.5</ele>
        <time>2017-05-21T11:06:07Z</time>
      </trkpt>
      <trkpt lat="47.78285" lon="7.14577">
        <ele>311.7</ele>
        <time>2017-05-21T11:06:11Z</time>
      </trkpt>
      <trkpt lat="47.78304" lon="7.14605">
        <ele>311.2</ele>
        <time>2017-05-21T11:06:15Z</time>
      </trkpt>
      <trkpt lat="47.7832" lon="7.14627">
        <ele>311.3</ele>
        <time>2017-05-21T11:06:19Z</time>
      </trkpt>
      <trkpt lat="47.78336" lon="7.1465">
        <ele>311.8</ele>
        <time>2017-05-21T11:06:23Z</time>
      </trkpt>
      <trkpt lat="47.78351" lon="7.14673">
        <ele>311.7</ele>
        <time>2017-05-21T11:06:27Z</time>
      </trkpt>
      <trkpt lat="47.78377" lon="7.1471">
        <ele>311.5</ele>
        <time>2017-05-21T11:06:32Z</time>
      </trkpt>
      <trkpt lat="47.78394" lon="7.14732">
        <ele>311.3</ele>
        <time>2017-05-21T11:06:36Z</time>
      </trkpt>
      <trkpt lat="47.78412" lon="7.14753">
        <ele>311.2</ele>
        <time>2017-05-21T11:06:40Z</time>
      </trkpt>
      <trkpt lat="47.78431" lon="7.14775">
        <ele>311.3</ele>
        <time>2017-05-21T11:06:44Z</time>
      </trkpt>
      <trkpt lat="47.78448" lon="7.14795">
        <ele>311.6</ele>
        <time>2017-05-21T11:06:49Z</time>
      </trkpt>
      <trkpt lat="47.78467" lon="7.14816">
        <ele>312.2</ele>
        <time>2017-05-21T11:06:53Z</time>
      </trkpt>
      <trkpt lat="47.78489" lon="7.14842">
        <ele>312.1</ele>
        <time>2017-05-21T11:06:58Z</time>
      </trkpt>
      <trkpt lat="47.78507" lon="7.14863">
        <ele>311.9</ele>
        <time>2017-05-21T11:07:02Z</time>
      </trkpt>
      <trkpt lat="47.78515" lon="7.14873">
        <ele>311.8</ele>
        <time>2017-05-21T11:07:06Z</time>
      </trkpt>
      <trkpt lat="47.78541" lon="7.14906">
        <ele>312</ele>
        <time>2017-05-21T11:07:10Z</time>
      </trkpt>
      <trkpt lat="47.78561" lon="7.14932">
        <ele>312.2</ele>
        <time>2017-05-21T11:07:15Z</time>
      </trkpt>
      <trkpt lat="47.78582" lon="7.14959">
        <ele>312.8</ele>
        <time>2017-05-21T11:07:20Z</time>
      </trkpt>
      <trkpt lat="47.78599" lon="7.14981">
        <ele>313</ele>
        <time>2017-05-21T11:07:23Z</time>
      </trkpt>
      <trkpt lat="47.78612" lon="7.14997">
        <ele>312.7</ele>
        <time>2017-05-21T11:07:27Z</time>
      </trkpt>
      <trkpt lat="47.7863" lon="7.1502">
        <ele>313</ele>
        <time>2017-05-21T11:07:31Z</time>
      </trkpt>
      <trkpt lat="47.78656" lon="7.15053">
        <ele>312.8</ele>
        <time>2017-05-21T11:07:36Z</time>
      </trkpt>
      <trkpt lat="47.78673" lon="7.15075">
        <ele>312.9</ele>
        <time>2017-05-21T11:07:41Z</time>
      </trkpt>
      <trkpt lat="47.78687" lon="7.15091">
        <ele>312.9</ele>
        <time>2017-05-21T11:07:45Z</time>
      </trkpt>
      <trkpt lat="47.78715" lon="7.15123">
        <ele>312.2</ele>
        <time>2017-05-21T11:07:49Z</time>
      </trkpt>
      <trkpt lat="47.78729" lon="7.15139">
        <ele>311.9</ele>
        <time>2017-05-21T11:07:53Z</time>
      </trkpt>
      <trkpt lat="47.78743" lon="7.15154">
        <ele>311.9</ele>
        <time>2017-05-21T11:07:57Z</time>
      </trkpt>
      <trkpt lat="47.7877" lon="7.15184">
        <ele>312</ele>
        <time>2017-05-21T11:08:02Z</time>
      </trkpt>
      <trkpt lat="47.78794" lon="7.1521">
        <ele>312.9</ele>
        <time>2017-05-21T11:08:06Z</time>
      </trkpt>
      <trkpt lat="47.78813" lon="7.15231">
        <ele>313.7</ele>
        <time>2017-05-21T11:08:10Z</time>
      </trkpt>
      <trkpt lat="47.78828" lon="7.15245">
        <ele>314.1</ele>
        <time>2017-05-21T11:08:14Z</time>
      </trkpt>
      <trkpt lat="47.78847" lon="7.15264">
        <ele>314.4</ele>
        <time>2017-05-21T11:08:19Z</time>
      </trkpt>
      <trkpt lat="47.78875" lon="7.15292">
        <ele>314</ele>
        <time>2017-05-21T11:08:23Z</time>
      </trkpt>
      <trkpt lat="47.78884" lon="7.15301">
        <ele>313.7</ele>
        <time>2017-05-21T11:08:27Z</time>
      </trkpt>
      <trkpt lat="47.78906" lon="7.15322">
        <ele>313.1</ele>
        <time>2017-05-21T11:08:31Z</time>
      </trkpt>
      <trkpt lat="47.78924" lon="7.15337">
        <ele>313</ele>
        <time>2017-05-21T11:08:35Z</time>
      </trkpt>
      <trkpt lat="47.78946" lon="7.15357">
        <ele>313</ele>
        <time>2017-05-21T11:08:40Z</time>
      </trkpt>
      <trkpt lat="47.78963" lon="7.15373">
        <ele>312.8</ele>
        <time>2017-05-21T11:08:44Z</time>
      </trkpt>
      <trkpt lat="47.78976" lon="7.15386">
        <ele>313</ele>
        <time>2017-05-21T11:08:48Z</time>
      </trkpt>
      <trkpt lat="47.79009" lon="7.15414">
        <ele>311.9</ele>
        <time>2017-05-21T11:08:53Z</time>
      </trkpt>
      <trkpt lat="47.79023" lon="7.15427">
        <ele>311.7</ele>
        <time>2017-05-21T11:08:57Z</time>
      </trkpt>
      <trkpt lat="47.79048" lon="7.15449">
        <ele>311.7</ele>
        <time>2017-05-21T11:09:02Z</time>
      </trkpt>
      <trkpt lat="47.79067" lon="7.15466">
        <ele>311.4</ele>
        <time>2017-05-21T11:09:05Z</time>
      </trkpt>
      <trkpt lat="47.79086" lon="7.15483">
        <ele>312.2</ele>
        <time>2017-05-21T11:09:09Z</time>
      </trkpt>
      <trkpt lat="47.79106" lon="7.155">
        <ele>313.2</ele>
        <time>2017-05-21T11:09:13Z</time>
      </trkpt>
      <trkpt lat="47.79125" lon="7.15517">
        <ele>313.1</ele>
        <time>2017-05-21T11:09:18Z</time>
      </trkpt>
      <trkpt lat="47.79144" lon="7.15535">
        <ele>313</ele>
        <time>2017-05-21T11:09:22Z</time>
      </trkpt>
      <trkpt lat="47.79165" lon="7.15553">
        <ele>313.1</ele>
        <time>2017-05-21T11:09:26Z</time>
      </trkpt>
      <trkpt lat="47.79195" lon="7.15579">
        <ele>313.6</ele>
        <time>2017-05-21T11:09:32Z</time>
      </trkpt>
      <trkpt lat="47.79204" lon="7.15589">
        <ele>313.5</ele>
        <time>2017-05-21T11:09:35Z</time>
      </trkpt>
      <trkpt lat="47.79234" lon="7.15614">
        <ele>313.3</ele>
        <time>2017-05-21T11:09:39Z</time>
      </trkpt>
      <trkpt lat="47.79259" lon="7.15637">
        <ele>313.9</ele>
        <time>2017-05-21T11:09:44Z</time>
      </trkpt>
      <trkpt lat="47.79275" lon="7.15651">
        <ele>314</ele>
        <time>2017-05-21T11:09:48Z</time>
      </trkpt>
      <trkpt lat="47.79306" lon="7.15678">
        <ele>313.4</ele>
        <time>2017-05-21T11:09:54Z</time>
      </trkpt>
      <trkpt lat="47.79326" lon="7.15696">
        <ele>313.3</ele>
        <time>2017-05-21T11:09:57Z</time>
      </trkpt>
      <trkpt lat="47.79346" lon="7.15714">
        <ele>313.2</ele>
        <time>2017-05-21T11:10:01Z</time>
      </trkpt>
      <trkpt lat="47.79366" lon="7.15732">
        <ele>313</ele>
        <time>2017-05-21T11:10:06Z</time>
      </trkpt>
      <trkpt lat="47.79386" lon="7.15749">
        <ele>312.7</ele>
        <time>2017-05-21T11:10:10Z</time>
      </trkpt>
      <trkpt lat="47.79408" lon="7.15766">
        <ele>313.2</ele>
        <time>2017-05-21T11:10:14Z</time>
      </trkpt>
      <trkpt lat="47.79435" lon="7.15781">
        <ele>313.2</ele>
        <time>2017-05-21T11:10:18Z</time>
      </trkpt>
      <trkpt lat="47.79456" lon="7.15792">
        <ele>312.8</ele>
        <time>2017-05-21T11:10:23Z</time>
      </trkpt>
      <trkpt lat="47.79453" lon="7.15821">
        <ele>312.4</ele>
        <time>2017-05-21T11:10:28Z</time>
      </trkpt>
      <trkpt lat="47.79457" lon="7.15831">
        <ele>312.2</ele>
        <time>2017-05-21T11:10:31Z</time>
      </trkpt>
      <trkpt lat="47.79474" lon="7.1587">
        <ele>311.2</ele>
        <time>2017-05-21T11:10:36Z</time>
      </trkpt>
      <trkpt lat="47.79494" lon="7.15895">
        <ele>310.3</ele>
        <time>2017-05-21T11:10:39Z</time>
      </trkpt>
      <trkpt lat="47.79549" lon="7.15925">
        <ele>308.6</ele>
        <time>2017-05-21T11:10:49Z</time>
      </trkpt>
      <trkpt lat="47.79564" lon="7.15934">
        <ele>308.3</ele>
        <time>2017-05-21T11:10:52Z</time>
      </trkpt>
      <trkpt lat="47.79581" lon="7.15946">
        <ele>309.3</ele>
        <time>2017-05-21T11:10:56Z</time>
      </trkpt>
      <trkpt lat="47.79604" lon="7.15977">
        <ele>309.8</ele>
        <time>2017-05-21T11:11:02Z</time>
      </trkpt>
      <trkpt lat="47.79621" lon="7.16">
        <ele>309.4</ele>
        <time>2017-05-21T11:11:05Z</time>
      </trkpt>
      <trkpt lat="47.79636" lon="7.16022">
        <ele>309.5</ele>
        <time>2017-05-21T11:11:09Z</time>
      </trkpt>
      <trkpt lat="47.79641" lon="7.16046">
        <ele>309.5</ele>
        <time>2017-05-21T11:11:13Z</time>
      </trkpt>
      <trkpt lat="47.79646" lon="7.16059">
        <ele>309.7</ele>
        <time>2017-05-21T11:11:17Z</time>
      </trkpt>
      <trkpt lat="47.79665" lon="7.1609">
        <ele>309.6</ele>
        <time>2017-05-21T11:11:21Z</time>
      </trkpt>
      <trkpt lat="47.79689" lon="7.16117">
        <ele>309.2</ele>
        <time>2017-05-21T11:11:25Z</time>
      </trkpt>
      <trkpt lat="47.79705" lon="7.16141">
        <ele>309.1</ele>
        <time>2017-05-21T11:11:29Z</time>
      </trkpt>
      <trkpt lat="47.79722" lon="7.16165">
        <ele>309</ele>
        <time>2017-05-21T11:11:34Z</time>
      </trkpt>
      <trkpt lat="47.79738" lon="7.16189">
        <ele>309.1</ele>
        <time>2017-05-21T11:11:38Z</time>
      </trkpt>
      <trkpt lat="47.79754" lon="7.16212">
        <ele>309</ele>
        <time>2017-05-21T11:11:42Z</time>
      </trkpt>
      <trkpt lat="47.79771" lon="7.16235">
        <ele>308.5</ele>
        <time>2017-05-21T11:11:47Z</time>
      </trkpt>
      <trkpt lat="47.79792" lon="7.16265">
        <ele>308.7</ele>
        <time>2017-05-21T11:11:51Z</time>
      </trkpt>
      <trkpt lat="47.79813" lon="7.16298">
        <ele>309.4</ele>
        <time>2017-05-21T11:11:56Z</time>
      </trkpt>
      <trkpt lat="47.79829" lon="7.16327">
        <ele>309.8</ele>
        <time>2017-05-21T11:11:59Z</time>
      </trkpt>
      <trkpt lat="47.79839" lon="7.1635">
        <ele>310</ele>
        <time>2017-05-21T11:12:03Z</time>
      </trkpt>
      <trkpt lat="47.79853" lon="7.16391">
        <ele>309.6</ele>
        <time>2017-05-21T11:12:08Z</time>
      </trkpt>
      <trkpt lat="47.79868" lon="7.16432">
        <ele>308.9</ele>
        <time>2017-05-21T11:12:11Z</time>
      </trkpt>
      <trkpt lat="47.79879" lon="7.16464">
        <ele>308.4</ele>
        <time>2017-05-21T11:12:16Z</time>
      </trkpt>
      <trkpt lat="47.79887" lon="7.16489">
        <ele>308.5</ele>
        <time>2017-05-21T11:12:20Z</time>
      </trkpt>
      <trkpt lat="47.79898" lon="7.16522">
        <ele>309.3</ele>
        <time>2017-05-21T11:12:24Z</time>
      </trkpt>
      <trkpt lat="47.79909" lon="7.16554">
        <ele>308.9</ele>
        <time>2017-05-21T11:12:28Z</time>
      </trkpt>
      <trkpt lat="47.79923" lon="7.16593">
        <ele>308</ele>
        <time>2017-05-21T11:12:32Z</time>
      </trkpt>
      <trkpt lat="47.79931" lon="7.16618">
        <ele>307.8</ele>
        <time>2017-05-21T11:12:36Z</time>
      </trkpt>
      <trkpt lat="47.79944" lon="7.16659">
        <ele>307.8</ele>
        <time>2017-05-21T11:12:41Z</time>
      </trkpt>
      <trkpt lat="47.79957" lon="7.16701">
        <ele>307.2</ele>
        <time>2017-05-21T11:12:45Z</time>
      </trkpt>
      <trkpt lat="47.79961" lon="7.16718">
        <ele>306.8</ele>
        <time>2017-05-21T11:12:49Z</time>
      </trkpt>
      <trkpt lat="47.79974" lon="7.16758">
        <ele>306</ele>
        <time>2017-05-21T11:12:53Z</time>
      </trkpt>
      <trkpt lat="47.79985" lon="7.16798">
        <ele>305.5</ele>
        <time>2017-05-21T11:12:58Z</time>
      </trkpt>
      <trkpt lat="47.79996" lon="7.16835">
        <ele>304.2</ele>
        <time>2017-05-21T11:13:02Z</time>
      </trkpt>
      <trkpt lat="47.80004" lon="7.16864">
        <ele>303.9</ele>
        <time>2017-05-21T11:13:06Z</time>
      </trkpt>
      <trkpt lat="47.80013" lon="7.16894">
        <ele>303.6</ele>
        <time>2017-05-21T11:13:11Z</time>
      </trkpt>
      <trkpt lat="47.8002" lon="7.16917">
        <ele>303.6</ele>
        <time>2017-05-21T11:13:15Z</time>
      </trkpt>
      <trkpt lat="47.80033" lon="7.1696">
        <ele>303.4</ele>
        <time>2017-05-21T11:13:19Z</time>
      </trkpt>
      <trkpt lat="47.80041" lon="7.16991">
        <ele>302.7</ele>
        <time>2017-05-21T11:13:23Z</time>
      </trkpt>
      <trkpt lat="47.80052" lon="7.17023">
        <ele>302.6</ele>
        <time>2017-05-21T11:13:27Z</time>
      </trkpt>
      <trkpt lat="47.80062" lon="7.17056">
        <ele>303.1</ele>
        <time>2017-05-21T11:13:32Z</time>
      </trkpt>
      <trkpt lat="47.80071" lon="7.17089">
        <ele>303.3</ele>
        <time>2017-05-21T11:13:36Z</time>
      </trkpt>
      <trkpt lat="47.8008" lon="7.17122">
        <ele>303.3</ele>
        <time>2017-05-21T11:13:40Z</time>
      </trkpt>
      <trkpt lat="47.80087" lon="7.17147">
        <ele>303.5</ele>
        <time>2017-05-21T11:13:44Z</time>
      </trkpt>
      <trkpt lat="47.80095" lon="7.17182">
        <ele>303.2</ele>
        <time>2017-05-21T11:13:48Z</time>
      </trkpt>
      <trkpt lat="47.80104" lon="7.17224">
        <ele>303.3</ele>
        <time>2017-05-21T11:13:52Z</time>
      </trkpt>
      <trkpt lat="47.80111" lon="7.17268">
        <ele>303.5</ele>
        <time>2017-05-21T11:13:57Z</time>
      </trkpt>
      <trkpt lat="47.80117" lon="7.1731">
        <ele>303.2</ele>
        <time>2017-05-21T11:14:01Z</time>
      </trkpt>
      <trkpt lat="47.80112" lon="7.17344">
        <ele>303.2</ele>
        <time>2017-05-21T11:14:06Z</time>
      </trkpt>
      <trkpt lat="47.80103" lon="7.17376">
        <ele>302.8</ele>
        <time>2017-05-21T11:14:09Z</time>
      </trkpt>
      <trkpt lat="47.80092" lon="7.17408">
        <ele>302</ele>
        <time>2017-05-21T11:14:13Z</time>
      </trkpt>
      <trkpt lat="47.80082" lon="7.17433">
        <ele>302.1</ele>
        <time>2017-05-21T11:14:17Z</time>
      </trkpt>
      <trkpt lat="47.80074" lon="7.17455">
        <ele>302.4</ele>
        <time>2017-05-21T11:14:21Z</time>
      </trkpt>
      <trkpt lat="47.8006" lon="7.1749">
        <ele>302.6</ele>
        <time>2017-05-21T11:14:25Z</time>
      </trkpt>
      <trkpt lat="47.80058" lon="7.17494">
        <ele>302.3</ele>
        <time>2017-05-21T11:14:29Z</time>
      </trkpt>
      <trkpt lat="47.80055" lon="7.17503">
        <ele>303.3</ele>
        <time>2017-05-21T11:14:33Z</time>
      </trkpt>
      <trkpt lat="47.80074" lon="7.17513">
        <ele>303.5</ele>
        <time>2017-05-21T11:14:37Z</time>
      </trkpt>
      <trkpt lat="47.80087" lon="7.1752">
        <ele>304.3</ele>
        <time>2017-05-21T11:14:42Z</time>
      </trkpt>
      <trkpt lat="47.80101" lon="7.17529">
        <ele>304.9</ele>
        <time>2017-05-21T11:14:46Z</time>
      </trkpt>
      <trkpt lat="47.80129" lon="7.17542">
        <ele>307.1</ele>
        <time>2017-05-21T11:14:50Z</time>
      </trkpt>
      <trkpt lat="47.80162" lon="7.17557">
        <ele>308.4</ele>
        <time>2017-05-21T11:14:55Z</time>
      </trkpt>
      <trkpt lat="47.80186" lon="7.17568">
        <ele>309.1</ele>
        <time>2017-05-21T11:14:59Z</time>
      </trkpt>
      <trkpt lat="47.80213" lon="7.17583">
        <ele>309.7</ele>
        <time>2017-05-21T11:15:03Z</time>
      </trkpt>
      <trkpt lat="47.80244" lon="7.176">
        <ele>309.4</ele>
        <time>2017-05-21T11:15:08Z</time>
      </trkpt>
      <trkpt lat="47.80267" lon="7.17616">
        <ele>309.1</ele>
        <time>2017-05-21T11:15:12Z</time>
      </trkpt>
      <trkpt lat="47.80312" lon="7.17638">
        <ele>308.4</ele>
        <time>2017-05-21T11:15:16Z</time>
      </trkpt>
      <trkpt lat="47.80334" lon="7.17668">
        <ele>308.2</ele>
        <time>2017-05-21T11:15:20Z</time>
      </trkpt>
      <trkpt lat="47.80326" lon="7.17715">
        <ele>307.4</ele>
        <time>2017-05-21T11:15:24Z</time>
      </trkpt>
      <trkpt lat="47.80315" lon="7.1778">
        <ele>307.3</ele>
        <time>2017-05-21T11:15:29Z</time>
      </trkpt>
      <trkpt lat="47.80308" lon="7.17821">
        <ele>305.7</ele>
        <time>2017-05-21T11:15:33Z</time>
      </trkpt>
      <trkpt lat="47.80301" lon="7.1786">
        <ele>303.6</ele>
        <time>2017-05-21T11:15:37Z</time>
      </trkpt>
      <trkpt lat="47.80294" lon="7.17898">
        <ele>302.8</ele>
        <time>2017-05-21T11:15:42Z</time>
      </trkpt>
      <trkpt lat="47.80289" lon="7.17935">
        <ele>303.3</ele>
        <time>2017-05-21T11:15:46Z</time>
      </trkpt>
      <trkpt lat="47.80284" lon="7.1797">
        <ele>302.9</ele>
        <time>2017-05-21T11:15:50Z</time>
      </trkpt>
      <trkpt lat="47.80279" lon="7.18005">
        <ele>302.5</ele>
        <time>2017-05-21T11:15:54Z</time>
      </trkpt>
      <trkpt lat="47.80272" lon="7.1806">
        <ele>301.8</ele>
        <time>2017-05-21T11:16:00Z</time>
      </trkpt>
      <trkpt lat="47.80267" lon="7.18096">
        <ele>301.3</ele>
        <time>2017-05-21T11:16:03Z</time>
      </trkpt>
      <trkpt lat="47.80264" lon="7.18133">
        <ele>300.3</ele>
        <time>2017-05-21T11:16:07Z</time>
      </trkpt>
      <trkpt lat="47.80263" lon="7.18172">
        <ele>299.9</ele>
        <time>2017-05-21T11:16:12Z</time>
      </trkpt>
      <trkpt lat="47.80258" lon="7.18222">
        <ele>299.1</ele>
        <time>2017-05-21T11:16:16Z</time>
      </trkpt>
      <trkpt lat="47.80256" lon="7.18262">
        <ele>299.7</ele>
        <time>2017-05-21T11:16:20Z</time>
      </trkpt>
      <trkpt lat="47.80255" lon="7.18283">
        <ele>299.3</ele>
        <time>2017-05-21T11:16:24Z</time>
      </trkpt>
      <trkpt lat="47.80255" lon="7.18336">
        <ele>298.8</ele>
        <time>2017-05-21T11:16:28Z</time>
      </trkpt>
      <trkpt lat="47.80255" lon="7.18388">
        <ele>298.2</ele>
        <time>2017-05-21T11:16:33Z</time>
      </trkpt>
      <trkpt lat="47.80253" lon="7.1844">
        <ele>297.8</ele>
        <time>2017-05-21T11:16:37Z</time>
      </trkpt>
      <trkpt lat="47.80252" lon="7.1847">
        <ele>297.6</ele>
        <time>2017-05-21T11:16:41Z</time>
      </trkpt>
      <trkpt lat="47.80251" lon="7.18512">
        <ele>298.1</ele>
        <time>2017-05-21T11:16:45Z</time>
      </trkpt>
      <trkpt lat="47.8025" lon="7.18552">
        <ele>298.2</ele>
        <time>2017-05-21T11:16:50Z</time>
      </trkpt>
      <trkpt lat="47.80249" lon="7.18611">
        <ele>297.4</ele>
        <time>2017-05-21T11:16:55Z</time>
      </trkpt>
      <trkpt lat="47.80247" lon="7.1864">
        <ele>297.7</ele>
        <time>2017-05-21T11:16:58Z</time>
      </trkpt>
      <trkpt lat="47.80246" lon="7.18687">
        <ele>297.5</ele>
        <time>2017-05-21T11:17:02Z</time>
      </trkpt>
      <trkpt lat="47.80244" lon="7.18727">
        <ele>297.3</ele>
        <time>2017-05-21T11:17:07Z</time>
      </trkpt>
      <trkpt lat="47.80242" lon="7.18786">
        <ele>297.6</ele>
        <time>2017-05-21T11:17:12Z</time>
      </trkpt>
      <trkpt lat="47.80241" lon="7.18826">
        <ele>297.4</ele>
        <time>2017-05-21T11:17:17Z</time>
      </trkpt>
      <trkpt lat="47.8024" lon="7.18867">
        <ele>296.7</ele>
        <time>2017-05-21T11:17:20Z</time>
      </trkpt>
      <trkpt lat="47.80238" lon="7.18907">
        <ele>296.1</ele>
        <time>2017-05-21T11:17:24Z</time>
      </trkpt>
      <trkpt lat="47.80235" lon="7.18944">
        <ele>295.9</ele>
        <time>2017-05-21T11:17:29Z</time>
      </trkpt>
      <trkpt lat="47.80233" lon="7.18978">
        <ele>296.6</ele>
        <time>2017-05-21T11:17:33Z</time>
      </trkpt>
      <trkpt lat="47.80233" lon="7.1901">
        <ele>297.2</ele>
        <time>2017-05-21T11:17:37Z</time>
      </trkpt>
      <trkpt lat="47.80235" lon="7.19044">
        <ele>298</ele>
        <time>2017-05-21T11:17:41Z</time>
      </trkpt>
      <trkpt lat="47.80239" lon="7.19096">
        <ele>298.5</ele>
        <time>2017-05-21T11:17:46Z</time>
      </trkpt>
      <trkpt lat="47.80242" lon="7.19133">
        <ele>298.3</ele>
        <time>2017-05-21T11:17:50Z</time>
      </trkpt>
      <trkpt lat="47.80246" lon="7.19162">
        <ele>298.7</ele>
        <time>2017-05-21T11:17:54Z</time>
      </trkpt>
      <trkpt lat="47.80256" lon="7.19222">
        <ele>297.1</ele>
        <time>2017-05-21T11:17:58Z</time>
      </trkpt>
      <trkpt lat="47.80262" lon="7.19255">
        <ele>296.7</ele>
        <time>2017-05-21T11:18:02Z</time>
      </trkpt>
      <trkpt lat="47.80273" lon="7.19319">
        <ele>295.9</ele>
        <time>2017-05-21T11:18:06Z</time>
      </trkpt>
      <trkpt lat="47.80281" lon="7.1937">
        <ele>294.4</ele>
        <time>2017-05-21T11:18:10Z</time>
      </trkpt>
      <trkpt lat="47.80289" lon="7.19417">
        <ele>293.7</ele>
        <time>2017-05-21T11:18:16Z</time>
      </trkpt>
      <trkpt lat="47.80295" lon="7.1945">
        <ele>293.6</ele>
        <time>2017-05-21T11:18:20Z</time>
      </trkpt>
      <trkpt lat="47.80306" lon="7.19517">
        <ele>293.5</ele>
        <time>2017-05-21T11:18:24Z</time>
      </trkpt>
      <trkpt lat="47.80313" lon="7.19561">
        <ele>293.3</ele>
        <time>2017-05-21T11:18:28Z</time>
      </trkpt>
      <trkpt lat="47.8032" lon="7.19602">
        <ele>292.2</ele>
        <time>2017-05-21T11:18:32Z</time>
      </trkpt>
      <trkpt lat="47.80327" lon="7.19644">
        <ele>291.9</ele>
        <time>2017-05-21T11:18:37Z</time>
      </trkpt>
      <trkpt lat="47.80333" lon="7.19686">
        <ele>291.3</ele>
        <time>2017-05-21T11:18:41Z</time>
      </trkpt>
      <trkpt lat="47.80342" lon="7.1974">
        <ele>291.4</ele>
        <time>2017-05-21T11:18:45Z</time>
      </trkpt>
      <trkpt lat="47.80346" lon="7.19761">
        <ele>291.2</ele>
        <time>2017-05-21T11:18:49Z</time>
      </trkpt>
      <trkpt lat="47.80353" lon="7.19833">
        <ele>290.9</ele>
        <time>2017-05-21T11:18:54Z</time>
      </trkpt>
      <trkpt lat="47.80354" lon="7.19866">
        <ele>290.8</ele>
        <time>2017-05-21T11:18:59Z</time>
      </trkpt>
      <trkpt lat="47.80374" lon="7.19867">
        <ele>290.5</ele>
        <time>2017-05-21T11:19:02Z</time>
      </trkpt>
      <trkpt lat="47.80397" lon="7.19851">
        <ele>290.3</ele>
        <time>2017-05-21T11:19:07Z</time>
      </trkpt>
      <trkpt lat="47.80423" lon="7.19841">
        <ele>289.4</ele>
        <time>2017-05-21T11:19:11Z</time>
      </trkpt>
      <trkpt lat="47.80443" lon="7.19852">
        <ele>289.3</ele>
        <time>2017-05-21T11:19:15Z</time>
      </trkpt>
      <trkpt lat="47.80456" lon="7.19907">
        <ele>289.4</ele>
        <time>2017-05-21T11:19:20Z</time>
      </trkpt>
      <trkpt lat="47.80464" lon="7.19945">
        <ele>288.8</ele>
        <time>2017-05-21T11:19:24Z</time>
      </trkpt>
      <trkpt lat="47.80477" lon="7.19979">
        <ele>288.9</ele>
        <time>2017-05-21T11:19:28Z</time>
      </trkpt>
      <trkpt lat="47.80492" lon="7.20013">
        <ele>289.5</ele>
        <time>2017-05-21T11:19:32Z</time>
      </trkpt>
      <trkpt lat="47.80507" lon="7.20046">
        <ele>290.1</ele>
        <time>2017-05-21T11:19:37Z</time>
      </trkpt>
      <trkpt lat="47.80524" lon="7.20078">
        <ele>290.3</ele>
        <time>2017-05-21T11:19:41Z</time>
      </trkpt>
      <trkpt lat="47.80544" lon="7.20101">
        <ele>290.1</ele>
        <time>2017-05-21T11:19:46Z</time>
      </trkpt>
      <trkpt lat="47.8058" lon="7.20109">
        <ele>289.8</ele>
        <time>2017-05-21T11:19:49Z</time>
      </trkpt>
      <trkpt lat="47.80604" lon="7.20115">
        <ele>289.8</ele>
        <time>2017-05-21T11:19:53Z</time>
      </trkpt>
      <trkpt lat="47.80613" lon="7.20131">
        <ele>288.9</ele>
        <time>2017-05-21T11:19:59Z</time>
      </trkpt>
      <trkpt lat="47.80609" lon="7.20159">
        <ele>288.7</ele>
        <time>2017-05-21T11:20:02Z</time>
      </trkpt>
      <trkpt lat="47.80602" lon="7.20203">
        <ele>288.8</ele>
        <time>2017-05-21T11:20:06Z</time>
      </trkpt>
      <trkpt lat="47.80594" lon="7.20252">
        <ele>288.9</ele>
        <time>2017-05-21T11:20:11Z</time>
      </trkpt>
      <trkpt lat="47.80588" lon="7.20291">
        <ele>288</ele>
        <time>2017-05-21T11:20:15Z</time>
      </trkpt>
      <trkpt lat="47.80579" lon="7.20338">
        <ele>287.6</ele>
        <time>2017-05-21T11:20:19Z</time>
      </trkpt>
      <trkpt lat="47.80573" lon="7.20377">
        <ele>286.7</ele>
        <time>2017-05-21T11:20:23Z</time>
      </trkpt>
      <trkpt lat="47.80569" lon="7.20417">
        <ele>285.8</ele>
        <time>2017-05-21T11:20:27Z</time>
      </trkpt>
      <trkpt lat="47.8057" lon="7.20457">
        <ele>284.7</ele>
        <time>2017-05-21T11:20:32Z</time>
      </trkpt>
      <trkpt lat="47.80571" lon="7.20477">
        <ele>284.3</ele>
        <time>2017-05-21T11:20:36Z</time>
      </trkpt>
      <trkpt lat="47.80576" lon="7.20538">
        <ele>283.6</ele>
        <time>2017-05-21T11:20:40Z</time>
      </trkpt>
      <trkpt lat="47.80582" lon="7.20586">
        <ele>282.5</ele>
        <time>2017-05-21T11:20:45Z</time>
      </trkpt>
      <trkpt lat="47.80593" lon="7.20633">
        <ele>282.6</ele>
        <time>2017-05-21T11:20:49Z</time>
      </trkpt>
      <trkpt lat="47.80607" lon="7.20669">
        <ele>281.7</ele>
        <time>2017-05-21T11:20:53Z</time>
      </trkpt>
      <trkpt lat="47.80624" lon="7.20704">
        <ele>281.9</ele>
        <time>2017-05-21T11:20:58Z</time>
      </trkpt>
      <trkpt lat="47.80641" lon="7.20736">
        <ele>281.4</ele>
        <time>2017-05-21T11:21:02Z</time>
      </trkpt>
      <trkpt lat="47.80658" lon="7.20764">
        <ele>281.3</ele>
        <time>2017-05-21T11:21:06Z</time>
      </trkpt>
      <trkpt lat="47.80682" lon="7.20797">
        <ele>280.2</ele>
        <time>2017-05-21T11:21:11Z</time>
      </trkpt>
      <trkpt lat="47.80708" lon="7.20827">
        <ele>279.6</ele>
        <time>2017-05-21T11:21:15Z</time>
      </trkpt>
      <trkpt lat="47.80728" lon="7.20851">
        <ele>278.8</ele>
        <time>2017-05-21T11:21:19Z</time>
      </trkpt>
      <trkpt lat="47.80744" lon="7.2087">
        <ele>278.8</ele>
        <time>2017-05-21T11:21:23Z</time>
      </trkpt>
      <trkpt lat="47.80759" lon="7.2089">
        <ele>279.1</ele>
        <time>2017-05-21T11:21:27Z</time>
      </trkpt>
      <trkpt lat="47.80783" lon="7.20923">
        <ele>278.3</ele>
        <time>2017-05-21T11:21:31Z</time>
      </trkpt>
      <trkpt lat="47.80801" lon="7.20952">
        <ele>277.8</ele>
        <time>2017-05-21T11:21:35Z</time>
      </trkpt>
      <trkpt lat="47.8082" lon="7.20983">
        <ele>278</ele>
        <time>2017-05-21T11:21:39Z</time>
      </trkpt>
      <trkpt lat="47.80842" lon="7.21023">
        <ele>277.5</ele>
        <time>2017-05-21T11:21:43Z</time>
      </trkpt>
      <trkpt lat="47.80861" lon="7.21055">
        <ele>277.1</ele>
        <time>2017-05-21T11:21:47Z</time>
      </trkpt>
      <trkpt lat="47.80884" lon="7.21095">
        <ele>277</ele>
        <time>2017-05-21T11:21:52Z</time>
      </trkpt>
      <trkpt lat="47.80902" lon="7.21127">
        <ele>276.8</ele>
        <time>2017-05-21T11:21:56Z</time>
      </trkpt>
      <trkpt lat="47.80916" lon="7.21152">
        <ele>276.6</ele>
        <time>2017-05-21T11:22:00Z</time>
      </trkpt>
      <trkpt lat="47.80936" lon="7.21192">
        <ele>277</ele>
        <time>2017-05-21T11:22:05Z</time>
      </trkpt>
      <trkpt lat="47.80954" lon="7.21232">
        <ele>276.9</ele>
        <time>2017-05-21T11:22:09Z</time>
      </trkpt>
      <trkpt lat="47.80966" lon="7.21263">
        <ele>276.7</ele>
        <time>2017-05-21T11:22:13Z</time>
      </trkpt>
      <trkpt lat="47.80979" lon="7.21295">
        <ele>276.4</ele>
        <time>2017-05-21T11:22:17Z</time>
      </trkpt>
      <trkpt lat="47.80994" lon="7.21328">
        <ele>276.3</ele>
        <time>2017-05-21T11:22:22Z</time>
      </trkpt>
      <trkpt lat="47.81013" lon="7.21366">
        <ele>275.7</ele>
        <time>2017-05-21T11:22:26Z</time>
      </trkpt>
      <trkpt lat="47.8102" lon="7.2138">
        <ele>275.5</ele>
        <time>2017-05-21T11:22:30Z</time>
      </trkpt>
      <trkpt lat="47.81043" lon="7.21421">
        <ele>275.9</ele>
        <time>2017-05-21T11:22:34Z</time>
      </trkpt>
      <trkpt lat="47.81071" lon="7.21469">
        <ele>276.2</ele>
        <time>2017-05-21T11:22:39Z</time>
      </trkpt>
      <trkpt lat="47.81089" lon="7.21501">
        <ele>275.6</ele>
        <time>2017-05-21T11:22:43Z</time>
      </trkpt>
      <trkpt lat="47.81105" lon="7.21531">
        <ele>275.5</ele>
        <time>2017-05-21T11:22:47Z</time>
      </trkpt>
      <trkpt lat="47.8112" lon="7.2156">
        <ele>275.6</ele>
        <time>2017-05-21T11:22:51Z</time>
      </trkpt>
      <trkpt lat="47.81126" lon="7.21575">
        <ele>275</ele>
        <time>2017-05-21T11:22:56Z</time>
      </trkpt>
      <trkpt lat="47.81144" lon="7.21625">
        <ele>274.4</ele>
        <time>2017-05-21T11:22:59Z</time>
      </trkpt>
      <trkpt lat="47.81156" lon="7.21655">
        <ele>273.9</ele>
        <time>2017-05-21T11:23:03Z</time>
      </trkpt>
      <trkpt lat="47.81167" lon="7.21702">
        <ele>273.1</ele>
        <time>2017-05-21T11:23:09Z</time>
      </trkpt>
      <trkpt lat="47.81169" lon="7.21727">
        <ele>272.7</ele>
        <time>2017-05-21T11:23:12Z</time>
      </trkpt>
      <trkpt lat="47.8117" lon="7.21788">
        <ele>271.9</ele>
        <time>2017-05-21T11:23:16Z</time>
      </trkpt>
      <trkpt lat="47.81172" lon="7.21823">
        <ele>272.2</ele>
        <time>2017-05-21T11:23:21Z</time>
      </trkpt>
      <trkpt lat="47.81172" lon="7.21891">
        <ele>270.7</ele>
        <time>2017-05-21T11:23:25Z</time>
      </trkpt>
      <trkpt lat="47.81173" lon="7.21933">
        <ele>270.3</ele>
        <time>2017-05-21T11:23:29Z</time>
      </trkpt>
      <trkpt lat="47.81176" lon="7.21976">
        <ele>269.8</ele>
        <time>2017-05-21T11:23:33Z</time>
      </trkpt>
      <trkpt lat="47.8118" lon="7.2203">
        <ele>269.2</ele>
        <time>2017-05-21T11:23:37Z</time>
      </trkpt>
      <trkpt lat="47.81181" lon="7.22051">
        <ele>268.9</ele>
        <time>2017-05-21T11:23:41Z</time>
      </trkpt>
      <trkpt lat="47.81189" lon="7.22103">
        <ele>268.6</ele>
        <time>2017-05-21T11:23:45Z</time>
      </trkpt>
      <trkpt lat="47.81196" lon="7.22152">
        <ele>268.1</ele>
        <time>2017-05-21T11:23:50Z</time>
      </trkpt>
      <trkpt lat="47.81204" lon="7.22192">
        <ele>268.1</ele>
        <time>2017-05-21T11:23:54Z</time>
      </trkpt>
      <trkpt lat="47.81215" lon="7.22229">
        <ele>267.7</ele>
        <time>2017-05-21T11:23:58Z</time>
      </trkpt>
      <trkpt lat="47.81232" lon="7.22287">
        <ele>267.1</ele>
        <time>2017-05-21T11:24:03Z</time>
      </trkpt>
      <trkpt lat="47.81245" lon="7.22325">
        <ele>266.4</ele>
        <time>2017-05-21T11:24:07Z</time>
      </trkpt>
      <trkpt lat="47.8126" lon="7.22362">
        <ele>266.8</ele>
        <time>2017-05-21T11:24:11Z</time>
      </trkpt>
      <trkpt lat="47.81273" lon="7.22398">
        <ele>266.5</ele>
        <time>2017-05-21T11:24:16Z</time>
      </trkpt>
      <trkpt lat="47.81293" lon="7.22439">
        <ele>265.6</ele>
        <time>2017-05-21T11:24:20Z</time>
      </trkpt>
      <trkpt lat="47.81305" lon="7.22464">
        <ele>266.9</ele>
        <time>2017-05-21T11:24:24Z</time>
      </trkpt>
      <trkpt lat="47.81324" lon="7.22505">
        <ele>267.7</ele>
        <time>2017-05-21T11:24:29Z</time>
      </trkpt>
      <trkpt lat="47.81344" lon="7.22548">
        <ele>268.2</ele>
        <time>2017-05-21T11:24:33Z</time>
      </trkpt>
      <trkpt lat="47.81357" lon="7.22573">
        <ele>268.3</ele>
        <time>2017-05-21T11:24:37Z</time>
      </trkpt>
      <trkpt lat="47.81382" lon="7.22629">
        <ele>267.9</ele>
        <time>2017-05-21T11:24:42Z</time>
      </trkpt>
      <trkpt lat="47.81398" lon="7.22664">
        <ele>266.9</ele>
        <time>2017-05-21T11:24:46Z</time>
      </trkpt>
      <trkpt lat="47.81409" lon="7.22703">
        <ele>266.7</ele>
        <time>2017-05-21T11:24:51Z</time>
      </trkpt>
      <trkpt lat="47.81421" lon="7.22738">
        <ele>265.8</ele>
        <time>2017-05-21T11:24:55Z</time>
      </trkpt>
      <trkpt lat="47.81437" lon="7.22784">
        <ele>265.9</ele>
        <time>2017-05-21T11:24:59Z</time>
      </trkpt>
      <trkpt lat="47.81441" lon="7.22804">
        <ele>265.7</ele>
        <time>2017-05-21T11:25:03Z</time>
      </trkpt>
      <trkpt lat="47.81449" lon="7.22861">
        <ele>264.4</ele>
        <time>2017-05-21T11:25:07Z</time>
      </trkpt>
      <trkpt lat="47.81454" lon="7.22894">
        <ele>263.4</ele>
        <time>2017-05-21T11:25:11Z</time>
      </trkpt>
      <trkpt lat="47.81466" lon="7.22956">
        <ele>262.1</ele>
        <time>2017-05-21T11:25:15Z</time>
      </trkpt>
      <trkpt lat="47.81473" lon="7.22995">
        <ele>260.7</ele>
        <time>2017-05-21T11:25:20Z</time>
      </trkpt>
      <trkpt lat="47.8148" lon="7.23044">
        <ele>258.9</ele>
        <time>2017-05-21T11:25:25Z</time>
      </trkpt>
      <trkpt lat="47.81485" lon="7.23084">
        <ele>257.8</ele>
        <time>2017-05-21T11:25:29Z</time>
      </trkpt>
      <trkpt lat="47.8149" lon="7.23134">
        <ele>257.3</ele>
        <time>2017-05-21T11:25:33Z</time>
      </trkpt>
      <trkpt lat="47.81495" lon="7.23175">
        <ele>256.6</ele>
        <time>2017-05-21T11:25:37Z</time>
      </trkpt>
      <trkpt lat="47.81497" lon="7.23206">
        <ele>255.9</ele>
        <time>2017-05-21T11:25:41Z</time>
      </trkpt>
      <trkpt lat="47.81503" lon="7.23259">
        <ele>256.8</ele>
        <time>2017-05-21T11:25:46Z</time>
      </trkpt>
      <trkpt lat="47.81509" lon="7.23298">
        <ele>256</ele>
        <time>2017-05-21T11:25:50Z</time>
      </trkpt>
      <trkpt lat="47.81513" lon="7.23339">
        <ele>255.4</ele>
        <time>2017-05-21T11:25:54Z</time>
      </trkpt>
      <trkpt lat="47.81518" lon="7.23383">
        <ele>254.9</ele>
        <time>2017-05-21T11:25:58Z</time>
      </trkpt>
      <trkpt lat="47.81524" lon="7.23426">
        <ele>255.3</ele>
        <time>2017-05-21T11:26:02Z</time>
      </trkpt>
      <trkpt lat="47.81532" lon="7.23467">
        <ele>254.3</ele>
        <time>2017-05-21T11:26:07Z</time>
      </trkpt>
      <trkpt lat="47.8154" lon="7.2353">
        <ele>254.8</ele>
        <time>2017-05-21T11:26:10Z</time>
      </trkpt>
      <trkpt lat="47.81546" lon="7.23571">
        <ele>254.4</ele>
        <time>2017-05-21T11:26:14Z</time>
      </trkpt>
      <trkpt lat="47.81555" lon="7.23608">
        <ele>253</ele>
        <time>2017-05-21T11:26:20Z</time>
      </trkpt>
      <trkpt lat="47.81562" lon="7.23646">
        <ele>253</ele>
        <time>2017-05-21T11:26:23Z</time>
      </trkpt>
      <trkpt lat="47.81571" lon="7.23684">
        <ele>253.4</ele>
        <time>2017-05-21T11:26:27Z</time>
      </trkpt>
      <trkpt lat="47.81581" lon="7.2372">
        <ele>254.2</ele>
        <time>2017-05-21T11:26:32Z</time>
      </trkpt>
      <trkpt lat="47.8159" lon="7.23745">
        <ele>254.1</ele>
        <time>2017-05-21T11:26:36Z</time>
      </trkpt>
      <trkpt lat="47.81606" lon="7.23797">
        <ele>254.8</ele>
        <time>2017-05-21T11:26:41Z</time>
      </trkpt>
      <trkpt lat="47.8162" lon="7.2383">
        <ele>255.2</ele>
        <time>2017-05-21T11:26:44Z</time>
      </trkpt>
      <trkpt lat="47.81627" lon="7.23846">
        <ele>255.4</ele>
        <time>2017-05-21T11:26:48Z</time>
      </trkpt>
      <trkpt lat="47.81644" lon="7.23887">
        <ele>255.7</ele>
        <time>2017-05-21T11:26:52Z</time>
      </trkpt>
      <trkpt lat="47.81661" lon="7.23918">
        <ele>255.2</ele>
        <time>2017-05-21T11:26:56Z</time>
      </trkpt>
      <trkpt lat="47.81688" lon="7.23962">
        <ele>253.9</ele>
        <time>2017-05-21T11:27:00Z</time>
      </trkpt>
      <trkpt lat="47.81701" lon="7.23983">
        <ele>253.5</ele>
        <time>2017-05-21T11:27:05Z</time>
      </trkpt>
      <trkpt lat="47.81715" lon="7.24005">
        <ele>254.2</ele>
        <time>2017-05-21T11:27:08Z</time>
      </trkpt>
      <trkpt lat="47.81743" lon="7.24048">
        <ele>254.4</ele>
        <time>2017-05-21T11:27:12Z</time>
      </trkpt>
      <trkpt lat="47.8176" lon="7.24074">
        <ele>254.9</ele>
        <time>2017-05-21T11:27:17Z</time>
      </trkpt>
      <trkpt lat="47.81773" lon="7.24092">
        <ele>254.6</ele>
        <time>2017-05-21T11:27:21Z</time>
      </trkpt>
      <trkpt lat="47.81788" lon="7.24108">
        <ele>254.7</ele>
        <time>2017-05-21T11:27:25Z</time>
      </trkpt>
      <trkpt lat="47.81817" lon="7.24144">
        <ele>254.9</ele>
        <time>2017-05-21T11:27:29Z</time>
      </trkpt>
      <trkpt lat="47.81838" lon="7.24167">
        <ele>255</ele>
        <time>2017-05-21T11:27:33Z</time>
      </trkpt>
      <trkpt lat="47.81862" lon="7.24198">
        <ele>255.8</ele>
        <time>2017-05-21T11:27:38Z</time>
      </trkpt>
      <trkpt lat="47.81879" lon="7.24224">
        <ele>255.6</ele>
        <time>2017-05-21T11:27:42Z</time>
      </trkpt>
      <trkpt lat="47.81895" lon="7.24253">
        <ele>256</ele>
        <time>2017-05-21T11:27:46Z</time>
      </trkpt>
      <trkpt lat="47.8191" lon="7.24284">
        <ele>257.1</ele>
        <time>2017-05-21T11:27:51Z</time>
      </trkpt>
      <trkpt lat="47.81927" lon="7.24322">
        <ele>257.7</ele>
        <time>2017-05-21T11:27:55Z</time>
      </trkpt>
      <trkpt lat="47.81931" lon="7.24347">
        <ele>257.2</ele>
        <time>2017-05-21T11:27:59Z</time>
      </trkpt>
      <trkpt lat="47.81917" lon="7.24388">
        <ele>256.5</ele>
        <time>2017-05-21T11:28:03Z</time>
      </trkpt>
      <trkpt lat="47.81929" lon="7.24416">
        <ele>257</ele>
        <time>2017-05-21T11:28:08Z</time>
      </trkpt>
      <trkpt lat="47.81956" lon="7.24454">
        <ele>258.1</ele>
        <time>2017-05-21T11:28:13Z</time>
      </trkpt>
      <trkpt lat="47.81971" lon="7.24485">
        <ele>257.9</ele>
        <time>2017-05-21T11:28:17Z</time>
      </trkpt>
      <trkpt lat="47.81983" lon="7.24518">
        <ele>257.7</ele>
        <time>2017-05-21T11:28:21Z</time>
      </trkpt>
      <trkpt lat="47.81992" lon="7.24553">
        <ele>257.5</ele>
        <time>2017-05-21T11:28:26Z</time>
      </trkpt>
      <trkpt lat="47.82001" lon="7.24589">
        <ele>257.5</ele>
        <time>2017-05-21T11:28:30Z</time>
      </trkpt>
      <trkpt lat="47.82012" lon="7.24623">
        <ele>257.7</ele>
        <time>2017-05-21T11:28:34Z</time>
      </trkpt>
      <trkpt lat="47.82023" lon="7.24656">
        <ele>257.1</ele>
        <time>2017-05-21T11:28:38Z</time>
      </trkpt>
      <trkpt lat="47.82042" lon="7.24696">
        <ele>256.7</ele>
        <time>2017-05-21T11:28:43Z</time>
      </trkpt>
      <trkpt lat="47.82064" lon="7.24731">
        <ele>255.8</ele>
        <time>2017-05-21T11:28:47Z</time>
      </trkpt>
      <trkpt lat="47.82078" lon="7.24753">
        <ele>254.9</ele>
        <time>2017-05-21T11:28:51Z</time>
      </trkpt>
      <trkpt lat="47.82097" lon="7.2478">
        <ele>255</ele>
        <time>2017-05-21T11:28:55Z</time>
      </trkpt>
      <trkpt lat="47.82117" lon="7.24805">
        <ele>255.1</ele>
        <time>2017-05-21T11:28:59Z</time>
      </trkpt>
      <trkpt lat="47.82142" lon="7.24834">
        <ele>256</ele>
        <time>2017-05-21T11:29:04Z</time>
      </trkpt>
      <trkpt lat="47.82163" lon="7.24855">
        <ele>256.1</ele>
        <time>2017-05-21T11:29:07Z</time>
      </trkpt>
      <trkpt lat="47.82184" lon="7.24875">
        <ele>257.4</ele>
        <time>2017-05-21T11:29:11Z</time>
      </trkpt>
      <trkpt lat="47.822" lon="7.2489">
        <ele>257.2</ele>
        <time>2017-05-21T11:29:16Z</time>
      </trkpt>
      <trkpt lat="47.82224" lon="7.24923">
        <ele>257.1</ele>
        <time>2017-05-21T11:29:20Z</time>
      </trkpt>
      <trkpt lat="47.82238" lon="7.24954">
        <ele>256.9</ele>
        <time>2017-05-21T11:29:24Z</time>
      </trkpt>
      <trkpt lat="47.82253" lon="7.24993">
        <ele>256.9</ele>
        <time>2017-05-21T11:29:29Z</time>
      </trkpt>
      <trkpt lat="47.8226" lon="7.25015">
        <ele>257</ele>
        <time>2017-05-21T11:29:33Z</time>
      </trkpt>
      <trkpt lat="47.82267" lon="7.25057">
        <ele>256.8</ele>
        <time>2017-05-21T11:29:38Z</time>
      </trkpt>
      <trkpt lat="47.82275" lon="7.25066">
        <ele>257</ele>
        <time>2017-05-21T11:29:42Z</time>
      </trkpt>
      <trkpt lat="47.823" lon="7.25058">
        <ele>257.7</ele>
        <time>2017-05-21T11:29:47Z</time>
      </trkpt>
      <trkpt lat="47.82319" lon="7.25051">
        <ele>257.8</ele>
        <time>2017-05-21T11:29:51Z</time>
      </trkpt>
      <trkpt lat="47.82338" lon="7.25046">
        <ele>257.9</ele>
        <time>2017-05-21T11:29:55Z</time>
      </trkpt>
      <trkpt lat="47.82368" lon="7.25041">
        <ele>258</ele>
        <time>2017-05-21T11:30:01Z</time>
      </trkpt>
      <trkpt lat="47.82389" lon="7.25034">
        <ele>258</ele>
        <time>2017-05-21T11:30:04Z</time>
      </trkpt>
      <trkpt lat="47.82408" lon="7.25029">
        <ele>258</ele>
        <time>2017-05-21T11:30:08Z</time>
      </trkpt>
      <trkpt lat="47.82426" lon="7.25033">
        <ele>258.3</ele>
        <time>2017-05-21T11:30:13Z</time>
      </trkpt>
      <trkpt lat="47.82448" lon="7.25036">
        <ele>258.7</ele>
        <time>2017-05-21T11:30:17Z</time>
      </trkpt>
      <trkpt lat="47.82473" lon="7.25039">
        <ele>258.4</ele>
        <time>2017-05-21T11:30:21Z</time>
      </trkpt>
      <trkpt lat="47.82498" lon="7.25044">
        <ele>258.4</ele>
        <time>2017-05-21T11:30:25Z</time>
      </trkpt>
      <trkpt lat="47.82531" lon="7.25045">
        <ele>258.7</ele>
        <time>2017-05-21T11:30:30Z</time>
      </trkpt>
      <trkpt lat="47.82545" lon="7.25058">
        <ele>258.5</ele>
        <time>2017-05-21T11:30:35Z</time>
      </trkpt>
      <trkpt lat="47.82544" lon="7.25089">
        <ele>257.8</ele>
        <time>2017-05-21T11:30:39Z</time>
      </trkpt>
      <trkpt lat="47.8254" lon="7.25122">
        <ele>257.2</ele>
        <time>2017-05-21T11:30:43Z</time>
      </trkpt>
      <trkpt lat="47.82533" lon="7.25154">
        <ele>257</ele>
        <time>2017-05-21T11:30:47Z</time>
      </trkpt>
      <trkpt lat="47.82519" lon="7.25191">
        <ele>256.4</ele>
        <time>2017-05-21T11:30:52Z</time>
      </trkpt>
      <trkpt lat="47.82505" lon="7.25219">
        <ele>255.9</ele>
        <time>2017-05-21T11:30:56Z</time>
      </trkpt>
      <trkpt lat="47.82513" lon="7.25259">
        <ele>254.6</ele>
        <time>2017-05-21T11:31:00Z</time>
      </trkpt>
      <trkpt lat="47.82518" lon="7.25275">
        <ele>254.7</ele>
        <time>2017-05-21T11:31:04Z</time>
      </trkpt>
      <trkpt lat="47.82533" lon="7.25316">
        <ele>254.9</ele>
        <time>2017-05-21T11:31:08Z</time>
      </trkpt>
      <trkpt lat="47.82546" lon="7.25346">
        <ele>255.2</ele>
        <time>2017-05-21T11:31:13Z</time>
      </trkpt>
      <trkpt lat="47.82553" lon="7.25395">
        <ele>254.1</ele>
        <time>2017-05-21T11:31:17Z</time>
      </trkpt>
      <trkpt lat="47.8255" lon="7.2543">
        <ele>253.8</ele>
        <time>2017-05-21T11:31:21Z</time>
      </trkpt>
      <trkpt lat="47.82553" lon="7.25457">
        <ele>253.1</ele>
        <time>2017-05-21T11:31:26Z</time>
      </trkpt>
      <trkpt lat="47.82565" lon="7.2551">
        <ele>253.7</ele>
        <time>2017-05-21T11:31:31Z</time>
      </trkpt>
      <trkpt lat="47.82577" lon="7.25542">
        <ele>253.9</ele>
        <time>2017-05-21T11:31:35Z</time>
      </trkpt>
      <trkpt lat="47.8259" lon="7.25572">
        <ele>254</ele>
        <time>2017-05-21T11:31:39Z</time>
      </trkpt>
      <trkpt lat="47.82617" lon="7.25611">
        <ele>253.7</ele>
        <time>2017-05-21T11:31:44Z</time>
      </trkpt>
      <trkpt lat="47.82636" lon="7.25637">
        <ele>254</ele>
        <time>2017-05-21T11:31:48Z</time>
      </trkpt>
      <trkpt lat="47.82655" lon="7.25661">
        <ele>254.5</ele>
        <time>2017-05-21T11:31:52Z</time>
      </trkpt>
      <trkpt lat="47.82672" lon="7.25686">
        <ele>254.4</ele>
        <time>2017-05-21T11:31:56Z</time>
      </trkpt>
      <trkpt lat="47.82679" lon="7.257">
        <ele>254.4</ele>
        <time>2017-05-21T11:32:00Z</time>
      </trkpt>
      <trkpt lat="47.8269" lon="7.25752">
        <ele>253.5</ele>
        <time>2017-05-21T11:32:04Z</time>
      </trkpt>
      <trkpt lat="47.82698" lon="7.25776">
        <ele>252.3</ele>
        <time>2017-05-21T11:32:08Z</time>
      </trkpt>
      <trkpt lat="47.82716" lon="7.25814">
        <ele>252.6</ele>
        <time>2017-05-21T11:32:13Z</time>
      </trkpt>
      <trkpt lat="47.82732" lon="7.25841">
        <ele>252.9</ele>
        <time>2017-05-21T11:32:16Z</time>
      </trkpt>
      <trkpt lat="47.8275" lon="7.25874">
        <ele>253.1</ele>
        <time>2017-05-21T11:32:20Z</time>
      </trkpt>
      <trkpt lat="47.82766" lon="7.25901">
        <ele>253.7</ele>
        <time>2017-05-21T11:32:25Z</time>
      </trkpt>
      <trkpt lat="47.82774" lon="7.25913">
        <ele>253.8</ele>
        <time>2017-05-21T11:32:29Z</time>
      </trkpt>
      <trkpt lat="47.82799" lon="7.2594">
        <ele>252.7</ele>
        <time>2017-05-21T11:32:33Z</time>
      </trkpt>
      <trkpt lat="47.82823" lon="7.25968">
        <ele>252.6</ele>
        <time>2017-05-21T11:32:37Z</time>
      </trkpt>
      <trkpt lat="47.82841" lon="7.25989">
        <ele>252.3</ele>
        <time>2017-05-21T11:32:41Z</time>
      </trkpt>
      <trkpt lat="47.82856" lon="7.26013">
        <ele>251.8</ele>
        <time>2017-05-21T11:32:46Z</time>
      </trkpt>
      <trkpt lat="47.8286" lon="7.26058">
        <ele>250.9</ele>
        <time>2017-05-21T11:32:50Z</time>
      </trkpt>
      <trkpt lat="47.8286" lon="7.26077">
        <ele>250.2</ele>
        <time>2017-05-21T11:32:54Z</time>
      </trkpt>
      <trkpt lat="47.82859" lon="7.26126">
        <ele>249.5</ele>
        <time>2017-05-21T11:32:58Z</time>
      </trkpt>
      <trkpt lat="47.82858" lon="7.26185">
        <ele>250</ele>
        <time>2017-05-21T11:33:02Z</time>
      </trkpt>
      <trkpt lat="47.82858" lon="7.26204">
        <ele>249.9</ele>
        <time>2017-05-21T11:33:07Z</time>
      </trkpt>
      <trkpt lat="47.82859" lon="7.26251">
        <ele>248.6</ele>
        <time>2017-05-21T11:33:12Z</time>
      </trkpt>
      <trkpt lat="47.82857" lon="7.26303">
        <ele>248</ele>
        <time>2017-05-21T11:33:16Z</time>
      </trkpt>
      <trkpt lat="47.82856" lon="7.26325">
        <ele>248.2</ele>
        <time>2017-05-21T11:33:21Z</time>
      </trkpt>
      <trkpt lat="47.82853" lon="7.26365">
        <ele>249.4</ele>
        <time>2017-05-21T11:33:25Z</time>
      </trkpt>
      <trkpt lat="47.82852" lon="7.26391">
        <ele>249.3</ele>
        <time>2017-05-21T11:33:30Z</time>
      </trkpt>
      <trkpt lat="47.82849" lon="7.26418">
        <ele>250.5</ele>
        <time>2017-05-21T11:33:34Z</time>
      </trkpt>
      <trkpt lat="47.82846" lon="7.26452">
        <ele>251.1</ele>
        <time>2017-05-21T11:33:38Z</time>
      </trkpt>
      <trkpt lat="47.82844" lon="7.26482">
        <ele>252.2</ele>
        <time>2017-05-21T11:33:43Z</time>
      </trkpt>
      <trkpt lat="47.8284" lon="7.26518">
        <ele>252.3</ele>
        <time>2017-05-21T11:33:47Z</time>
      </trkpt>
      <trkpt lat="47.82838" lon="7.26542">
        <ele>252.3</ele>
        <time>2017-05-21T11:33:51Z</time>
      </trkpt>
      <trkpt lat="47.82835" lon="7.26567">
        <ele>252.5</ele>
        <time>2017-05-21T11:33:56Z</time>
      </trkpt>
      <trkpt lat="47.8283" lon="7.26623">
        <ele>251.9</ele>
        <time>2017-05-21T11:34:00Z</time>
      </trkpt>
      <trkpt lat="47.82826" lon="7.26668">
        <ele>251</ele>
        <time>2017-05-21T11:34:04Z</time>
      </trkpt>
      <trkpt lat="47.82807" lon="7.26726">
        <ele>249</ele>
        <time>2017-05-21T11:34:08Z</time>
      </trkpt>
      <trkpt lat="47.82784" lon="7.26739">
        <ele>248.3</ele>
        <time>2017-05-21T11:34:12Z</time>
      </trkpt>
      <trkpt lat="47.82771" lon="7.26752">
        <ele>247.3</ele>
        <time>2017-05-21T11:34:16Z</time>
      </trkpt>
      <trkpt lat="47.82792" lon="7.26785">
        <ele>246.7</ele>
        <time>2017-05-21T11:34:20Z</time>
      </trkpt>
      <trkpt lat="47.8281" lon="7.26791">
        <ele>247</ele>
        <time>2017-05-21T11:34:24Z</time>
      </trkpt>
      <trkpt lat="47.82845" lon="7.26793">
        <ele>247.1</ele>
        <time>2017-05-21T11:34:28Z</time>
      </trkpt>
      <trkpt lat="47.82862" lon="7.2681">
        <ele>247.3</ele>
        <time>2017-05-21T11:34:33Z</time>
      </trkpt>
      <trkpt lat="47.82863" lon="7.26825">
        <ele>247.2</ele>
        <time>2017-05-21T11:34:37Z</time>
      </trkpt>
      <trkpt lat="47.82862" lon="7.26876">
        <ele>246.4</ele>
        <time>2017-05-21T11:34:41Z</time>
      </trkpt>
      <trkpt lat="47.82861" lon="7.26901">
        <ele>246</ele>
        <time>2017-05-21T11:34:45Z</time>
      </trkpt>
      <trkpt lat="47.82857" lon="7.26948">
        <ele>245.9</ele>
        <time>2017-05-21T11:34:50Z</time>
      </trkpt>
      <trkpt lat="47.8285" lon="7.26986">
        <ele>245.2</ele>
        <time>2017-05-21T11:34:53Z</time>
      </trkpt>
      <trkpt lat="47.82855" lon="7.27014">
        <ele>245.1</ele>
        <time>2017-05-21T11:34:58Z</time>
      </trkpt>
      <trkpt lat="47.82865" lon="7.27059">
        <ele>245.6</ele>
        <time>2017-05-21T11:35:03Z</time>
      </trkpt>
      <trkpt lat="47.8286" lon="7.27105">
        <ele>245.3</ele>
        <time>2017-05-21T11:35:07Z</time>
      </trkpt>
      <trkpt lat="47.82855" lon="7.27134">
        <ele>244.9</ele>
        <time>2017-05-21T11:35:12Z</time>
      </trkpt>
      <trkpt lat="47.8285" lon="7.27197">
        <ele>244.1</ele>
        <time>2017-05-21T11:35:16Z</time>
      </trkpt>
      <trkpt lat="47.82852" lon="7.27234">
        <ele>244.2</ele>
        <time>2017-05-21T11:35:20Z</time>
      </trkpt>
      <trkpt lat="47.82872" lon="7.27252">
        <ele>244.5</ele>
        <time>2017-05-21T11:35:25Z</time>
      </trkpt>
      <trkpt lat="47.82899" lon="7.27266">
        <ele>243.6</ele>
        <time>2017-05-21T11:35:29Z</time>
      </trkpt>
      <trkpt lat="47.82941" lon="7.27279">
        <ele>241.9</ele>
        <time>2017-05-21T11:35:34Z</time>
      </trkpt>
      <trkpt lat="47.8297" lon="7.27291">
        <ele>241.2</ele>
        <time>2017-05-21T11:35:38Z</time>
      </trkpt>
      <trkpt lat="47.82991" lon="7.27299">
        <ele>241</ele>
        <time>2017-05-21T11:35:42Z</time>
      </trkpt>
      <trkpt lat="47.83022" lon="7.27312">
        <ele>241.7</ele>
        <time>2017-05-21T11:35:47Z</time>
      </trkpt>
      <trkpt lat="47.83041" lon="7.27319">
        <ele>242</ele>
        <time>2017-05-21T11:35:50Z</time>
      </trkpt>
      <trkpt lat="47.83075" lon="7.27329">
        <ele>244.6</ele>
        <time>2017-05-21T11:35:55Z</time>
      </trkpt>
      <trkpt lat="47.83088" lon="7.27333">
        <ele>244.6</ele>
        <time>2017-05-21T11:35:59Z</time>
      </trkpt>
      <trkpt lat="47.83123" lon="7.27343">
        <ele>245.2</ele>
        <time>2017-05-21T11:36:03Z</time>
      </trkpt>
      <trkpt lat="47.83158" lon="7.27353">
        <ele>245.2</ele>
        <time>2017-05-21T11:36:07Z</time>
      </trkpt>
      <trkpt lat="47.83192" lon="7.27364">
        <ele>245.2</ele>
        <time>2017-05-21T11:36:11Z</time>
      </trkpt>
      <trkpt lat="47.83217" lon="7.27379">
        <ele>244.5</ele>
        <time>2017-05-21T11:36:15Z</time>
      </trkpt>
      <trkpt lat="47.83231" lon="7.27391">
        <ele>244.2</ele>
        <time>2017-05-21T11:36:20Z</time>
      </trkpt>
      <trkpt lat="47.83267" lon="7.27417">
        <ele>242.4</ele>
        <time>2017-05-21T11:36:25Z</time>
      </trkpt>
      <trkpt lat="47.83308" lon="7.2742">
        <ele>242.6</ele>
        <time>2017-05-21T11:36:29Z</time>
      </trkpt>
      <trkpt lat="47.83337" lon="7.27423">
        <ele>243</ele>
        <time>2017-05-21T11:36:33Z</time>
      </trkpt>
      <trkpt lat="47.8336" lon="7.27429">
        <ele>243</ele>
        <time>2017-05-21T11:36:37Z</time>
      </trkpt>
      <trkpt lat="47.83396" lon="7.2744">
        <ele>243</ele>
        <time>2017-05-21T11:36:41Z</time>
      </trkpt>
      <trkpt lat="47.83423" lon="7.27451">
        <ele>242.3</ele>
        <time>2017-05-21T11:36:46Z</time>
      </trkpt>
      <trkpt lat="47.83448" lon="7.27481">
        <ele>242</ele>
        <time>2017-05-21T11:36:50Z</time>
      </trkpt>
      <trkpt lat="47.83451" lon="7.27515">
        <ele>241.3</ele>
        <time>2017-05-21T11:36:54Z</time>
      </trkpt>
      <trkpt lat="47.83454" lon="7.27553">
        <ele>239.8</ele>
        <time>2017-05-21T11:36:58Z</time>
      </trkpt>
      <trkpt lat="47.83474" lon="7.276">
        <ele>236.4</ele>
        <time>2017-05-21T11:37:03Z</time>
      </trkpt>
      <trkpt lat="47.83483" lon="7.27633">
        <ele>236.1</ele>
        <time>2017-05-21T11:37:07Z</time>
      </trkpt>
      <trkpt lat="47.83497" lon="7.27654">
        <ele>235.4</ele>
        <time>2017-05-21T11:37:11Z</time>
      </trkpt>
      <trkpt lat="47.83527" lon="7.27675">
        <ele>235</ele>
        <time>2017-05-21T11:37:16Z</time>
      </trkpt>
      <trkpt lat="47.83551" lon="7.27685">
        <ele>235.7</ele>
        <time>2017-05-21T11:37:20Z</time>
      </trkpt>
      <trkpt lat="47.83575" lon="7.27696">
        <ele>236.3</ele>
        <time>2017-05-21T11:37:24Z</time>
      </trkpt>
      <trkpt lat="47.83598" lon="7.27705">
        <ele>236.3</ele>
        <time>2017-05-21T11:37:28Z</time>
      </trkpt>
      <trkpt lat="47.83633" lon="7.27721">
        <ele>237.8</ele>
        <time>2017-05-21T11:37:33Z</time>
      </trkpt>
      <trkpt lat="47.83654" lon="7.27739">
        <ele>238.6</ele>
        <time>2017-05-21T11:37:37Z</time>
      </trkpt>
      <trkpt lat="47.83672" lon="7.27761">
        <ele>238.9</ele>
        <time>2017-05-21T11:37:41Z</time>
      </trkpt>
      <trkpt lat="47.83689" lon="7.27786">
        <ele>239.4</ele>
        <time>2017-05-21T11:37:45Z</time>
      </trkpt>
      <trkpt lat="47.83708" lon="7.27813">
        <ele>239.6</ele>
        <time>2017-05-21T11:37:50Z</time>
      </trkpt>
      <trkpt lat="47.83726" lon="7.2785">
        <ele>239.4</ele>
        <time>2017-05-21T11:37:54Z</time>
      </trkpt>
      <trkpt lat="47.83737" lon="7.27873">
        <ele>239.8</ele>
        <time>2017-05-21T11:37:58Z</time>
      </trkpt>
      <trkpt lat="47.83754" lon="7.27911">
        <ele>239.5</ele>
        <time>2017-05-21T11:38:03Z</time>
      </trkpt>
      <trkpt lat="47.83765" lon="7.27934">
        <ele>240.2</ele>
        <time>2017-05-21T11:38:06Z</time>
      </trkpt>
      <trkpt lat="47.83781" lon="7.27973">
        <ele>239.9</ele>
        <time>2017-05-21T11:38:10Z</time>
      </trkpt>
      <trkpt lat="47.83794" lon="7.28015">
        <ele>239</ele>
        <time>2017-05-21T11:38:15Z</time>
      </trkpt>
      <trkpt lat="47.83799" lon="7.28032">
        <ele>239</ele>
        <time>2017-05-21T11:38:19Z</time>
      </trkpt>
      <trkpt lat="47.83813" lon="7.28083">
        <ele>238.5</ele>
        <time>2017-05-21T11:38:23Z</time>
      </trkpt>
      <trkpt lat="47.83821" lon="7.28109">
        <ele>237.9</ele>
        <time>2017-05-21T11:38:28Z</time>
      </trkpt>
      <trkpt lat="47.83837" lon="7.28158">
        <ele>236.9</ele>
        <time>2017-05-21T11:38:32Z</time>
      </trkpt>
      <trkpt lat="47.83849" lon="7.2819">
        <ele>236.6</ele>
        <time>2017-05-21T11:38:37Z</time>
      </trkpt>
      <trkpt lat="47.83859" lon="7.28212">
        <ele>236.6</ele>
        <time>2017-05-21T11:38:41Z</time>
      </trkpt>
      <trkpt lat="47.83884" lon="7.28254">
        <ele>235.4</ele>
        <time>2017-05-21T11:38:45Z</time>
      </trkpt>
      <trkpt lat="47.83897" lon="7.28273">
        <ele>235.3</ele>
        <time>2017-05-21T11:38:49Z</time>
      </trkpt>
      <trkpt lat="47.8392" lon="7.28305">
        <ele>235.3</ele>
        <time>2017-05-21T11:38:54Z</time>
      </trkpt>
      <trkpt lat="47.83939" lon="7.2833">
        <ele>235.6</ele>
        <time>2017-05-21T11:38:58Z</time>
      </trkpt>
      <trkpt lat="47.83958" lon="7.28352">
        <ele>235.7</ele>
        <time>2017-05-21T11:39:02Z</time>
      </trkpt>
      <trkpt lat="47.83976" lon="7.2837">
        <ele>236.2</ele>
        <time>2017-05-21T11:39:07Z</time>
      </trkpt>
      <trkpt lat="47.84003" lon="7.2839">
        <ele>236.4</ele>
        <time>2017-05-21T11:39:11Z</time>
      </trkpt>
      <trkpt lat="47.84024" lon="7.28402">
        <ele>236.6</ele>
        <time>2017-05-21T11:39:15Z</time>
      </trkpt>
      <trkpt lat="47.84048" lon="7.2841">
        <ele>236.5</ele>
        <time>2017-05-21T11:39:19Z</time>
      </trkpt>
      <trkpt lat="47.84074" lon="7.28417">
        <ele>237.2</ele>
        <time>2017-05-21T11:39:23Z</time>
      </trkpt>
      <trkpt lat="47.84109" lon="7.28436">
        <ele>238.5</ele>
        <time>2017-05-21T11:39:28Z</time>
      </trkpt>
      <trkpt lat="47.8412" lon="7.28443">
        <ele>238.6</ele>
        <time>2017-05-21T11:39:32Z</time>
      </trkpt>
      <trkpt lat="47.84144" lon="7.28461">
        <ele>238.6</ele>
        <time>2017-05-21T11:39:36Z</time>
      </trkpt>
      <trkpt lat="47.84171" lon="7.28476">
        <ele>238.4</ele>
        <time>2017-05-21T11:39:41Z</time>
      </trkpt>
      <trkpt lat="47.84194" lon="7.28489">
        <ele>238.6</ele>
        <time>2017-05-21T11:39:45Z</time>
      </trkpt>
      <trkpt lat="47.8422" lon="7.28504">
        <ele>238.8</ele>
        <time>2017-05-21T11:39:49Z</time>
      </trkpt>
      <trkpt lat="47.84233" lon="7.28515">
        <ele>238.5</ele>
        <time>2017-05-21T11:39:53Z</time>
      </trkpt>
      <trkpt lat="47.84247" lon="7.28549">
        <ele>237.6</ele>
        <time>2017-05-21T11:39:58Z</time>
      </trkpt>
      <trkpt lat="47.84266" lon="7.2857">
        <ele>237.6</ele>
        <time>2017-05-21T11:40:02Z</time>
      </trkpt>
      <trkpt lat="47.84293" lon="7.28599">
        <ele>236.7</ele>
        <time>2017-05-21T11:40:06Z</time>
      </trkpt>
      <trkpt lat="47.84313" lon="7.28623">
        <ele>236.6</ele>
        <time>2017-05-21T11:40:09Z</time>
      </trkpt>
      <trkpt lat="47.8432" lon="7.28626">
        <ele>236.6</ele>
        <time>2017-05-21T11:40:14Z</time>
      </trkpt>
      <trkpt lat="47.84324" lon="7.28604">
        <ele>236.5</ele>
        <time>2017-05-21T11:40:18Z</time>
      </trkpt>
      <trkpt lat="47.84346" lon="7.28595">
        <ele>237.5</ele>
        <time>2017-05-21T11:40:22Z</time>
      </trkpt>
      <trkpt lat="47.84358" lon="7.28607">
        <ele>237.2</ele>
        <time>2017-05-21T11:40:27Z</time>
      </trkpt>
      <trkpt lat="47.84375" lon="7.2863">
        <ele>237</ele>
        <time>2017-05-21T11:40:32Z</time>
      </trkpt>
      <trkpt lat="47.84401" lon="7.28669">
        <ele>236.2</ele>
        <time>2017-05-21T11:40:36Z</time>
      </trkpt>
      <trkpt lat="47.84393" lon="7.28688">
        <ele>236.5</ele>
        <time>2017-05-21T11:40:41Z</time>
      </trkpt>
      <trkpt lat="47.84367" lon="7.28725">
        <ele>237.4</ele>
        <time>2017-05-21T11:40:45Z</time>
      </trkpt>
      <trkpt lat="47.84354" lon="7.28744">
        <ele>237.3</ele>
        <time>2017-05-21T11:40:49Z</time>
      </trkpt>
      <trkpt lat="47.84321" lon="7.28771">
        <ele>237.1</ele>
        <time>2017-05-21T11:40:54Z</time>
      </trkpt>
      <trkpt lat="47.84304" lon="7.28798">
        <ele>236.6</ele>
        <time>2017-05-21T11:40:58Z</time>
      </trkpt>
      <trkpt lat="47.84288" lon="7.28828">
        <ele>236.8</ele>
        <time>2017-05-21T11:41:03Z</time>
      </trkpt>
      <trkpt lat="47.84272" lon="7.28859">
        <ele>237</ele>
        <time>2017-05-21T11:41:07Z</time>
      </trkpt>
      <trkpt lat="47.8426" lon="7.28892">
        <ele>236.4</ele>
        <time>2017-05-21T11:41:11Z</time>
      </trkpt>
      <trkpt lat="47.84248" lon="7.28937">
        <ele>235.6</ele>
        <time>2017-05-21T11:41:15Z</time>
      </trkpt>
      <trkpt lat="47.84245" lon="7.28958">
        <ele>235.4</ele>
        <time>2017-05-21T11:41:19Z</time>
      </trkpt>
      <trkpt lat="47.84237" lon="7.29009">
        <ele>234.5</ele>
        <time>2017-05-21T11:41:23Z</time>
      </trkpt>
      <trkpt lat="47.84235" lon="7.29058">
        <ele>233.4</ele>
        <time>2017-05-21T11:41:27Z</time>
      </trkpt>
      <trkpt lat="47.84236" lon="7.29108">
        <ele>232.8</ele>
        <time>2017-05-21T11:41:32Z</time>
      </trkpt>
      <trkpt lat="47.84239" lon="7.29148">
        <ele>231.8</ele>
        <time>2017-05-21T11:41:36Z</time>
      </trkpt>
      <trkpt lat="47.84243" lon="7.29178">
        <ele>230.3</ele>
        <time>2017-05-21T11:41:40Z</time>
      </trkpt>
      <trkpt lat="47.84251" lon="7.29219">
        <ele>229.3</ele>
        <time>2017-05-21T11:41:44Z</time>
      </trkpt>
      <trkpt lat="47.84265" lon="7.29269">
        <ele>230.9</ele>
        <time>2017-05-21T11:41:48Z</time>
      </trkpt>
      <trkpt lat="47.84281" lon="7.29314">
        <ele>232.5</ele>
        <time>2017-05-21T11:41:52Z</time>
      </trkpt>
      <trkpt lat="47.84291" lon="7.29341">
        <ele>232.6</ele>
        <time>2017-05-21T11:41:57Z</time>
      </trkpt>
      <trkpt lat="47.84304" lon="7.29377">
        <ele>232.9</ele>
        <time>2017-05-21T11:42:01Z</time>
      </trkpt>
      <trkpt lat="47.84297" lon="7.29387">
        <ele>233.1</ele>
        <time>2017-05-21T11:42:05Z</time>
      </trkpt>
      <trkpt lat="47.84269" lon="7.29401">
        <ele>232.7</ele>
        <time>2017-05-21T11:42:09Z</time>
      </trkpt>
      <trkpt lat="47.8425" lon="7.29412">
        <ele>232.6</ele>
        <time>2017-05-21T11:42:14Z</time>
      </trkpt>
      <trkpt lat="47.84218" lon="7.29432">
        <ele>232.8</ele>
        <time>2017-05-21T11:42:18Z</time>
      </trkpt>
      <trkpt lat="47.84185" lon="7.29456">
        <ele>232.4</ele>
        <time>2017-05-21T11:42:23Z</time>
      </trkpt>
      <trkpt lat="47.84164" lon="7.29454">
        <ele>232.4</ele>
        <time>2017-05-21T11:42:27Z</time>
      </trkpt>
      <trkpt lat="47.84148" lon="7.29461">
        <ele>232.3</ele>
        <time>2017-05-21T11:42:32Z</time>
      </trkpt>
      <trkpt lat="47.84136" lon="7.2949">
        <ele>232.1</ele>
        <time>2017-05-21T11:42:36Z</time>
      </trkpt>
      <trkpt lat="47.8412" lon="7.29525">
        <ele>232</ele>
        <time>2017-05-21T11:42:40Z</time>
      </trkpt>
      <trkpt lat="47.84096" lon="7.29569">
        <ele>233</ele>
        <time>2017-05-21T11:42:45Z</time>
      </trkpt>
      <trkpt lat="47.8408" lon="7.29596">
        <ele>232.8</ele>
        <time>2017-05-21T11:42:50Z</time>
      </trkpt>
      <trkpt lat="47.84069" lon="7.29617">
        <ele>231.6</ele>
        <time>2017-05-21T11:42:53Z</time>
      </trkpt>
      <trkpt lat="47.84051" lon="7.29654">
        <ele>231.2</ele>
        <time>2017-05-21T11:42:57Z</time>
      </trkpt>
      <trkpt lat="47.84033" lon="7.29691">
        <ele>231.6</ele>
        <time>2017-05-21T11:43:03Z</time>
      </trkpt>
      <trkpt lat="47.84026" lon="7.29705">
        <ele>231.4</ele>
        <time>2017-05-21T11:43:06Z</time>
      </trkpt>
      <trkpt lat="47.84015" lon="7.29738">
        <ele>231.3</ele>
        <time>2017-05-21T11:43:10Z</time>
      </trkpt>
      <trkpt lat="47.84029" lon="7.29749">
        <ele>232.1</ele>
        <time>2017-05-21T11:43:14Z</time>
      </trkpt>
      <trkpt lat="47.84063" lon="7.29767">
        <ele>232.6</ele>
        <time>2017-05-21T11:43:19Z</time>
      </trkpt>
      <trkpt lat="47.84075" lon="7.29772">
        <ele>232.6</ele>
        <time>2017-05-21T11:43:23Z</time>
      </trkpt>
      <trkpt lat="47.84103" lon="7.2979">
        <ele>232.5</ele>
        <time>2017-05-21T11:43:28Z</time>
      </trkpt>
      <trkpt lat="47.84128" lon="7.29813">
        <ele>231.6</ele>
        <time>2017-05-21T11:43:32Z</time>
      </trkpt>
      <trkpt lat="47.84148" lon="7.29832">
        <ele>231.3</ele>
        <time>2017-05-21T11:43:36Z</time>
      </trkpt>
      <trkpt lat="47.84154" lon="7.2986">
        <ele>231.9</ele>
        <time>2017-05-21T11:43:39Z</time>
      </trkpt>
      <trkpt lat="47.84139" lon="7.29895">
        <ele>231.7</ele>
        <time>2017-05-21T11:43:44Z</time>
      </trkpt>
      <trkpt lat="47.84127" lon="7.29923">
        <ele>231.5</ele>
        <time>2017-05-21T11:43:48Z</time>
      </trkpt>
      <trkpt lat="47.84118" lon="7.29945">
        <ele>231.7</ele>
        <time>2017-05-21T11:43:52Z</time>
      </trkpt>
      <trkpt lat="47.84101" lon="7.29986">
        <ele>232.6</ele>
        <time>2017-05-21T11:43:56Z</time>
      </trkpt>
      <trkpt lat="47.84084" lon="7.30025">
        <ele>232.9</ele>
        <time>2017-05-21T11:44:00Z</time>
      </trkpt>
      <trkpt lat="47.84077" lon="7.3004">
        <ele>233.3</ele>
        <time>2017-05-21T11:44:05Z</time>
      </trkpt>
      <trkpt lat="47.84057" lon="7.30089">
        <ele>233.6</ele>
        <time>2017-05-21T11:44:10Z</time>
      </trkpt>
      <trkpt lat="47.84042" lon="7.30129">
        <ele>234</ele>
        <time>2017-05-21T11:44:14Z</time>
      </trkpt>
      <trkpt lat="47.84031" lon="7.30153">
        <ele>234</ele>
        <time>2017-05-21T11:44:18Z</time>
      </trkpt>
      <trkpt lat="47.84001" lon="7.30178">
        <ele>234</ele>
        <time>2017-05-21T11:44:23Z</time>
      </trkpt>
      <trkpt lat="47.83984" lon="7.30164">
        <ele>234</ele>
        <time>2017-05-21T11:44:27Z</time>
      </trkpt>
      <trkpt lat="47.83961" lon="7.30145">
        <ele>234.6</ele>
        <time>2017-05-21T11:44:31Z</time>
      </trkpt>
      <trkpt lat="47.83928" lon="7.30116">
        <ele>234.2</ele>
        <time>2017-05-21T11:44:36Z</time>
      </trkpt>
      <trkpt lat="47.83907" lon="7.30097">
        <ele>233.9</ele>
        <time>2017-05-21T11:44:40Z</time>
      </trkpt>
      <trkpt lat="47.83887" lon="7.30087">
        <ele>233.8</ele>
        <time>2017-05-21T11:44:44Z</time>
      </trkpt>
      <trkpt lat="47.83881" lon="7.30115">
        <ele>233.6</ele>
        <time>2017-05-21T11:44:48Z</time>
      </trkpt>
      <trkpt lat="47.83882" lon="7.30135">
        <ele>233.5</ele>
        <time>2017-05-21T11:44:52Z</time>
      </trkpt>
      <trkpt lat="47.83863" lon="7.30164">
        <ele>233.8</ele>
        <time>2017-05-21T11:44:56Z</time>
      </trkpt>
      <trkpt lat="47.83827" lon="7.30166">
        <ele>233.9</ele>
        <time>2017-05-21T11:45:00Z</time>
      </trkpt>
      <trkpt lat="47.83793" lon="7.30158">
        <ele>233.6</ele>
        <time>2017-05-21T11:45:06Z</time>
      </trkpt>
      <trkpt lat="47.83767" lon="7.30144">
        <ele>234</ele>
        <time>2017-05-21T11:45:09Z</time>
      </trkpt>
      <trkpt lat="47.83748" lon="7.30133">
        <ele>234</ele>
        <time>2017-05-21T11:45:13Z</time>
      </trkpt>
      <trkpt lat="47.83722" lon="7.30122">
        <ele>234.2</ele>
        <time>2017-05-21T11:45:17Z</time>
      </trkpt>
      <trkpt lat="47.83688" lon="7.30119">
        <ele>233.9</ele>
        <time>2017-05-21T11:45:22Z</time>
      </trkpt>
      <trkpt lat="47.83661" lon="7.30121">
        <ele>233.7</ele>
        <time>2017-05-21T11:45:26Z</time>
      </trkpt>
      <trkpt lat="47.83629" lon="7.30124">
        <ele>234.3</ele>
        <time>2017-05-21T11:45:30Z</time>
      </trkpt>
      <trkpt lat="47.83617" lon="7.30126">
        <ele>234.5</ele>
        <time>2017-05-21T11:45:34Z</time>
      </trkpt>
      <trkpt lat="47.83589" lon="7.30128">
        <ele>234.5</ele>
        <time>2017-05-21T11:45:39Z</time>
      </trkpt>
      <trkpt lat="47.83569" lon="7.3015">
        <ele>234.1</ele>
        <time>2017-05-21T11:45:42Z</time>
      </trkpt>
      <trkpt lat="47.83555" lon="7.3019">
        <ele>234.9</ele>
        <time>2017-05-21T11:45:47Z</time>
      </trkpt>
      <trkpt lat="47.8354" lon="7.30203">
        <ele>234.4</ele>
        <time>2017-05-21T11:45:51Z</time>
      </trkpt>
      <trkpt lat="47.83514" lon="7.30225">
        <ele>233.6</ele>
        <time>2017-05-21T11:45:55Z</time>
      </trkpt>
      <trkpt lat="47.835" lon="7.30237">
        <ele>233.6</ele>
        <time>2017-05-21T11:46:00Z</time>
      </trkpt>
      <trkpt lat="47.83483" lon="7.30251">
        <ele>233.8</ele>
        <time>2017-05-21T11:46:04Z</time>
      </trkpt>
      <trkpt lat="47.83472" lon="7.30261">
        <ele>234.1</ele>
        <time>2017-05-21T11:46:09Z</time>
      </trkpt>
      <trkpt lat="47.83461" lon="7.30289">
        <ele>234.3</ele>
        <time>2017-05-21T11:46:13Z</time>
      </trkpt>
      <trkpt lat="47.83449" lon="7.30322">
        <ele>234</ele>
        <time>2017-05-21T11:46:17Z</time>
      </trkpt>
      <trkpt lat="47.83433" lon="7.30364">
        <ele>234.4</ele>
        <time>2017-05-21T11:46:22Z</time>
      </trkpt>
      <trkpt lat="47.83418" lon="7.30405">
        <ele>234.7</ele>
        <time>2017-05-21T11:46:26Z</time>
      </trkpt>
      <trkpt lat="47.83406" lon="7.30439">
        <ele>234.4</ele>
        <time>2017-05-21T11:46:30Z</time>
      </trkpt>
      <trkpt lat="47.83393" lon="7.30473">
        <ele>234.2</ele>
        <time>2017-05-21T11:46:35Z</time>
      </trkpt>
      <trkpt lat="47.8338" lon="7.30507">
        <ele>234.1</ele>
        <time>2017-05-21T11:46:39Z</time>
      </trkpt>
      <trkpt lat="47.83366" lon="7.30543">
        <ele>234.2</ele>
        <time>2017-05-21T11:46:43Z</time>
      </trkpt>
      <trkpt lat="47.8335" lon="7.30588">
        <ele>235</ele>
        <time>2017-05-21T11:46:48Z</time>
      </trkpt>
      <trkpt lat="47.8334" lon="7.30615">
        <ele>235.2</ele>
        <time>2017-05-21T11:46:52Z</time>
      </trkpt>
      <trkpt lat="47.83323" lon="7.30657">
        <ele>234.6</ele>
        <time>2017-05-21T11:46:56Z</time>
      </trkpt>
      <trkpt lat="47.83306" lon="7.307">
        <ele>234.5</ele>
        <time>2017-05-21T11:47:00Z</time>
      </trkpt>
      <trkpt lat="47.83289" lon="7.30733">
        <ele>235.4</ele>
        <time>2017-05-21T11:47:04Z</time>
      </trkpt>
      <trkpt lat="47.83274" lon="7.30755">
        <ele>236</ele>
        <time>2017-05-21T11:47:08Z</time>
      </trkpt>
      <trkpt lat="47.83255" lon="7.30787">
        <ele>236.3</ele>
        <time>2017-05-21T11:47:12Z</time>
      </trkpt>
      <trkpt lat="47.83237" lon="7.30825">
        <ele>235.7</ele>
        <time>2017-05-21T11:47:16Z</time>
      </trkpt>
      <trkpt lat="47.83212" lon="7.30854">
        <ele>233.5</ele>
        <time>2017-05-21T11:47:22Z</time>
      </trkpt>
      <trkpt lat="47.83196" lon="7.30873">
        <ele>233.1</ele>
        <time>2017-05-21T11:47:25Z</time>
      </trkpt>
      <trkpt lat="47.83175" lon="7.30901">
        <ele>232.9</ele>
        <time>2017-05-21T11:47:29Z</time>
      </trkpt>
      <trkpt lat="47.83157" lon="7.30933">
        <ele>233.3</ele>
        <time>2017-05-21T11:47:34Z</time>
      </trkpt>
      <trkpt lat="47.83142" lon="7.30981">
        <ele>230.8</ele>
        <time>2017-05-21T11:47:38Z</time>
      </trkpt>
      <trkpt lat="47.83131" lon="7.31035">
        <ele>227.4</ele>
        <time>2017-05-21T11:47:43Z</time>
      </trkpt>
      <trkpt lat="47.83127" lon="7.31068">
        <ele>226.3</ele>
        <time>2017-05-21T11:47:46Z</time>
      </trkpt>
      <trkpt lat="47.83118" lon="7.31124">
        <ele>226</ele>
        <time>2017-05-21T11:47:51Z</time>
      </trkpt>
      <trkpt lat="47.83114" lon="7.31167">
        <ele>227.5</ele>
        <time>2017-05-21T11:47:55Z</time>
      </trkpt>
      <trkpt lat="47.83103" lon="7.31226">
        <ele>226.5</ele>
        <time>2017-05-21T11:48:00Z</time>
      </trkpt>
      <trkpt lat="47.83098" lon="7.31263">
        <ele>224.7</ele>
        <time>2017-05-21T11:48:04Z</time>
      </trkpt>
      <trkpt lat="47.83093" lon="7.31297">
        <ele>225.1</ele>
        <time>2017-05-21T11:48:08Z</time>
      </trkpt>
      <trkpt lat="47.8309" lon="7.31314">
        <ele>225.5</ele>
        <time>2017-05-21T11:48:12Z</time>
      </trkpt>
      <trkpt lat="47.83086" lon="7.31356">
        <ele>226</ele>
        <time>2017-05-21T11:48:16Z</time>
      </trkpt>
      <trkpt lat="47.83084" lon="7.314">
        <ele>225.5</ele>
        <time>2017-05-21T11:48:21Z</time>
      </trkpt>
      <trkpt lat="47.83083" lon="7.31435">
        <ele>224.7</ele>
        <time>2017-05-21T11:48:25Z</time>
      </trkpt>
      <trkpt lat="47.83086" lon="7.3147">
        <ele>225</ele>
        <time>2017-05-21T11:48:29Z</time>
      </trkpt>
      <trkpt lat="47.83087" lon="7.31527">
        <ele>225.4</ele>
        <time>2017-05-21T11:48:35Z</time>
      </trkpt>
      <trkpt lat="47.83085" lon="7.31565">
        <ele>225.7</ele>
        <time>2017-05-21T11:48:38Z</time>
      </trkpt>
      <trkpt lat="47.83086" lon="7.31605">
        <ele>225.7</ele>
        <time>2017-05-21T11:48:42Z</time>
      </trkpt>
      <trkpt lat="47.83087" lon="7.31645">
        <ele>225.9</ele>
        <time>2017-05-21T11:48:47Z</time>
      </trkpt>
      <trkpt lat="47.83086" lon="7.31687">
        <ele>224.7</ele>
        <time>2017-05-21T11:48:51Z</time>
      </trkpt>
      <trkpt lat="47.83087" lon="7.31729">
        <ele>223.7</ele>
        <time>2017-05-21T11:48:55Z</time>
      </trkpt>
      <trkpt lat="47.83087" lon="7.31773">
        <ele>223.3</ele>
        <time>2017-05-21T11:48:59Z</time>
      </trkpt>
      <trkpt lat="47.83087" lon="7.31837">
        <ele>223</ele>
        <time>2017-05-21T11:49:04Z</time>
      </trkpt>
      <trkpt lat="47.83087" lon="7.31859">
        <ele>223.1</ele>
        <time>2017-05-21T11:49:08Z</time>
      </trkpt>
      <trkpt lat="47.83088" lon="7.31909">
        <ele>221.6</ele>
        <time>2017-05-21T11:49:12Z</time>
      </trkpt>
      <trkpt lat="47.83088" lon="7.31961">
        <ele>221.8</ele>
        <time>2017-05-21T11:49:17Z</time>
      </trkpt>
      <trkpt lat="47.8309" lon="7.3201">
        <ele>221.8</ele>
        <time>2017-05-21T11:49:22Z</time>
      </trkpt>
      <trkpt lat="47.8309" lon="7.32029">
        <ele>222</ele>
        <time>2017-05-21T11:49:25Z</time>
      </trkpt>
      <trkpt lat="47.83089" lon="7.32077">
        <ele>222.2</ele>
        <time>2017-05-21T11:49:30Z</time>
      </trkpt>
      <trkpt lat="47.83089" lon="7.32134">
        <ele>220</ele>
        <time>2017-05-21T11:49:33Z</time>
      </trkpt>
      <trkpt lat="47.8309" lon="7.32171">
        <ele>219.7</ele>
        <time>2017-05-21T11:49:37Z</time>
      </trkpt>
      <trkpt lat="47.8309" lon="7.32207">
        <ele>220.1</ele>
        <time>2017-05-21T11:49:43Z</time>
      </trkpt>
      <trkpt lat="47.8309" lon="7.32245">
        <ele>221.2</ele>
        <time>2017-05-21T11:49:47Z</time>
      </trkpt>
      <trkpt lat="47.83091" lon="7.32281">
        <ele>221.5</ele>
        <time>2017-05-21T11:49:51Z</time>
      </trkpt>
      <trkpt lat="47.83091" lon="7.32328">
        <ele>222.2</ele>
        <time>2017-05-21T11:49:55Z</time>
      </trkpt>
      <trkpt lat="47.83091" lon="7.32346">
        <ele>221.8</ele>
        <time>2017-05-21T11:49:59Z</time>
      </trkpt>
      <trkpt lat="47.83092" lon="7.32393">
        <ele>222.4</ele>
        <time>2017-05-21T11:50:03Z</time>
      </trkpt>
      <trkpt lat="47.83092" lon="7.32449">
        <ele>223.5</ele>
        <time>2017-05-21T11:50:08Z</time>
      </trkpt>
      <trkpt lat="47.83092" lon="7.32488">
        <ele>224.5</ele>
        <time>2017-05-21T11:50:12Z</time>
      </trkpt>
      <trkpt lat="47.83092" lon="7.32526">
        <ele>224.8</ele>
        <time>2017-05-21T11:50:17Z</time>
      </trkpt>
      <trkpt lat="47.83092" lon="7.32544">
        <ele>225.2</ele>
        <time>2017-05-21T11:50:20Z</time>
      </trkpt>
      <trkpt lat="47.83091" lon="7.3259">
        <ele>226.2</ele>
        <time>2017-05-21T11:50:25Z</time>
      </trkpt>
      <trkpt lat="47.83082" lon="7.32632">
        <ele>224.8</ele>
        <time>2017-05-21T11:50:29Z</time>
      </trkpt>
      <trkpt lat="47.83069" lon="7.3266">
        <ele>224.4</ele>
        <time>2017-05-21T11:50:33Z</time>
      </trkpt>
      <trkpt lat="47.83055" lon="7.32683">
        <ele>224.6</ele>
        <time>2017-05-21T11:50:37Z</time>
      </trkpt>
      <trkpt lat="47.83044" lon="7.32701">
        <ele>224.6</ele>
        <time>2017-05-21T11:50:41Z</time>
      </trkpt>
      <trkpt lat="47.83023" lon="7.32736">
        <ele>224.9</ele>
        <time>2017-05-21T11:50:45Z</time>
      </trkpt>
      <trkpt lat="47.83015" lon="7.32747">
        <ele>224.7</ele>
        <time>2017-05-21T11:50:49Z</time>
      </trkpt>
      <trkpt lat="47.83003" lon="7.32764">
        <ele>224.8</ele>
        <time>2017-05-21T11:50:53Z</time>
      </trkpt>
      <trkpt lat="47.82979" lon="7.32798">
        <ele>225.7</ele>
        <time>2017-05-21T11:50:57Z</time>
      </trkpt>
      <trkpt lat="47.82965" lon="7.32825">
        <ele>225.9</ele>
        <time>2017-05-21T11:51:01Z</time>
      </trkpt>
      <trkpt lat="47.82946" lon="7.32853">
        <ele>226.5</ele>
        <time>2017-05-21T11:51:05Z</time>
      </trkpt>
      <trkpt lat="47.82923" lon="7.32889">
        <ele>228.3</ele>
        <time>2017-05-21T11:51:09Z</time>
      </trkpt>
      <trkpt lat="47.82904" lon="7.32924">
        <ele>228.1</ele>
        <time>2017-05-21T11:51:14Z</time>
      </trkpt>
      <trkpt lat="47.82898" lon="7.32939">
        <ele>227.9</ele>
        <time>2017-05-21T11:51:18Z</time>
      </trkpt>
      <trkpt lat="47.82886" lon="7.32981">
        <ele>225.9</ele>
        <time>2017-05-21T11:51:23Z</time>
      </trkpt>
      <trkpt lat="47.82872" lon="7.33035">
        <ele>222.5</ele>
        <time>2017-05-21T11:51:27Z</time>
      </trkpt>
      <trkpt lat="47.82871" lon="7.3305">
        <ele>223.2</ele>
        <time>2017-05-21T11:51:31Z</time>
      </trkpt>
      <trkpt lat="47.82854" lon="7.33106">
        <ele>222.5</ele>
        <time>2017-05-21T11:51:37Z</time>
      </trkpt>
      <trkpt lat="47.82845" lon="7.33133">
        <ele>221.7</ele>
        <time>2017-05-21T11:51:40Z</time>
      </trkpt>
      <trkpt lat="47.82847" lon="7.33166">
        <ele>222</ele>
        <time>2017-05-21T11:51:44Z</time>
      </trkpt>
      <trkpt lat="47.82843" lon="7.33197">
        <ele>222.3</ele>
        <time>2017-05-21T11:51:49Z</time>
      </trkpt>
      <trkpt lat="47.82836" lon="7.33228">
        <ele>223</ele>
        <time>2017-05-21T11:51:53Z</time>
      </trkpt>
      <trkpt lat="47.82825" lon="7.33279">
        <ele>224.3</ele>
        <time>2017-05-21T11:51:59Z</time>
      </trkpt>
      <trkpt lat="47.8282" lon="7.33304">
        <ele>224.9</ele>
        <time>2017-05-21T11:52:02Z</time>
      </trkpt>
      <trkpt lat="47.82815" lon="7.33329">
        <ele>224.8</ele>
        <time>2017-05-21T11:52:06Z</time>
      </trkpt>
      <trkpt lat="47.82813" lon="7.33342">
        <ele>224.8</ele>
        <time>2017-05-21T11:52:10Z</time>
      </trkpt>
      <trkpt lat="47.82804" lon="7.33374">
        <ele>223.6</ele>
        <time>2017-05-21T11:52:14Z</time>
      </trkpt>
      <trkpt lat="47.82799" lon="7.33397">
        <ele>222.3</ele>
        <time>2017-05-21T11:52:18Z</time>
      </trkpt>
      <trkpt lat="47.82796" lon="7.33412">
        <ele>222.8</ele>
        <time>2017-05-21T11:52:22Z</time>
      </trkpt>
      <trkpt lat="47.82795" lon="7.33418">
        <ele>224.9</ele>
        <time>2017-05-21T11:52:26Z</time>
      </trkpt>
      <trkpt lat="47.82794" lon="7.33425">
        <ele>227</ele>
        <time>2017-05-21T11:52:32Z</time>
      </trkpt>
      <trkpt lat="47.82791" lon="7.33439">
        <ele>228.2</ele>
        <time>2017-05-21T11:52:35Z</time>
      </trkpt>
      <trkpt lat="47.82786" lon="7.33465">
        <ele>228.4</ele>
        <time>2017-05-21T11:52:39Z</time>
      </trkpt>
      <trkpt lat="47.82783" lon="7.33482">
        <ele>227.9</ele>
        <time>2017-05-21T11:52:43Z</time>
      </trkpt>
      <trkpt lat="47.82774" lon="7.33529">
        <ele>226.7</ele>
        <time>2017-05-21T11:52:47Z</time>
      </trkpt>
      <trkpt lat="47.82765" lon="7.33574">
        <ele>227.1</ele>
        <time>2017-05-21T11:52:51Z</time>
      </trkpt>
      <trkpt lat="47.82758" lon="7.33612">
        <ele>227.1</ele>
        <time>2017-05-21T11:52:55Z</time>
      </trkpt>
      <trkpt lat="47.82748" lon="7.33658">
        <ele>225.6</ele>
        <time>2017-05-21T11:53:00Z</time>
      </trkpt>
      <trkpt lat="47.82746" lon="7.33686">
        <ele>224.3</ele>
        <time>2017-05-21T11:53:04Z</time>
      </trkpt>
      <trkpt lat="47.82745" lon="7.33734">
        <ele>222.9</ele>
        <time>2017-05-21T11:53:08Z</time>
      </trkpt>
      <trkpt lat="47.82741" lon="7.33775">
        <ele>223.6</ele>
        <time>2017-05-21T11:53:12Z</time>
      </trkpt>
      <trkpt lat="47.82739" lon="7.33813">
        <ele>224.2</ele>
        <time>2017-05-21T11:53:17Z</time>
      </trkpt>
      <trkpt lat="47.82738" lon="7.33865">
        <ele>223.8</ele>
        <time>2017-05-21T11:53:22Z</time>
      </trkpt>
      <trkpt lat="47.82737" lon="7.33897">
        <ele>223.1</ele>
        <time>2017-05-21T11:53:27Z</time>
      </trkpt>
      <trkpt lat="47.82736" lon="7.33914">
        <ele>223</ele>
        <time>2017-05-21T11:53:30Z</time>
      </trkpt>
      <trkpt lat="47.82733" lon="7.33957">
        <ele>224.1</ele>
        <time>2017-05-21T11:53:35Z</time>
      </trkpt>
      <trkpt lat="47.82731" lon="7.33978">
        <ele>224.6</ele>
        <time>2017-05-21T11:53:39Z</time>
      </trkpt>
      <trkpt lat="47.8273" lon="7.33983">
        <ele>224.4</ele>
        <time>2017-05-21T11:53:43Z</time>
      </trkpt>
      <trkpt lat="47.82728" lon="7.33993">
        <ele>223.9</ele>
        <time>2017-05-21T11:53:48Z</time>
      </trkpt>
      <trkpt lat="47.8273" lon="7.34025">
        <ele>222.7</ele>
        <time>2017-05-21T11:53:52Z</time>
      </trkpt>
      <trkpt lat="47.82727" lon="7.34091">
        <ele>223.1</ele>
        <time>2017-05-21T11:53:57Z</time>
      </trkpt>
      <trkpt lat="47.82724" lon="7.34133">
        <ele>221.5</ele>
        <time>2017-05-21T11:54:01Z</time>
      </trkpt>
      <trkpt lat="47.82722" lon="7.34175">
        <ele>222.1</ele>
        <time>2017-05-21T11:54:05Z</time>
      </trkpt>
      <trkpt lat="47.82719" lon="7.34216">
        <ele>222.1</ele>
        <time>2017-05-21T11:54:10Z</time>
      </trkpt>
      <trkpt lat="47.82715" lon="7.34257">
        <ele>222.2</ele>
        <time>2017-05-21T11:54:14Z</time>
      </trkpt>
      <trkpt lat="47.82712" lon="7.34298">
        <ele>221.2</ele>
        <time>2017-05-21T11:54:18Z</time>
      </trkpt>
      <trkpt lat="47.82708" lon="7.34338">
        <ele>220.1</ele>
        <time>2017-05-21T11:54:22Z</time>
      </trkpt>
      <trkpt lat="47.82704" lon="7.34378">
        <ele>220</ele>
        <time>2017-05-21T11:54:26Z</time>
      </trkpt>
      <trkpt lat="47.82701" lon="7.34416">
        <ele>220.2</ele>
        <time>2017-05-21T11:54:30Z</time>
      </trkpt>
      <trkpt lat="47.82695" lon="7.3447">
        <ele>221.2</ele>
        <time>2017-05-21T11:54:35Z</time>
      </trkpt>
      <trkpt lat="47.82692" lon="7.34507">
        <ele>221.5</ele>
        <time>2017-05-21T11:54:39Z</time>
      </trkpt>
      <trkpt lat="47.82689" lon="7.34536">
        <ele>220.7</ele>
        <time>2017-05-21T11:54:44Z</time>
      </trkpt>
      <trkpt lat="47.82681" lon="7.34587">
        <ele>219.6</ele>
        <time>2017-05-21T11:54:48Z</time>
      </trkpt>
      <trkpt lat="47.82676" lon="7.34634">
        <ele>218.9</ele>
        <time>2017-05-21T11:54:52Z</time>
      </trkpt>
      <trkpt lat="47.82674" lon="7.34662">
        <ele>218.8</ele>
        <time>2017-05-21T11:54:56Z</time>
      </trkpt>
      <trkpt lat="47.8267" lon="7.34708">
        <ele>218</ele>
        <time>2017-05-21T11:55:00Z</time>
      </trkpt>
      <trkpt lat="47.82667" lon="7.34745">
        <ele>218.3</ele>
        <time>2017-05-21T11:55:04Z</time>
      </trkpt>
      <trkpt lat="47.82663" lon="7.34781">
        <ele>218.4</ele>
        <time>2017-05-21T11:55:09Z</time>
      </trkpt>
      <trkpt lat="47.82658" lon="7.34817">
        <ele>218.3</ele>
        <time>2017-05-21T11:55:14Z</time>
      </trkpt>
      <trkpt lat="47.82647" lon="7.34872">
        <ele>219.2</ele>
        <time>2017-05-21T11:55:19Z</time>
      </trkpt>
      <trkpt lat="47.82639" lon="7.34906">
        <ele>218.7</ele>
        <time>2017-05-21T11:55:22Z</time>
      </trkpt>
      <trkpt lat="47.82631" lon="7.3494">
        <ele>217.6</ele>
        <time>2017-05-21T11:55:27Z</time>
      </trkpt>
      <trkpt lat="47.8262" lon="7.34984">
        <ele>218.6</ele>
        <time>2017-05-21T11:55:30Z</time>
      </trkpt>
      <trkpt lat="47.82613" lon="7.35018">
        <ele>217.9</ele>
        <time>2017-05-21T11:55:35Z</time>
      </trkpt>
      <trkpt lat="47.82607" lon="7.35052">
        <ele>218.4</ele>
        <time>2017-05-21T11:55:40Z</time>
      </trkpt>
      <trkpt lat="47.82604" lon="7.35091">
        <ele>219.2</ele>
        <time>2017-05-21T11:55:44Z</time>
      </trkpt>
      <trkpt lat="47.82602" lon="7.35131">
        <ele>219.7</ele>
        <time>2017-05-21T11:55:48Z</time>
      </trkpt>
      <trkpt lat="47.826" lon="7.35186">
        <ele>220.9</ele>
        <time>2017-05-21T11:55:53Z</time>
      </trkpt>
      <trkpt lat="47.82598" lon="7.35223">
        <ele>220.5</ele>
        <time>2017-05-21T11:55:57Z</time>
      </trkpt>
      <trkpt lat="47.82595" lon="7.35261">
        <ele>220.5</ele>
        <time>2017-05-21T11:56:02Z</time>
      </trkpt>
      <trkpt lat="47.82587" lon="7.35296">
        <ele>221.2</ele>
        <time>2017-05-21T11:56:05Z</time>
      </trkpt>
      <trkpt lat="47.82574" lon="7.35328">
        <ele>221.2</ele>
        <time>2017-05-21T11:56:10Z</time>
      </trkpt>
      <trkpt lat="47.82559" lon="7.35359">
        <ele>221.7</ele>
        <time>2017-05-21T11:56:14Z</time>
      </trkpt>
      <trkpt lat="47.82538" lon="7.35372">
        <ele>221.7</ele>
        <time>2017-05-21T11:56:18Z</time>
      </trkpt>
      <trkpt lat="47.82515" lon="7.35365">
        <ele>221.3</ele>
        <time>2017-05-21T11:56:22Z</time>
      </trkpt>
      <trkpt lat="47.8249" lon="7.35359">
        <ele>222.2</ele>
        <time>2017-05-21T11:56:26Z</time>
      </trkpt>
      <trkpt lat="47.8246" lon="7.35365">
        <ele>222.8</ele>
        <time>2017-05-21T11:56:31Z</time>
      </trkpt>
      <trkpt lat="47.82453" lon="7.3538">
        <ele>222.7</ele>
        <time>2017-05-21T11:56:35Z</time>
      </trkpt>
      <trkpt lat="47.8243" lon="7.35423">
        <ele>223.3</ele>
        <time>2017-05-21T11:56:39Z</time>
      </trkpt>
      <trkpt lat="47.82413" lon="7.35459">
        <ele>224.1</ele>
        <time>2017-05-21T11:56:43Z</time>
      </trkpt>
      <trkpt lat="47.82397" lon="7.35493">
        <ele>224.2</ele>
        <time>2017-05-21T11:56:49Z</time>
      </trkpt>
      <trkpt lat="47.82388" lon="7.3552">
        <ele>224.6</ele>
        <time>2017-05-21T11:56:52Z</time>
      </trkpt>
      <trkpt lat="47.82381" lon="7.35546">
        <ele>225</ele>
        <time>2017-05-21T11:56:56Z</time>
      </trkpt>
      <trkpt lat="47.82371" lon="7.3557">
        <ele>224.9</ele>
        <time>2017-05-21T11:57:00Z</time>
      </trkpt>
    </trkseg>
  </trk>
</gpx>